<?xml version="1.0" encoding="UTF-8" standalone="no" ?>
<gpx xmlns="http://www.topografix.com/GPX/1/1" xmlns:xsi="http://www.w3.org/2001/XMLSchema-instance" xsi:schemaLocation="http://www.topografix.com/GPX/1/1 http://www.topografix.com/GPX/1/1/gpx.xsd" version="1.1" creator="VisuGPX - https://www.visugpx.com">
  <metadata>
    <name>140611ROBChristophVinsSignore</name>
    <desc><![CDATA[Bonne sortie sous le soleil]]></desc>
  </metadata>
  <trk>
    <name><![CDATA[140611ROBChristophVinsSignore]]></name>
    <trkseg>
      <trkpt lat="43.41581" lon="6.0704">
        <ele>218.90093994141</ele>
        <time>2014-06-11T12:10:51Z</time>
      </trkpt>
      <trkpt lat="43.41581" lon="6.0704">
        <ele>218.90093994141</ele>
        <time>2014-06-11T12:10:52Z</time>
      </trkpt>
      <trkpt lat="43.41581" lon="6.07041">
        <ele>218.90093994141</ele>
        <time>2014-06-11T12:10:54Z</time>
      </trkpt>
      <trkpt lat="43.41581" lon="6.07044">
        <ele>218.91467285156</ele>
        <time>2014-06-11T12:10:56Z</time>
      </trkpt>
      <trkpt lat="43.41581" lon="6.07049">
        <ele>218.91467285156</ele>
        <time>2014-06-11T12:10:58Z</time>
      </trkpt>
      <trkpt lat="43.41582" lon="6.0707">
        <ele>218.44041442871</ele>
        <time>2014-06-11T12:11:04Z</time>
      </trkpt>
      <trkpt lat="43.41584" lon="6.07097">
        <ele>218</ele>
        <time>2014-06-11T12:11:10Z</time>
      </trkpt>
      <trkpt lat="43.4158" lon="6.07107">
        <ele>217.87347412109</ele>
        <time>2014-06-11T12:11:13Z</time>
      </trkpt>
      <trkpt lat="43.41578" lon="6.07109">
        <ele>217.80480957031</ele>
        <time>2014-06-11T12:11:14Z</time>
      </trkpt>
      <trkpt lat="43.41569" lon="6.07115">
        <ele>217.47521972656</ele>
        <time>2014-06-11T12:11:17Z</time>
      </trkpt>
      <trkpt lat="43.41561" lon="6.07117">
        <ele>217.20056152344</ele>
        <time>2014-06-11T12:11:19Z</time>
      </trkpt>
      <trkpt lat="43.41547" lon="6.07116">
        <ele>217</ele>
        <time>2014-06-11T12:11:21Z</time>
      </trkpt>
      <trkpt lat="43.41547" lon="6.07116">
        <ele>217</ele>
        <time>2014-06-11T12:11:23Z</time>
      </trkpt>
      <trkpt lat="43.41539" lon="6.07079">
        <ele>217.14981079102</ele>
        <time>2014-06-11T12:11:31Z</time>
      </trkpt>
      <trkpt lat="43.41526" lon="6.07077">
        <ele>217.13842773438</ele>
        <time>2014-06-11T12:11:34Z</time>
      </trkpt>
      <trkpt lat="43.41521" lon="6.07078">
        <ele>216.93415832519</ele>
        <time>2014-06-11T12:11:35Z</time>
      </trkpt>
      <trkpt lat="43.41507" lon="6.07081">
        <ele>216.35565185547</ele>
        <time>2014-06-11T12:11:38Z</time>
      </trkpt>
      <trkpt lat="43.41499" lon="6.07082">
        <ele>216.00891113281</ele>
        <time>2014-06-11T12:11:40Z</time>
      </trkpt>
      <trkpt lat="43.41495" lon="6.07082">
        <ele>215.86126708984</ele>
        <time>2014-06-11T12:11:41Z</time>
      </trkpt>
      <trkpt lat="43.41488" lon="6.07079">
        <ele>215.74626159668</ele>
        <time>2014-06-11T12:11:43Z</time>
      </trkpt>
      <trkpt lat="43.41485" lon="6.07076">
        <ele>215.72393798828</ele>
        <time>2014-06-11T12:11:44Z</time>
      </trkpt>
      <trkpt lat="43.41474" lon="6.07073">
        <ele>215.44413757324</ele>
        <time>2014-06-11T12:11:48Z</time>
      </trkpt>
      <trkpt lat="43.41462" lon="6.07073">
        <ele>215.36267089844</ele>
        <time>2014-06-11T12:11:53Z</time>
      </trkpt>
      <trkpt lat="43.41452" lon="6.07089">
        <ele>215</ele>
        <time>2014-06-11T12:11:57Z</time>
      </trkpt>
      <trkpt lat="43.41447" lon="6.07099">
        <ele>215</ele>
        <time>2014-06-11T12:11:59Z</time>
      </trkpt>
      <trkpt lat="43.41441" lon="6.07117">
        <ele>214.86096191406</ele>
        <time>2014-06-11T12:12:02Z</time>
      </trkpt>
      <trkpt lat="43.41434" lon="6.07136">
        <ele>214.64123535156</ele>
        <time>2014-06-11T12:12:05Z</time>
      </trkpt>
      <trkpt lat="43.41425" lon="6.07163">
        <ele>214.31164550781</ele>
        <time>2014-06-11T12:12:09Z</time>
      </trkpt>
      <trkpt lat="43.41408" lon="6.07218">
        <ele>213.69366455078</ele>
        <time>2014-06-11T12:12:17Z</time>
      </trkpt>
      <trkpt lat="43.41391" lon="6.07273">
        <ele>213.06195068359</ele>
        <time>2014-06-11T12:12:25Z</time>
      </trkpt>
      <trkpt lat="43.41386" lon="6.07286">
        <ele>213</ele>
        <time>2014-06-11T12:12:27Z</time>
      </trkpt>
      <trkpt lat="43.41384" lon="6.07294">
        <ele>213</ele>
        <time>2014-06-11T12:12:28Z</time>
      </trkpt>
      <trkpt lat="43.41376" lon="6.07323">
        <ele>213</ele>
        <time>2014-06-11T12:12:32Z</time>
      </trkpt>
      <trkpt lat="43.41367" lon="6.07363">
        <ele>213</ele>
        <time>2014-06-11T12:12:37Z</time>
      </trkpt>
      <trkpt lat="43.41351" lon="6.07439">
        <ele>213</ele>
        <time>2014-06-11T12:12:46Z</time>
      </trkpt>
      <trkpt lat="43.41338" lon="6.07512">
        <ele>212.15307617188</ele>
        <time>2014-06-11T12:12:55Z</time>
      </trkpt>
      <trkpt lat="43.41331" lon="6.07536">
        <ele>212</ele>
        <time>2014-06-11T12:12:58Z</time>
      </trkpt>
      <trkpt lat="43.41326" lon="6.07561">
        <ele>211.79998779297</ele>
        <time>2014-06-11T12:13:01Z</time>
      </trkpt>
      <trkpt lat="43.41324" lon="6.07569">
        <ele>211.52017211914</ele>
        <time>2014-06-11T12:13:02Z</time>
      </trkpt>
      <trkpt lat="43.41309" lon="6.07619">
        <ele>210.69885253906</ele>
        <time>2014-06-11T12:13:09Z</time>
      </trkpt>
      <trkpt lat="43.41295" lon="6.07667">
        <ele>209.61039733887</ele>
        <time>2014-06-11T12:13:16Z</time>
      </trkpt>
      <trkpt lat="43.41288" lon="6.0771">
        <ele>208.64982604981</ele>
        <time>2014-06-11T12:13:22Z</time>
      </trkpt>
      <trkpt lat="43.4129" lon="6.07756">
        <ele>208</ele>
        <time>2014-06-11T12:13:28Z</time>
      </trkpt>
      <trkpt lat="43.41296" lon="6.0778">
        <ele>207.97100830078</ele>
        <time>2014-06-11T12:13:31Z</time>
      </trkpt>
      <trkpt lat="43.41301" lon="6.07796">
        <ele>207.89326477051</ele>
        <time>2014-06-11T12:13:33Z</time>
      </trkpt>
      <trkpt lat="43.41303" lon="6.07803">
        <ele>207.91090393066</ele>
        <time>2014-06-11T12:13:34Z</time>
      </trkpt>
      <trkpt lat="43.41305" lon="6.07811">
        <ele>207.78840637207</ele>
        <time>2014-06-11T12:13:35Z</time>
      </trkpt>
      <trkpt lat="43.41319" lon="6.07862">
        <ele>206.50344848633</ele>
        <time>2014-06-11T12:13:42Z</time>
      </trkpt>
      <trkpt lat="43.41327" lon="6.07893">
        <ele>205.24517822266</ele>
        <time>2014-06-11T12:13:47Z</time>
      </trkpt>
      <trkpt lat="43.41327" lon="6.079">
        <ele>205.24517822266</ele>
        <time>2014-06-11T12:13:48Z</time>
      </trkpt>
      <trkpt lat="43.41326" lon="6.07912">
        <ele>205.27264404297</ele>
        <time>2014-06-11T12:13:50Z</time>
      </trkpt>
      <trkpt lat="43.41331" lon="6.07923">
        <ele>204.8684387207</ele>
        <time>2014-06-11T12:13:52Z</time>
      </trkpt>
      <trkpt lat="43.41339" lon="6.07931">
        <ele>204.67849731445</ele>
        <time>2014-06-11T12:13:54Z</time>
      </trkpt>
      <trkpt lat="43.41354" lon="6.07943">
        <ele>204.7883605957</ele>
        <time>2014-06-11T12:13:57Z</time>
      </trkpt>
      <trkpt lat="43.41373" lon="6.07963">
        <ele>204.60643005371</ele>
        <time>2014-06-11T12:14:01Z</time>
      </trkpt>
      <trkpt lat="43.41381" lon="6.07975">
        <ele>204.65267944336</ele>
        <time>2014-06-11T12:14:03Z</time>
      </trkpt>
      <trkpt lat="43.41408" lon="6.0802">
        <ele>204.47550964356</ele>
        <time>2014-06-11T12:14:10Z</time>
      </trkpt>
      <trkpt lat="43.41428" lon="6.08057">
        <ele>203.81425476074</ele>
        <time>2014-06-11T12:14:16Z</time>
      </trkpt>
      <trkpt lat="43.41484" lon="6.0815">
        <ele>203.85302734375</ele>
        <time>2014-06-11T12:14:31Z</time>
      </trkpt>
      <trkpt lat="43.41491" lon="6.08162">
        <ele>204.31994628906</ele>
        <time>2014-06-11T12:14:33Z</time>
      </trkpt>
      <trkpt lat="43.41505" lon="6.08185">
        <ele>204.66397094727</ele>
        <time>2014-06-11T12:14:37Z</time>
      </trkpt>
      <trkpt lat="43.41523" lon="6.08222">
        <ele>205.52314758301</ele>
        <time>2014-06-11T12:14:42Z</time>
      </trkpt>
      <trkpt lat="43.41544" lon="6.08271">
        <ele>206.63859558106</ele>
        <time>2014-06-11T12:14:48Z</time>
      </trkpt>
      <trkpt lat="43.4155" lon="6.08304">
        <ele>207.26416015625</ele>
        <time>2014-06-11T12:14:52Z</time>
      </trkpt>
      <trkpt lat="43.41562" lon="6.08357">
        <ele>207.68408203125</ele>
        <time>2014-06-11T12:14:59Z</time>
      </trkpt>
      <trkpt lat="43.41571" lon="6.08403">
        <ele>207.89633178711</ele>
        <time>2014-06-11T12:15:05Z</time>
      </trkpt>
      <trkpt lat="43.4158" lon="6.08456">
        <ele>207.69282531738</ele>
        <time>2014-06-11T12:15:12Z</time>
      </trkpt>
      <trkpt lat="43.41589" lon="6.08521">
        <ele>206.63522338867</ele>
        <time>2014-06-11T12:15:20Z</time>
      </trkpt>
      <trkpt lat="43.41602" lon="6.08625">
        <ele>205.01895141602</ele>
        <time>2014-06-11T12:15:33Z</time>
      </trkpt>
      <trkpt lat="43.41609" lon="6.08656">
        <ele>204.30541992188</ele>
        <time>2014-06-11T12:15:37Z</time>
      </trkpt>
      <trkpt lat="43.4162" lon="6.08677">
        <ele>205.31665039062</ele>
        <time>2014-06-11T12:15:40Z</time>
      </trkpt>
      <trkpt lat="43.41643" lon="6.08718">
        <ele>207.75546264648</ele>
        <time>2014-06-11T12:15:46Z</time>
      </trkpt>
      <trkpt lat="43.41667" lon="6.08761">
        <ele>207.19708251953</ele>
        <time>2014-06-11T12:15:52Z</time>
      </trkpt>
      <trkpt lat="43.41695" lon="6.08811">
        <ele>206.59535217285</ele>
        <time>2014-06-11T12:15:59Z</time>
      </trkpt>
      <trkpt lat="43.41726" lon="6.0887">
        <ele>206.91462707519</ele>
        <time>2014-06-11T12:16:07Z</time>
      </trkpt>
      <trkpt lat="43.41731" lon="6.08885">
        <ele>206.57130432129</ele>
        <time>2014-06-11T12:16:09Z</time>
      </trkpt>
      <trkpt lat="43.41735" lon="6.08911">
        <ele>206.85107421875</ele>
        <time>2014-06-11T12:16:12Z</time>
      </trkpt>
      <trkpt lat="43.41735" lon="6.08928">
        <ele>206.90600585938</ele>
        <time>2014-06-11T12:16:14Z</time>
      </trkpt>
      <trkpt lat="43.41734" lon="6.08964">
        <ele>206.3440246582</ele>
        <time>2014-06-11T12:16:18Z</time>
      </trkpt>
      <trkpt lat="43.41732" lon="6.08981">
        <ele>206.01751708984</ele>
        <time>2014-06-11T12:16:20Z</time>
      </trkpt>
      <trkpt lat="43.41727" lon="6.09005">
        <ele>205.48193359375</ele>
        <time>2014-06-11T12:16:23Z</time>
      </trkpt>
      <trkpt lat="43.41722" lon="6.09038">
        <ele>204.94635009766</ele>
        <time>2014-06-11T12:16:27Z</time>
      </trkpt>
      <trkpt lat="43.4172" lon="6.09062">
        <ele>204.78155517578</ele>
        <time>2014-06-11T12:16:30Z</time>
      </trkpt>
      <trkpt lat="43.41718" lon="6.09128">
        <ele>204.44026184082</ele>
        <time>2014-06-11T12:16:38Z</time>
      </trkpt>
      <trkpt lat="43.41718" lon="6.09193">
        <ele>203.74224853516</ele>
        <time>2014-06-11T12:16:46Z</time>
      </trkpt>
      <trkpt lat="43.41721" lon="6.0926">
        <ele>204.74334716797</ele>
        <time>2014-06-11T12:16:54Z</time>
      </trkpt>
      <trkpt lat="43.41721" lon="6.0929">
        <ele>204.77325439453</ele>
        <time>2014-06-11T12:16:58Z</time>
      </trkpt>
      <trkpt lat="43.41721" lon="6.09296">
        <ele>204.77325439453</ele>
        <time>2014-06-11T12:16:59Z</time>
      </trkpt>
      <trkpt lat="43.41719" lon="6.09302">
        <ele>204.36126708984</ele>
        <time>2014-06-11T12:17:01Z</time>
      </trkpt>
      <trkpt lat="43.41716" lon="6.09304">
        <ele>203.94927978516</ele>
        <time>2014-06-11T12:17:02Z</time>
      </trkpt>
      <trkpt lat="43.41697" lon="6.09309">
        <ele>200.42300415039</ele>
        <time>2014-06-11T12:17:08Z</time>
      </trkpt>
      <trkpt lat="43.41676" lon="6.09314">
        <ele>200</ele>
        <time>2014-06-11T12:17:13Z</time>
      </trkpt>
      <trkpt lat="43.41657" lon="6.09319">
        <ele>200</ele>
        <time>2014-06-11T12:17:17Z</time>
      </trkpt>
      <trkpt lat="43.41621" lon="6.09327">
        <ele>209.19946289062</ele>
        <time>2014-06-11T12:17:25Z</time>
      </trkpt>
      <trkpt lat="43.41599" lon="6.09334">
        <ele>218.36312866211</ele>
        <time>2014-06-11T12:17:31Z</time>
      </trkpt>
      <trkpt lat="43.41596" lon="6.09331">
        <ele>219.5372467041</ele>
        <time>2014-06-11T12:17:33Z</time>
      </trkpt>
      <trkpt lat="43.41594" lon="6.09326">
        <ele>220.19848632812</ele>
        <time>2014-06-11T12:17:35Z</time>
      </trkpt>
      <trkpt lat="43.41592" lon="6.09321">
        <ele>221.0272064209</ele>
        <time>2014-06-11T12:17:37Z</time>
      </trkpt>
      <trkpt lat="43.4159" lon="6.0931">
        <ele>222.20108032227</ele>
        <time>2014-06-11T12:17:41Z</time>
      </trkpt>
      <trkpt lat="43.4159" lon="6.093">
        <ele>222.50874328613</ele>
        <time>2014-06-11T12:17:44Z</time>
      </trkpt>
      <trkpt lat="43.41591" lon="6.09294">
        <ele>222.12184143066</ele>
        <time>2014-06-11T12:17:46Z</time>
      </trkpt>
      <trkpt lat="43.41594" lon="6.09274">
        <ele>221.25849914551</ele>
        <time>2014-06-11T12:17:52Z</time>
      </trkpt>
      <trkpt lat="43.41594" lon="6.09271">
        <ele>221.19944763184</ele>
        <time>2014-06-11T12:17:53Z</time>
      </trkpt>
      <trkpt lat="43.41595" lon="6.09263">
        <ele>221.08628845215</ele>
        <time>2014-06-11T12:17:55Z</time>
      </trkpt>
      <trkpt lat="43.41596" lon="6.09256">
        <ele>220.78622436523</ele>
        <time>2014-06-11T12:17:57Z</time>
      </trkpt>
      <trkpt lat="43.41595" lon="6.09249">
        <ele>221.50036621094</ele>
        <time>2014-06-11T12:17:59Z</time>
      </trkpt>
      <trkpt lat="43.41592" lon="6.09246">
        <ele>222.70886230469</ele>
        <time>2014-06-11T12:18:01Z</time>
      </trkpt>
      <trkpt lat="43.41588" lon="6.09247">
        <ele>224.21948242188</ele>
        <time>2014-06-11T12:18:03Z</time>
      </trkpt>
      <trkpt lat="43.41582" lon="6.09249">
        <ele>226.21170043945</ele>
        <time>2014-06-11T12:18:06Z</time>
      </trkpt>
      <trkpt lat="43.41581" lon="6.0925">
        <ele>226.59503173828</ele>
        <time>2014-06-11T12:18:07Z</time>
      </trkpt>
      <trkpt lat="43.41576" lon="6.09254">
        <ele>227.63056945801</ele>
        <time>2014-06-11T12:18:10Z</time>
      </trkpt>
      <trkpt lat="43.41576" lon="6.09256">
        <ele>227.67582702637</ele>
        <time>2014-06-11T12:18:11Z</time>
      </trkpt>
      <trkpt lat="43.41576" lon="6.09262">
        <ele>227.52671813965</ele>
        <time>2014-06-11T12:18:13Z</time>
      </trkpt>
      <trkpt lat="43.41576" lon="6.09264">
        <ele>227.48374938965</ele>
        <time>2014-06-11T12:18:14Z</time>
      </trkpt>
      <trkpt lat="43.41575" lon="6.09266">
        <ele>227.63847351074</ele>
        <time>2014-06-11T12:18:16Z</time>
      </trkpt>
      <trkpt lat="43.41572" lon="6.09268">
        <ele>228.41928100586</ele>
        <time>2014-06-11T12:18:20Z</time>
      </trkpt>
      <trkpt lat="43.41572" lon="6.0927">
        <ele>228.49319458008</ele>
        <time>2014-06-11T12:18:21Z</time>
      </trkpt>
      <trkpt lat="43.41571" lon="6.09271">
        <ele>228.67413330078</ele>
        <time>2014-06-11T12:18:26Z</time>
      </trkpt>
      <trkpt lat="43.41568" lon="6.09271">
        <ele>229.41989135742</ele>
        <time>2014-06-11T12:18:32Z</time>
      </trkpt>
      <trkpt lat="43.41566" lon="6.0927">
        <ele>229.96133422852</ele>
        <time>2014-06-11T12:18:42Z</time>
      </trkpt>
      <trkpt lat="43.41565" lon="6.09272">
        <ele>230.3723449707</ele>
        <time>2014-06-11T12:18:48Z</time>
      </trkpt>
      <trkpt lat="43.41565" lon="6.09275">
        <ele>230.43907165527</ele>
        <time>2014-06-11T12:18:54Z</time>
      </trkpt>
      <trkpt lat="43.41563" lon="6.09277">
        <ele>230.8494720459</ele>
        <time>2014-06-11T12:19:00Z</time>
      </trkpt>
      <trkpt lat="43.41562" lon="6.09282">
        <ele>231.17578125</ele>
        <time>2014-06-11T12:19:04Z</time>
      </trkpt>
      <trkpt lat="43.41559" lon="6.09287">
        <ele>232.0546875</ele>
        <time>2014-06-11T12:19:07Z</time>
      </trkpt>
      <trkpt lat="43.41556" lon="6.09292">
        <ele>232.82373046875</ele>
        <time>2014-06-11T12:19:10Z</time>
      </trkpt>
      <trkpt lat="43.41555" lon="6.09293">
        <ele>233.03802490234</ele>
        <time>2014-06-11T12:19:14Z</time>
      </trkpt>
      <trkpt lat="43.41555" lon="6.09294">
        <ele>233.13415527344</ele>
        <time>2014-06-11T12:19:23Z</time>
      </trkpt>
      <trkpt lat="43.41555" lon="6.09294">
        <ele>233.13415527344</ele>
        <time>2014-06-11T12:19:24Z</time>
      </trkpt>
      <trkpt lat="43.41556" lon="6.09295">
        <ele>232.93359375</ele>
        <time>2014-06-11T12:19:25Z</time>
      </trkpt>
      <trkpt lat="43.41556" lon="6.09295">
        <ele>232.93359375</ele>
        <time>2014-06-11T12:19:27Z</time>
      </trkpt>
      <trkpt lat="43.41555" lon="6.09295">
        <ele>233.03802490234</ele>
        <time>2014-06-11T12:19:30Z</time>
      </trkpt>
      <trkpt lat="43.41555" lon="6.09301">
        <ele>233.23028564453</ele>
        <time>2014-06-11T12:19:33Z</time>
      </trkpt>
      <trkpt lat="43.41551" lon="6.09309">
        <ele>234.22996520996</ele>
        <time>2014-06-11T12:19:40Z</time>
      </trkpt>
      <trkpt lat="43.41549" lon="6.09321">
        <ele>235.34060668945</ele>
        <time>2014-06-11T12:19:46Z</time>
      </trkpt>
      <trkpt lat="43.41544" lon="6.09334">
        <ele>236.82376098633</ele>
        <time>2014-06-11T12:19:51Z</time>
      </trkpt>
      <trkpt lat="43.41538" lon="6.09348">
        <ele>237.2421875</ele>
        <time>2014-06-11T12:19:57Z</time>
      </trkpt>
      <trkpt lat="43.41539" lon="6.09358">
        <ele>236.3641204834</ele>
        <time>2014-06-11T12:20:01Z</time>
      </trkpt>
      <trkpt lat="43.41538" lon="6.09362">
        <ele>236.21032714844</ele>
        <time>2014-06-11T12:20:02Z</time>
      </trkpt>
      <trkpt lat="43.41538" lon="6.09364">
        <ele>236.25135803223</ele>
        <time>2014-06-11T12:20:03Z</time>
      </trkpt>
      <trkpt lat="43.41536" lon="6.09369">
        <ele>236.66345214844</ele>
        <time>2014-06-11T12:20:05Z</time>
      </trkpt>
      <trkpt lat="43.41536" lon="6.09371">
        <ele>236.74711608887</ele>
        <time>2014-06-11T12:20:06Z</time>
      </trkpt>
      <trkpt lat="43.41533" lon="6.0939">
        <ele>237.33514404297</ele>
        <time>2014-06-11T12:20:12Z</time>
      </trkpt>
      <trkpt lat="43.41533" lon="6.09405">
        <ele>235.82966613769</ele>
        <time>2014-06-11T12:20:15Z</time>
      </trkpt>
      <trkpt lat="43.41534" lon="6.09409">
        <ele>235.23298645019</ele>
        <time>2014-06-11T12:20:16Z</time>
      </trkpt>
      <trkpt lat="43.41535" lon="6.09413">
        <ele>234.28388977051</ele>
        <time>2014-06-11T12:20:17Z</time>
      </trkpt>
      <trkpt lat="43.41536" lon="6.09418">
        <ele>233.34516906738</ele>
        <time>2014-06-11T12:20:18Z</time>
      </trkpt>
      <trkpt lat="43.41535" lon="6.09429">
        <ele>232.61389160156</ele>
        <time>2014-06-11T12:20:22Z</time>
      </trkpt>
      <trkpt lat="43.41535" lon="6.09439">
        <ele>231.3830871582</ele>
        <time>2014-06-11T12:20:27Z</time>
      </trkpt>
      <trkpt lat="43.41535" lon="6.09439">
        <ele>231.3830871582</ele>
        <time>2014-06-11T12:20:33Z</time>
      </trkpt>
      <trkpt lat="43.41535" lon="6.0944">
        <ele>231.29553222656</ele>
        <time>2014-06-11T12:20:41Z</time>
      </trkpt>
      <trkpt lat="43.41536" lon="6.09442">
        <ele>230.90414428711</ele>
        <time>2014-06-11T12:20:46Z</time>
      </trkpt>
      <trkpt lat="43.41534" lon="6.09444">
        <ele>231.3161315918</ele>
        <time>2014-06-11T12:20:50Z</time>
      </trkpt>
      <trkpt lat="43.41534" lon="6.09446">
        <ele>231.17132568359</ele>
        <time>2014-06-11T12:20:53Z</time>
      </trkpt>
      <trkpt lat="43.41533" lon="6.09448">
        <ele>231.33612060547</ele>
        <time>2014-06-11T12:21:00Z</time>
      </trkpt>
      <trkpt lat="43.41533" lon="6.0945">
        <ele>231.38761901856</ele>
        <time>2014-06-11T12:21:01Z</time>
      </trkpt>
      <trkpt lat="43.41532" lon="6.09461">
        <ele>230.88980102539</ele>
        <time>2014-06-11T12:21:06Z</time>
      </trkpt>
      <trkpt lat="43.41534" lon="6.09465">
        <ele>229.99716186523</ele>
        <time>2014-06-11T12:21:07Z</time>
      </trkpt>
      <trkpt lat="43.41535" lon="6.09471">
        <ele>228.87449645996</ele>
        <time>2014-06-11T12:21:09Z</time>
      </trkpt>
      <trkpt lat="43.41534" lon="6.09472">
        <ele>229.13198852539</ele>
        <time>2014-06-11T12:21:10Z</time>
      </trkpt>
      <trkpt lat="43.41527" lon="6.09482">
        <ele>231.20379638672</ele>
        <time>2014-06-11T12:21:16Z</time>
      </trkpt>
      <trkpt lat="43.41524" lon="6.09485">
        <ele>231.76164245606</ele>
        <time>2014-06-11T12:21:20Z</time>
      </trkpt>
      <trkpt lat="43.41521" lon="6.09486">
        <ele>232.53370666504</ele>
        <time>2014-06-11T12:21:26Z</time>
      </trkpt>
      <trkpt lat="43.41518" lon="6.09488">
        <ele>233.20062255859</ele>
        <time>2014-06-11T12:21:33Z</time>
      </trkpt>
      <trkpt lat="43.41518" lon="6.0949">
        <ele>233.10452270508</ele>
        <time>2014-06-11T12:21:40Z</time>
      </trkpt>
      <trkpt lat="43.41516" lon="6.09492">
        <ele>233.41905212402</ele>
        <time>2014-06-11T12:21:43Z</time>
      </trkpt>
      <trkpt lat="43.41515" lon="6.09495">
        <ele>233.70039367676</ele>
        <time>2014-06-11T12:21:45Z</time>
      </trkpt>
      <trkpt lat="43.41512" lon="6.09502">
        <ele>233.90423583984</ele>
        <time>2014-06-11T12:21:48Z</time>
      </trkpt>
      <trkpt lat="43.4151" lon="6.09507">
        <ele>234.12567138672</ele>
        <time>2014-06-11T12:21:50Z</time>
      </trkpt>
      <trkpt lat="43.41504" lon="6.09521">
        <ele>234.33682250977</ele>
        <time>2014-06-11T12:21:55Z</time>
      </trkpt>
      <trkpt lat="43.41504" lon="6.09531">
        <ele>233.30783081055</ele>
        <time>2014-06-11T12:21:58Z</time>
      </trkpt>
      <trkpt lat="43.41507" lon="6.09538">
        <ele>231.63571166992</ele>
        <time>2014-06-11T12:22:00Z</time>
      </trkpt>
      <trkpt lat="43.41503" lon="6.09545">
        <ele>232.34245300293</ele>
        <time>2014-06-11T12:22:03Z</time>
      </trkpt>
      <trkpt lat="43.415" lon="6.09546">
        <ele>232.84449768066</ele>
        <time>2014-06-11T12:22:05Z</time>
      </trkpt>
      <trkpt lat="43.41497" lon="6.09549">
        <ele>233.33241271973</ele>
        <time>2014-06-11T12:22:07Z</time>
      </trkpt>
      <trkpt lat="43.41492" lon="6.09556">
        <ele>233.74417114258</ele>
        <time>2014-06-11T12:22:10Z</time>
      </trkpt>
      <trkpt lat="43.41486" lon="6.09569">
        <ele>233.4557800293</ele>
        <time>2014-06-11T12:22:16Z</time>
      </trkpt>
      <trkpt lat="43.41486" lon="6.09571">
        <ele>233.37338256836</ele>
        <time>2014-06-11T12:22:17Z</time>
      </trkpt>
      <trkpt lat="43.41484" lon="6.09573">
        <ele>233.65147399902</ele>
        <time>2014-06-11T12:22:22Z</time>
      </trkpt>
      <trkpt lat="43.41484" lon="6.09574">
        <ele>233.35794067383</ele>
        <time>2014-06-11T12:22:26Z</time>
      </trkpt>
      <trkpt lat="43.41484" lon="6.09574">
        <ele>233.42488098144</ele>
        <time>2014-06-11T12:22:27Z</time>
      </trkpt>
      <trkpt lat="43.41484" lon="6.09576">
        <ele>233.26522827148</ele>
        <time>2014-06-11T12:22:29Z</time>
      </trkpt>
      <trkpt lat="43.41483" lon="6.09577">
        <ele>233.47637939453</ele>
        <time>2014-06-11T12:22:33Z</time>
      </trkpt>
      <trkpt lat="43.41484" lon="6.09588">
        <ele>232.03958129883</ele>
        <time>2014-06-11T12:22:41Z</time>
      </trkpt>
      <trkpt lat="43.41483" lon="6.09588">
        <ele>232.142578125</ele>
        <time>2014-06-11T12:22:46Z</time>
      </trkpt>
      <trkpt lat="43.41479" lon="6.09602">
        <ele>231.43704223633</ele>
        <time>2014-06-11T12:22:52Z</time>
      </trkpt>
      <trkpt lat="43.41478" lon="6.09603">
        <ele>231.5451965332</ele>
        <time>2014-06-11T12:22:53Z</time>
      </trkpt>
      <trkpt lat="43.41477" lon="6.09613">
        <ele>230.79570007324</ele>
        <time>2014-06-11T12:22:57Z</time>
      </trkpt>
      <trkpt lat="43.41477" lon="6.09618">
        <ele>230.4489440918</ele>
        <time>2014-06-11T12:22:58Z</time>
      </trkpt>
      <trkpt lat="43.41479" lon="6.09639">
        <ele>228.533203125</ele>
        <time>2014-06-11T12:23:03Z</time>
      </trkpt>
      <trkpt lat="43.41478" lon="6.09641">
        <ele>228.45106506348</ele>
        <time>2014-06-11T12:23:04Z</time>
      </trkpt>
      <trkpt lat="43.41478" lon="6.09644">
        <ele>228.28112792969</ele>
        <time>2014-06-11T12:23:05Z</time>
      </trkpt>
      <trkpt lat="43.41477" lon="6.09646">
        <ele>228.23992919922</ele>
        <time>2014-06-11T12:23:06Z</time>
      </trkpt>
      <trkpt lat="43.41476" lon="6.09647">
        <ele>228.26052856445</ele>
        <time>2014-06-11T12:23:07Z</time>
      </trkpt>
      <trkpt lat="43.41475" lon="6.09651">
        <ele>228.02362060547</ele>
        <time>2014-06-11T12:23:09Z</time>
      </trkpt>
      <trkpt lat="43.41476" lon="6.09655">
        <ele>227.55499267578</ele>
        <time>2014-06-11T12:23:10Z</time>
      </trkpt>
      <trkpt lat="43.41476" lon="6.09661">
        <ele>226.6692199707</ele>
        <time>2014-06-11T12:23:12Z</time>
      </trkpt>
      <trkpt lat="43.41478" lon="6.09664">
        <ele>226.05639648438</ele>
        <time>2014-06-11T12:23:13Z</time>
      </trkpt>
      <trkpt lat="43.41479" lon="6.09668">
        <ele>225.42559814453</ele>
        <time>2014-06-11T12:23:14Z</time>
      </trkpt>
      <trkpt lat="43.41479" lon="6.09671">
        <ele>225.20372009277</ele>
        <time>2014-06-11T12:23:15Z</time>
      </trkpt>
      <trkpt lat="43.41479" lon="6.09672">
        <ele>225.0185546875</ele>
        <time>2014-06-11T12:23:16Z</time>
      </trkpt>
      <trkpt lat="43.41477" lon="6.09677">
        <ele>224.97833251953</ele>
        <time>2014-06-11T12:23:18Z</time>
      </trkpt>
      <trkpt lat="43.41474" lon="6.0968">
        <ele>225.18823242188</ele>
        <time>2014-06-11T12:23:20Z</time>
      </trkpt>
      <trkpt lat="43.41467" lon="6.09692">
        <ele>225.54403686523</ele>
        <time>2014-06-11T12:23:24Z</time>
      </trkpt>
      <trkpt lat="43.4146" lon="6.0971">
        <ele>225.82173156738</ele>
        <time>2014-06-11T12:23:29Z</time>
      </trkpt>
      <trkpt lat="43.41458" lon="6.09729">
        <ele>224.87377929688</ele>
        <time>2014-06-11T12:23:35Z</time>
      </trkpt>
      <trkpt lat="43.41458" lon="6.09738">
        <ele>223.9931640625</ele>
        <time>2014-06-11T12:23:40Z</time>
      </trkpt>
      <trkpt lat="43.41458" lon="6.09738">
        <ele>223.9931640625</ele>
        <time>2014-06-11T12:24:01Z</time>
      </trkpt>
      <trkpt lat="43.41458" lon="6.09738">
        <ele>223.9931640625</ele>
        <time>2014-06-11T12:24:14Z</time>
      </trkpt>
      <trkpt lat="43.41454" lon="6.09744">
        <ele>224.29013061523</ele>
        <time>2014-06-11T12:24:20Z</time>
      </trkpt>
      <trkpt lat="43.4145" lon="6.09759">
        <ele>223.62300109863</ele>
        <time>2014-06-11T12:24:25Z</time>
      </trkpt>
      <trkpt lat="43.41443" lon="6.09773">
        <ele>223.19929504394</ele>
        <time>2014-06-11T12:24:30Z</time>
      </trkpt>
      <trkpt lat="43.41442" lon="6.09776">
        <ele>223.06048583984</ele>
        <time>2014-06-11T12:24:31Z</time>
      </trkpt>
      <trkpt lat="43.41438" lon="6.09794">
        <ele>223.37411499023</ele>
        <time>2014-06-11T12:24:36Z</time>
      </trkpt>
      <trkpt lat="43.41439" lon="6.09803">
        <ele>222.67965698242</ele>
        <time>2014-06-11T12:24:38Z</time>
      </trkpt>
      <trkpt lat="43.41441" lon="6.09821">
        <ele>221.45037841797</ele>
        <time>2014-06-11T12:24:43Z</time>
      </trkpt>
      <trkpt lat="43.41445" lon="6.09845">
        <ele>219.97595214844</ele>
        <time>2014-06-11T12:24:48Z</time>
      </trkpt>
      <trkpt lat="43.41448" lon="6.09857">
        <ele>219.75622558594</ele>
        <time>2014-06-11T12:24:50Z</time>
      </trkpt>
      <trkpt lat="43.41447" lon="6.09868">
        <ele>219.81115722656</ele>
        <time>2014-06-11T12:24:53Z</time>
      </trkpt>
      <trkpt lat="43.41447" lon="6.09872">
        <ele>219.78369140625</ele>
        <time>2014-06-11T12:24:54Z</time>
      </trkpt>
      <trkpt lat="43.41447" lon="6.09876">
        <ele>219.81115722656</ele>
        <time>2014-06-11T12:24:55Z</time>
      </trkpt>
      <trkpt lat="43.41439" lon="6.09882">
        <ele>221.5803527832</ele>
        <time>2014-06-11T12:24:59Z</time>
      </trkpt>
      <trkpt lat="43.41433" lon="6.09894">
        <ele>223.92167663574</ele>
        <time>2014-06-11T12:25:03Z</time>
      </trkpt>
      <trkpt lat="43.41431" lon="6.09898">
        <ele>224.49275207519</ele>
        <time>2014-06-11T12:25:05Z</time>
      </trkpt>
      <trkpt lat="43.41431" lon="6.09903">
        <ele>224.45896911621</ele>
        <time>2014-06-11T12:25:07Z</time>
      </trkpt>
      <trkpt lat="43.41429" lon="6.09928">
        <ele>225.87194824219</ele>
        <time>2014-06-11T12:25:14Z</time>
      </trkpt>
      <trkpt lat="43.41429" lon="6.09932">
        <ele>225.80766296387</ele>
        <time>2014-06-11T12:25:15Z</time>
      </trkpt>
      <trkpt lat="43.4143" lon="6.09941">
        <ele>225.69883728027</ele>
        <time>2014-06-11T12:25:17Z</time>
      </trkpt>
      <trkpt lat="43.41434" lon="6.09956">
        <ele>224.4089050293</ele>
        <time>2014-06-11T12:25:20Z</time>
      </trkpt>
      <trkpt lat="43.41444" lon="6.09984">
        <ele>220.19204711914</ele>
        <time>2014-06-11T12:25:29Z</time>
      </trkpt>
      <trkpt lat="43.41451" lon="6.10007">
        <ele>219.62190246582</ele>
        <time>2014-06-11T12:25:35Z</time>
      </trkpt>
      <trkpt lat="43.41455" lon="6.10017">
        <ele>219.48219299316</ele>
        <time>2014-06-11T12:25:37Z</time>
      </trkpt>
      <trkpt lat="43.41459" lon="6.10025">
        <ele>219.41687011719</ele>
        <time>2014-06-11T12:25:39Z</time>
      </trkpt>
      <trkpt lat="43.41464" lon="6.10041">
        <ele>220.13700866699</ele>
        <time>2014-06-11T12:25:43Z</time>
      </trkpt>
      <trkpt lat="43.41467" lon="6.10054">
        <ele>220.26083374023</ele>
        <time>2014-06-11T12:25:47Z</time>
      </trkpt>
      <trkpt lat="43.41468" lon="6.10062">
        <ele>220.04554748535</ele>
        <time>2014-06-11T12:25:49Z</time>
      </trkpt>
      <trkpt lat="43.41474" lon="6.10076">
        <ele>218.94427490234</ele>
        <time>2014-06-11T12:25:54Z</time>
      </trkpt>
      <trkpt lat="43.41478" lon="6.10085">
        <ele>218.8459777832</ele>
        <time>2014-06-11T12:25:57Z</time>
      </trkpt>
      <trkpt lat="43.41483" lon="6.10096">
        <ele>218.89237976074</ele>
        <time>2014-06-11T12:26:01Z</time>
      </trkpt>
      <trkpt lat="43.41488" lon="6.10112">
        <ele>218.93768310547</ele>
        <time>2014-06-11T12:26:06Z</time>
      </trkpt>
      <trkpt lat="43.41492" lon="6.10128">
        <ele>219.92990112305</ele>
        <time>2014-06-11T12:26:11Z</time>
      </trkpt>
      <trkpt lat="43.41495" lon="6.1015">
        <ele>221.86630249023</ele>
        <time>2014-06-11T12:26:16Z</time>
      </trkpt>
      <trkpt lat="43.41502" lon="6.10169">
        <ele>222.75880432129</ele>
        <time>2014-06-11T12:26:20Z</time>
      </trkpt>
      <trkpt lat="43.41503" lon="6.10176">
        <ele>223.11929321289</ele>
        <time>2014-06-11T12:26:21Z</time>
      </trkpt>
      <trkpt lat="43.41505" lon="6.10189">
        <ele>223.76130676269</ele>
        <time>2014-06-11T12:26:23Z</time>
      </trkpt>
      <trkpt lat="43.41505" lon="6.10194">
        <ele>224.00849914551</ele>
        <time>2014-06-11T12:26:24Z</time>
      </trkpt>
      <trkpt lat="43.41505" lon="6.10203">
        <ele>225.18203735352</ele>
        <time>2014-06-11T12:26:26Z</time>
      </trkpt>
      <trkpt lat="43.41504" lon="6.10214">
        <ele>226.80908203125</ele>
        <time>2014-06-11T12:26:29Z</time>
      </trkpt>
      <trkpt lat="43.41507" lon="6.10237">
        <ele>228.58335876465</ele>
        <time>2014-06-11T12:26:35Z</time>
      </trkpt>
      <trkpt lat="43.41511" lon="6.10252">
        <ele>228.61735534668</ele>
        <time>2014-06-11T12:26:39Z</time>
      </trkpt>
      <trkpt lat="43.41512" lon="6.10261">
        <ele>228.63789367676</ele>
        <time>2014-06-11T12:26:42Z</time>
      </trkpt>
      <trkpt lat="43.41513" lon="6.10266">
        <ele>228.5265045166</ele>
        <time>2014-06-11T12:26:44Z</time>
      </trkpt>
      <trkpt lat="43.41518" lon="6.10276">
        <ele>227.43226623535</ele>
        <time>2014-06-11T12:26:48Z</time>
      </trkpt>
      <trkpt lat="43.41527" lon="6.10285">
        <ele>224.87243652344</ele>
        <time>2014-06-11T12:26:52Z</time>
      </trkpt>
      <trkpt lat="43.41532" lon="6.10292">
        <ele>224.07000732422</ele>
        <time>2014-06-11T12:26:55Z</time>
      </trkpt>
      <trkpt lat="43.41542" lon="6.10306">
        <ele>222.41896057129</ele>
        <time>2014-06-11T12:27:01Z</time>
      </trkpt>
      <trkpt lat="43.41545" lon="6.1031">
        <ele>221.88273620606</ele>
        <time>2014-06-11T12:27:03Z</time>
      </trkpt>
      <trkpt lat="43.41548" lon="6.10314">
        <ele>221.45030212402</ele>
        <time>2014-06-11T12:27:05Z</time>
      </trkpt>
      <trkpt lat="43.41559" lon="6.10329">
        <ele>219.62635803223</ele>
        <time>2014-06-11T12:27:11Z</time>
      </trkpt>
      <trkpt lat="43.4157" lon="6.10344">
        <ele>219.6865234375</ele>
        <time>2014-06-11T12:27:17Z</time>
      </trkpt>
      <trkpt lat="43.41573" lon="6.1035">
        <ele>219.84217834473</ele>
        <time>2014-06-11T12:27:19Z</time>
      </trkpt>
      <trkpt lat="43.41574" lon="6.10354">
        <ele>219.83029174805</ele>
        <time>2014-06-11T12:27:20Z</time>
      </trkpt>
      <trkpt lat="43.41578" lon="6.10361">
        <ele>219.76107788086</ele>
        <time>2014-06-11T12:27:22Z</time>
      </trkpt>
      <trkpt lat="43.41579" lon="6.10364">
        <ele>219.82949829102</ele>
        <time>2014-06-11T12:27:23Z</time>
      </trkpt>
      <trkpt lat="43.41582" lon="6.10374">
        <ele>220.0304107666</ele>
        <time>2014-06-11T12:27:27Z</time>
      </trkpt>
      <trkpt lat="43.41585" lon="6.10383">
        <ele>220.36520385742</ele>
        <time>2014-06-11T12:27:31Z</time>
      </trkpt>
      <trkpt lat="43.41586" lon="6.10386">
        <ele>220.5842590332</ele>
        <time>2014-06-11T12:27:33Z</time>
      </trkpt>
      <trkpt lat="43.41584" lon="6.10391">
        <ele>221.06188964844</ele>
        <time>2014-06-11T12:27:35Z</time>
      </trkpt>
      <trkpt lat="43.41585" lon="6.10394">
        <ele>221.33221435547</ele>
        <time>2014-06-11T12:27:37Z</time>
      </trkpt>
      <trkpt lat="43.41586" lon="6.10397">
        <ele>221.6307220459</ele>
        <time>2014-06-11T12:27:39Z</time>
      </trkpt>
      <trkpt lat="43.41586" lon="6.10401">
        <ele>222.05014038086</ele>
        <time>2014-06-11T12:27:41Z</time>
      </trkpt>
      <trkpt lat="43.41587" lon="6.10407">
        <ele>222.41688537598</ele>
        <time>2014-06-11T12:27:44Z</time>
      </trkpt>
      <trkpt lat="43.41589" lon="6.10424">
        <ele>223.76509094238</ele>
        <time>2014-06-11T12:27:52Z</time>
      </trkpt>
      <trkpt lat="43.4159" lon="6.10436">
        <ele>224.95098876953</ele>
        <time>2014-06-11T12:27:57Z</time>
      </trkpt>
      <trkpt lat="43.41589" lon="6.10442">
        <ele>226.12591552734</ele>
        <time>2014-06-11T12:28:00Z</time>
      </trkpt>
      <trkpt lat="43.41587" lon="6.10448">
        <ele>227.18760681152</ele>
        <time>2014-06-11T12:28:02Z</time>
      </trkpt>
      <trkpt lat="43.41587" lon="6.10451">
        <ele>227.50093078613</ele>
        <time>2014-06-11T12:28:03Z</time>
      </trkpt>
      <trkpt lat="43.41588" lon="6.10454">
        <ele>227.68981933594</ele>
        <time>2014-06-11T12:28:04Z</time>
      </trkpt>
      <trkpt lat="43.41589" lon="6.10459">
        <ele>227.6756439209</ele>
        <time>2014-06-11T12:28:06Z</time>
      </trkpt>
      <trkpt lat="43.41591" lon="6.10463">
        <ele>227.69075012207</ele>
        <time>2014-06-11T12:28:09Z</time>
      </trkpt>
      <trkpt lat="43.41591" lon="6.10464">
        <ele>227.7375793457</ele>
        <time>2014-06-11T12:28:11Z</time>
      </trkpt>
      <trkpt lat="43.41591" lon="6.10464">
        <ele>227.7375793457</ele>
        <time>2014-06-11T12:28:29Z</time>
      </trkpt>
      <trkpt lat="43.41591" lon="6.10464">
        <ele>227.7375793457</ele>
        <time>2014-06-11T12:28:42Z</time>
      </trkpt>
      <trkpt lat="43.41593" lon="6.10473">
        <ele>227.97966003418</ele>
        <time>2014-06-11T12:28:48Z</time>
      </trkpt>
      <trkpt lat="43.41596" lon="6.10492">
        <ele>228.23371887207</ele>
        <time>2014-06-11T12:28:54Z</time>
      </trkpt>
      <trkpt lat="43.41607" lon="6.10513">
        <ele>226.85133361816</ele>
        <time>2014-06-11T12:29:01Z</time>
      </trkpt>
      <trkpt lat="43.41615" lon="6.1053">
        <ele>225.21820068359</ele>
        <time>2014-06-11T12:29:06Z</time>
      </trkpt>
      <trkpt lat="43.41619" lon="6.10537">
        <ele>223.41708374023</ele>
        <time>2014-06-11T12:29:08Z</time>
      </trkpt>
      <trkpt lat="43.41621" lon="6.10541">
        <ele>222.81420898438</ele>
        <time>2014-06-11T12:29:09Z</time>
      </trkpt>
      <trkpt lat="43.41623" lon="6.10552">
        <ele>222.02947998047</ele>
        <time>2014-06-11T12:29:11Z</time>
      </trkpt>
      <trkpt lat="43.41626" lon="6.10563">
        <ele>220.4375</ele>
        <time>2014-06-11T12:29:13Z</time>
      </trkpt>
      <trkpt lat="43.4163" lon="6.10574">
        <ele>218.240234375</ele>
        <time>2014-06-11T12:29:15Z</time>
      </trkpt>
      <trkpt lat="43.41633" lon="6.10583">
        <ele>216.482421875</ele>
        <time>2014-06-11T12:29:17Z</time>
      </trkpt>
      <trkpt lat="43.41633" lon="6.10588">
        <ele>216.482421875</ele>
        <time>2014-06-11T12:29:18Z</time>
      </trkpt>
      <trkpt lat="43.41633" lon="6.106">
        <ele>216.482421875</ele>
        <time>2014-06-11T12:29:21Z</time>
      </trkpt>
      <trkpt lat="43.41631" lon="6.1061">
        <ele>217.80078125</ele>
        <time>2014-06-11T12:29:24Z</time>
      </trkpt>
      <trkpt lat="43.41629" lon="6.10626">
        <ele>218.28741455078</ele>
        <time>2014-06-11T12:29:28Z</time>
      </trkpt>
      <trkpt lat="43.41625" lon="6.10651">
        <ele>219.26387023926</ele>
        <time>2014-06-11T12:29:33Z</time>
      </trkpt>
      <trkpt lat="43.41626" lon="6.10655">
        <ele>218.47775268555</ele>
        <time>2014-06-11T12:29:35Z</time>
      </trkpt>
      <trkpt lat="43.41626" lon="6.10658">
        <ele>218.47601318359</ele>
        <time>2014-06-11T12:29:36Z</time>
      </trkpt>
      <trkpt lat="43.41624" lon="6.10664">
        <ele>219.27937316894</ele>
        <time>2014-06-11T12:29:38Z</time>
      </trkpt>
      <trkpt lat="43.41624" lon="6.10666">
        <ele>218.95458984375</ele>
        <time>2014-06-11T12:29:39Z</time>
      </trkpt>
      <trkpt lat="43.41625" lon="6.10671">
        <ele>217.99629211426</ele>
        <time>2014-06-11T12:29:41Z</time>
      </trkpt>
      <trkpt lat="43.41627" lon="6.10683">
        <ele>216.03117370606</ele>
        <time>2014-06-11T12:29:44Z</time>
      </trkpt>
      <trkpt lat="43.41628" lon="6.10687">
        <ele>215.26057434082</ele>
        <time>2014-06-11T12:29:45Z</time>
      </trkpt>
      <trkpt lat="43.41628" lon="6.10695">
        <ele>214.29525756836</ele>
        <time>2014-06-11T12:29:47Z</time>
      </trkpt>
      <trkpt lat="43.41628" lon="6.10707">
        <ele>213.8465423584</ele>
        <time>2014-06-11T12:29:50Z</time>
      </trkpt>
      <trkpt lat="43.41628" lon="6.10717">
        <ele>213.43609619141</ele>
        <time>2014-06-11T12:29:53Z</time>
      </trkpt>
      <trkpt lat="43.4163" lon="6.10731">
        <ele>211.03326416016</ele>
        <time>2014-06-11T12:29:57Z</time>
      </trkpt>
      <trkpt lat="43.41615" lon="6.10754">
        <ele>217.24745178223</ele>
        <time>2014-06-11T12:30:04Z</time>
      </trkpt>
      <trkpt lat="43.41605" lon="6.10768">
        <ele>219.23803710938</ele>
        <time>2014-06-11T12:30:09Z</time>
      </trkpt>
      <trkpt lat="43.41597" lon="6.10777">
        <ele>221.52235412598</ele>
        <time>2014-06-11T12:30:12Z</time>
      </trkpt>
      <trkpt lat="43.41583" lon="6.10791">
        <ele>225.79138183594</ele>
        <time>2014-06-11T12:30:18Z</time>
      </trkpt>
      <trkpt lat="43.41572" lon="6.108">
        <ele>228.93107604981</ele>
        <time>2014-06-11T12:30:23Z</time>
      </trkpt>
      <trkpt lat="43.41562" lon="6.10808">
        <ele>231.76666259766</ele>
        <time>2014-06-11T12:30:28Z</time>
      </trkpt>
      <trkpt lat="43.41542" lon="6.10815">
        <ele>239.52947998047</ele>
        <time>2014-06-11T12:30:34Z</time>
      </trkpt>
      <trkpt lat="43.41535" lon="6.10816">
        <ele>242.39465332031</ele>
        <time>2014-06-11T12:30:36Z</time>
      </trkpt>
      <trkpt lat="43.41535" lon="6.10821">
        <ele>241.45426940918</ele>
        <time>2014-06-11T12:30:37Z</time>
      </trkpt>
      <trkpt lat="43.41534" lon="6.10828">
        <ele>240.80503845215</ele>
        <time>2014-06-11T12:30:39Z</time>
      </trkpt>
      <trkpt lat="43.4153" lon="6.10847">
        <ele>237.92065429688</ele>
        <time>2014-06-11T12:30:44Z</time>
      </trkpt>
      <trkpt lat="43.41531" lon="6.1087">
        <ele>231.44781494141</ele>
        <time>2014-06-11T12:30:49Z</time>
      </trkpt>
      <trkpt lat="43.41534" lon="6.10883">
        <ele>227.65406799316</ele>
        <time>2014-06-11T12:30:52Z</time>
      </trkpt>
      <trkpt lat="43.41531" lon="6.10893">
        <ele>226.82756042481</ele>
        <time>2014-06-11T12:30:54Z</time>
      </trkpt>
      <trkpt lat="43.41527" lon="6.10908">
        <ele>225.61288452148</ele>
        <time>2014-06-11T12:30:58Z</time>
      </trkpt>
      <trkpt lat="43.41524" lon="6.10953">
        <ele>214.31700134277</ele>
        <time>2014-06-11T12:31:08Z</time>
      </trkpt>
      <trkpt lat="43.41515" lon="6.10985">
        <ele>211.77389526367</ele>
        <time>2014-06-11T12:31:15Z</time>
      </trkpt>
      <trkpt lat="43.41506" lon="6.11009">
        <ele>210.86344909668</ele>
        <time>2014-06-11T12:31:21Z</time>
      </trkpt>
      <trkpt lat="43.41497" lon="6.11025">
        <ele>211.4172668457</ele>
        <time>2014-06-11T12:31:25Z</time>
      </trkpt>
      <trkpt lat="43.41492" lon="6.11043">
        <ele>210.67213439941</ele>
        <time>2014-06-11T12:31:29Z</time>
      </trkpt>
      <trkpt lat="43.41479" lon="6.11065">
        <ele>210.67358398438</ele>
        <time>2014-06-11T12:31:34Z</time>
      </trkpt>
      <trkpt lat="43.41476" lon="6.11068">
        <ele>210.90704345703</ele>
        <time>2014-06-11T12:31:35Z</time>
      </trkpt>
      <trkpt lat="43.41473" lon="6.11074">
        <ele>211.33619689941</ele>
        <time>2014-06-11T12:31:37Z</time>
      </trkpt>
      <trkpt lat="43.41469" lon="6.11077">
        <ele>211.53875732422</ele>
        <time>2014-06-11T12:31:39Z</time>
      </trkpt>
      <trkpt lat="43.41461" lon="6.11081">
        <ele>211.79968261719</ele>
        <time>2014-06-11T12:31:44Z</time>
      </trkpt>
      <trkpt lat="43.41451" lon="6.11077">
        <ele>211.57995605469</ele>
        <time>2014-06-11T12:31:48Z</time>
      </trkpt>
      <trkpt lat="43.41439" lon="6.11082">
        <ele>211.87521362305</ele>
        <time>2014-06-11T12:31:52Z</time>
      </trkpt>
      <trkpt lat="43.41422" lon="6.11077">
        <ele>211.51129150391</ele>
        <time>2014-06-11T12:31:58Z</time>
      </trkpt>
      <trkpt lat="43.41415" lon="6.11075">
        <ele>211.37052917481</ele>
        <time>2014-06-11T12:32:01Z</time>
      </trkpt>
      <trkpt lat="43.4141" lon="6.11078">
        <ele>211.61772155762</ele>
        <time>2014-06-11T12:32:03Z</time>
      </trkpt>
      <trkpt lat="43.41391" lon="6.11083">
        <ele>211.94387817383</ele>
        <time>2014-06-11T12:32:09Z</time>
      </trkpt>
      <trkpt lat="43.41368" lon="6.11089">
        <ele>212.20367431641</ele>
        <time>2014-06-11T12:32:16Z</time>
      </trkpt>
      <trkpt lat="43.41354" lon="6.11091">
        <ele>212.28607177734</ele>
        <time>2014-06-11T12:32:21Z</time>
      </trkpt>
      <trkpt lat="43.41336" lon="6.11095">
        <ele>212.41998291016</ele>
        <time>2014-06-11T12:32:27Z</time>
      </trkpt>
      <trkpt lat="43.41316" lon="6.11099">
        <ele>212.57791137695</ele>
        <time>2014-06-11T12:32:34Z</time>
      </trkpt>
      <trkpt lat="43.41306" lon="6.111">
        <ele>212.60021972656</ele>
        <time>2014-06-11T12:32:37Z</time>
      </trkpt>
      <trkpt lat="43.41303" lon="6.11102">
        <ele>212.65686035156</ele>
        <time>2014-06-11T12:32:38Z</time>
      </trkpt>
      <trkpt lat="43.41302" lon="6.11102">
        <ele>212.67404174805</ele>
        <time>2014-06-11T12:32:39Z</time>
      </trkpt>
      <trkpt lat="43.41302" lon="6.11102">
        <ele>212.67231750488</ele>
        <time>2014-06-11T12:32:40Z</time>
      </trkpt>
      <trkpt lat="43.41301" lon="6.11103">
        <ele>212.70492553711</ele>
        <time>2014-06-11T12:32:43Z</time>
      </trkpt>
      <trkpt lat="43.41302" lon="6.11104">
        <ele>212.74957275391</ele>
        <time>2014-06-11T12:32:49Z</time>
      </trkpt>
      <trkpt lat="43.41302" lon="6.11104">
        <ele>212.74957275391</ele>
        <time>2014-06-11T12:32:56Z</time>
      </trkpt>
      <trkpt lat="43.41301" lon="6.11105">
        <ele>212.78218078613</ele>
        <time>2014-06-11T12:32:58Z</time>
      </trkpt>
      <trkpt lat="43.41301" lon="6.11107">
        <ele>212.86114501953</ele>
        <time>2014-06-11T12:32:59Z</time>
      </trkpt>
      <trkpt lat="43.41302" lon="6.11114">
        <ele>213.08773803711</ele>
        <time>2014-06-11T12:33:02Z</time>
      </trkpt>
      <trkpt lat="43.41302" lon="6.11122">
        <ele>213.39157104492</ele>
        <time>2014-06-11T12:33:05Z</time>
      </trkpt>
      <trkpt lat="43.41299" lon="6.11139">
        <ele>213.98895263672</ele>
        <time>2014-06-11T12:33:10Z</time>
      </trkpt>
      <trkpt lat="43.41293" lon="6.11169">
        <ele>216.08758544922</ele>
        <time>2014-06-11T12:33:18Z</time>
      </trkpt>
      <trkpt lat="43.41287" lon="6.11199">
        <ele>217.18107604981</ele>
        <time>2014-06-11T12:33:25Z</time>
      </trkpt>
      <trkpt lat="43.41281" lon="6.11222">
        <ele>217.99645996094</ele>
        <time>2014-06-11T12:33:31Z</time>
      </trkpt>
      <trkpt lat="43.4128" lon="6.11237">
        <ele>219.04693603516</ele>
        <time>2014-06-11T12:33:36Z</time>
      </trkpt>
      <trkpt lat="43.41291" lon="6.11255">
        <ele>220</ele>
        <time>2014-06-11T12:33:42Z</time>
      </trkpt>
      <trkpt lat="43.41301" lon="6.11277">
        <ele>220</ele>
        <time>2014-06-11T12:33:48Z</time>
      </trkpt>
      <trkpt lat="43.41309" lon="6.11291">
        <ele>220</ele>
        <time>2014-06-11T12:33:54Z</time>
      </trkpt>
      <trkpt lat="43.41309" lon="6.11292">
        <ele>220</ele>
        <time>2014-06-11T12:33:55Z</time>
      </trkpt>
      <trkpt lat="43.41311" lon="6.11294">
        <ele>220</ele>
        <time>2014-06-11T12:33:56Z</time>
      </trkpt>
      <trkpt lat="43.41313" lon="6.11298">
        <ele>220</ele>
        <time>2014-06-11T12:33:58Z</time>
      </trkpt>
      <trkpt lat="43.41316" lon="6.11302">
        <ele>220</ele>
        <time>2014-06-11T12:34:00Z</time>
      </trkpt>
      <trkpt lat="43.41323" lon="6.11308">
        <ele>220</ele>
        <time>2014-06-11T12:34:04Z</time>
      </trkpt>
      <trkpt lat="43.41328" lon="6.11309">
        <ele>220</ele>
        <time>2014-06-11T12:34:06Z</time>
      </trkpt>
      <trkpt lat="43.41349" lon="6.11317">
        <ele>220</ele>
        <time>2014-06-11T12:34:13Z</time>
      </trkpt>
      <trkpt lat="43.41369" lon="6.11325">
        <ele>220</ele>
        <time>2014-06-11T12:34:20Z</time>
      </trkpt>
      <trkpt lat="43.41379" lon="6.1133">
        <ele>220</ele>
        <time>2014-06-11T12:34:25Z</time>
      </trkpt>
      <trkpt lat="43.41378" lon="6.11339">
        <ele>220</ele>
        <time>2014-06-11T12:34:29Z</time>
      </trkpt>
      <trkpt lat="43.41377" lon="6.11343">
        <ele>220</ele>
        <time>2014-06-11T12:34:31Z</time>
      </trkpt>
      <trkpt lat="43.41376" lon="6.11347">
        <ele>220</ele>
        <time>2014-06-11T12:34:33Z</time>
      </trkpt>
      <trkpt lat="43.41376" lon="6.11352">
        <ele>220</ele>
        <time>2014-06-11T12:34:35Z</time>
      </trkpt>
      <trkpt lat="43.41369" lon="6.11378">
        <ele>220</ele>
        <time>2014-06-11T12:34:46Z</time>
      </trkpt>
      <trkpt lat="43.41365" lon="6.11394">
        <ele>220</ele>
        <time>2014-06-11T12:34:53Z</time>
      </trkpt>
      <trkpt lat="43.4136" lon="6.11412">
        <ele>220</ele>
        <time>2014-06-11T12:35:01Z</time>
      </trkpt>
      <trkpt lat="43.41358" lon="6.11421">
        <ele>220</ele>
        <time>2014-06-11T12:35:04Z</time>
      </trkpt>
      <trkpt lat="43.41356" lon="6.11441">
        <ele>220</ele>
        <time>2014-06-11T12:35:11Z</time>
      </trkpt>
      <trkpt lat="43.41356" lon="6.11462">
        <ele>220</ele>
        <time>2014-06-11T12:35:18Z</time>
      </trkpt>
      <trkpt lat="43.41359" lon="6.11479">
        <ele>220</ele>
        <time>2014-06-11T12:35:24Z</time>
      </trkpt>
      <trkpt lat="43.4136" lon="6.11501">
        <ele>220</ele>
        <time>2014-06-11T12:35:31Z</time>
      </trkpt>
      <trkpt lat="43.41361" lon="6.1151">
        <ele>220</ele>
        <time>2014-06-11T12:35:36Z</time>
      </trkpt>
      <trkpt lat="43.41363" lon="6.1152">
        <ele>220.11889648438</ele>
        <time>2014-06-11T12:35:42Z</time>
      </trkpt>
      <trkpt lat="43.41364" lon="6.11536">
        <ele>220.20129394531</ele>
        <time>2014-06-11T12:35:47Z</time>
      </trkpt>
      <trkpt lat="43.41364" lon="6.11539">
        <ele>220.22875976562</ele>
        <time>2014-06-11T12:35:48Z</time>
      </trkpt>
      <trkpt lat="43.41364" lon="6.11544">
        <ele>220.20129394531</ele>
        <time>2014-06-11T12:35:50Z</time>
      </trkpt>
      <trkpt lat="43.4136" lon="6.11549">
        <ele>220</ele>
        <time>2014-06-11T12:35:53Z</time>
      </trkpt>
      <trkpt lat="43.41355" lon="6.11554">
        <ele>220</ele>
        <time>2014-06-11T12:35:56Z</time>
      </trkpt>
      <trkpt lat="43.41348" lon="6.11556">
        <ele>220</ele>
        <time>2014-06-11T12:35:59Z</time>
      </trkpt>
      <trkpt lat="43.41326" lon="6.11562">
        <ele>220</ele>
        <time>2014-06-11T12:36:07Z</time>
      </trkpt>
      <trkpt lat="43.41306" lon="6.11572">
        <ele>220</ele>
        <time>2014-06-11T12:36:14Z</time>
      </trkpt>
      <trkpt lat="43.41288" lon="6.1159">
        <ele>220</ele>
        <time>2014-06-11T12:36:21Z</time>
      </trkpt>
      <trkpt lat="43.41254" lon="6.11626">
        <ele>220</ele>
        <time>2014-06-11T12:36:36Z</time>
      </trkpt>
      <trkpt lat="43.41233" lon="6.11647">
        <ele>220</ele>
        <time>2014-06-11T12:36:44Z</time>
      </trkpt>
      <trkpt lat="43.4122" lon="6.11665">
        <ele>220</ele>
        <time>2014-06-11T12:36:50Z</time>
      </trkpt>
      <trkpt lat="43.41216" lon="6.11669">
        <ele>220</ele>
        <time>2014-06-11T12:36:52Z</time>
      </trkpt>
      <trkpt lat="43.41212" lon="6.11672">
        <ele>220</ele>
        <time>2014-06-11T12:36:54Z</time>
      </trkpt>
      <trkpt lat="43.4121" lon="6.11679">
        <ele>220</ele>
        <time>2014-06-11T12:36:57Z</time>
      </trkpt>
      <trkpt lat="43.41214" lon="6.11685">
        <ele>220</ele>
        <time>2014-06-11T12:37:02Z</time>
      </trkpt>
      <trkpt lat="43.41217" lon="6.11685">
        <ele>220</ele>
        <time>2014-06-11T12:37:07Z</time>
      </trkpt>
      <trkpt lat="43.41217" lon="6.11685">
        <ele>220</ele>
        <time>2014-06-11T12:37:19Z</time>
      </trkpt>
      <trkpt lat="43.41219" lon="6.11689">
        <ele>220</ele>
        <time>2014-06-11T12:37:35Z</time>
      </trkpt>
      <trkpt lat="43.41226" lon="6.11695">
        <ele>220</ele>
        <time>2014-06-11T12:37:40Z</time>
      </trkpt>
      <trkpt lat="43.41236" lon="6.11704">
        <ele>220</ele>
        <time>2014-06-11T12:37:46Z</time>
      </trkpt>
      <trkpt lat="43.41242" lon="6.11711">
        <ele>220</ele>
        <time>2014-06-11T12:37:50Z</time>
      </trkpt>
      <trkpt lat="43.41246" lon="6.11717">
        <ele>220</ele>
        <time>2014-06-11T12:37:53Z</time>
      </trkpt>
      <trkpt lat="43.41248" lon="6.11719">
        <ele>220</ele>
        <time>2014-06-11T12:37:54Z</time>
      </trkpt>
      <trkpt lat="43.41254" lon="6.11728">
        <ele>220</ele>
        <time>2014-06-11T12:37:58Z</time>
      </trkpt>
      <trkpt lat="43.41259" lon="6.1174">
        <ele>220</ele>
        <time>2014-06-11T12:38:02Z</time>
      </trkpt>
      <trkpt lat="43.41264" lon="6.11749">
        <ele>220</ele>
        <time>2014-06-11T12:38:06Z</time>
      </trkpt>
      <trkpt lat="43.41266" lon="6.11763">
        <ele>220.19770812988</ele>
        <time>2014-06-11T12:38:10Z</time>
      </trkpt>
      <trkpt lat="43.41265" lon="6.11786">
        <ele>220.72241210938</ele>
        <time>2014-06-11T12:38:16Z</time>
      </trkpt>
      <trkpt lat="43.41264" lon="6.11821">
        <ele>221.49737548828</ele>
        <time>2014-06-11T12:38:22Z</time>
      </trkpt>
      <trkpt lat="43.41263" lon="6.11835">
        <ele>221.59867858887</ele>
        <time>2014-06-11T12:38:24Z</time>
      </trkpt>
      <trkpt lat="43.41261" lon="6.11854">
        <ele>222.36599731445</ele>
        <time>2014-06-11T12:38:27Z</time>
      </trkpt>
      <trkpt lat="43.41261" lon="6.11866">
        <ele>222.79344177246</ele>
        <time>2014-06-11T12:38:29Z</time>
      </trkpt>
      <trkpt lat="43.4126" lon="6.11882">
        <ele>223.37022399902</ele>
        <time>2014-06-11T12:38:32Z</time>
      </trkpt>
      <trkpt lat="43.41257" lon="6.11908">
        <ele>224.22253417969</ele>
        <time>2014-06-11T12:38:38Z</time>
      </trkpt>
      <trkpt lat="43.41255" lon="6.11929">
        <ele>225.08374023438</ele>
        <time>2014-06-11T12:38:43Z</time>
      </trkpt>
      <trkpt lat="43.41251" lon="6.11964">
        <ele>225.93615722656</ele>
        <time>2014-06-11T12:38:51Z</time>
      </trkpt>
      <trkpt lat="43.41249" lon="6.11987">
        <ele>226.69334411621</ele>
        <time>2014-06-11T12:38:56Z</time>
      </trkpt>
      <trkpt lat="43.41249" lon="6.12013">
        <ele>227.73313903809</ele>
        <time>2014-06-11T12:39:02Z</time>
      </trkpt>
      <trkpt lat="43.41256" lon="6.12036">
        <ele>227.81596374512</ele>
        <time>2014-06-11T12:39:07Z</time>
      </trkpt>
      <trkpt lat="43.41265" lon="6.12067">
        <ele>227.73190307617</ele>
        <time>2014-06-11T12:39:14Z</time>
      </trkpt>
      <trkpt lat="43.41266" lon="6.1208">
        <ele>228.14903259277</ele>
        <time>2014-06-11T12:39:18Z</time>
      </trkpt>
      <trkpt lat="43.41267" lon="6.12082">
        <ele>228.14730834961</ele>
        <time>2014-06-11T12:39:19Z</time>
      </trkpt>
      <trkpt lat="43.41268" lon="6.12087">
        <ele>228.16448974609</ele>
        <time>2014-06-11T12:39:21Z</time>
      </trkpt>
      <trkpt lat="43.4127" lon="6.12094">
        <ele>228.18850708008</ele>
        <time>2014-06-11T12:39:24Z</time>
      </trkpt>
      <trkpt lat="43.41272" lon="6.12099">
        <ele>228.22283935547</ele>
        <time>2014-06-11T12:39:25Z</time>
      </trkpt>
      <trkpt lat="43.4128" lon="6.1212">
        <ele>228.06567382812</ele>
        <time>2014-06-11T12:39:29Z</time>
      </trkpt>
      <trkpt lat="43.41282" lon="6.12125">
        <ele>228.16180419922</ele>
        <time>2014-06-11T12:39:30Z</time>
      </trkpt>
      <trkpt lat="43.41284" lon="6.12139">
        <ele>228.23046875</ele>
        <time>2014-06-11T12:39:33Z</time>
      </trkpt>
      <trkpt lat="43.41285" lon="6.12143">
        <ele>228.3850402832</ele>
        <time>2014-06-11T12:39:34Z</time>
      </trkpt>
      <trkpt lat="43.41288" lon="6.12165">
        <ele>229.32232666016</ele>
        <time>2014-06-11T12:39:40Z</time>
      </trkpt>
      <trkpt lat="43.41291" lon="6.12181">
        <ele>230.00724792481</ele>
        <time>2014-06-11T12:39:46Z</time>
      </trkpt>
      <trkpt lat="43.41291" lon="6.12187">
        <ele>230.21324157715</ele>
        <time>2014-06-11T12:39:49Z</time>
      </trkpt>
      <trkpt lat="43.41291" lon="6.12192">
        <ele>230.37289428711</ele>
        <time>2014-06-11T12:39:51Z</time>
      </trkpt>
      <trkpt lat="43.41288" lon="6.122">
        <ele>230.38153076172</ele>
        <time>2014-06-11T12:39:57Z</time>
      </trkpt>
      <trkpt lat="43.41289" lon="6.12203">
        <ele>230.39526367188</ele>
        <time>2014-06-11T12:40:02Z</time>
      </trkpt>
      <trkpt lat="43.41289" lon="6.12204">
        <ele>230.40899658203</ele>
        <time>2014-06-11T12:40:10Z</time>
      </trkpt>
      <trkpt lat="43.41288" lon="6.12211">
        <ele>230.35406494141</ele>
        <time>2014-06-11T12:40:16Z</time>
      </trkpt>
      <trkpt lat="43.41289" lon="6.12216">
        <ele>230.39526367188</ele>
        <time>2014-06-11T12:40:20Z</time>
      </trkpt>
      <trkpt lat="43.41289" lon="6.12217">
        <ele>230.39526367188</ele>
        <time>2014-06-11T12:40:21Z</time>
      </trkpt>
      <trkpt lat="43.41288" lon="6.12219">
        <ele>230.35406494141</ele>
        <time>2014-06-11T12:40:26Z</time>
      </trkpt>
      <trkpt lat="43.41286" lon="6.1222">
        <ele>230.31286621094</ele>
        <time>2014-06-11T12:40:30Z</time>
      </trkpt>
      <trkpt lat="43.41282" lon="6.12229">
        <ele>230.39599609375</ele>
        <time>2014-06-11T12:40:41Z</time>
      </trkpt>
      <trkpt lat="43.41282" lon="6.12232">
        <ele>230.48696899414</ele>
        <time>2014-06-11T12:40:42Z</time>
      </trkpt>
      <trkpt lat="43.4128" lon="6.12244">
        <ele>230.84573364258</ele>
        <time>2014-06-11T12:40:46Z</time>
      </trkpt>
      <trkpt lat="43.41278" lon="6.1226">
        <ele>231.36071777344</ele>
        <time>2014-06-11T12:40:50Z</time>
      </trkpt>
      <trkpt lat="43.41278" lon="6.12264">
        <ele>231.50314331055</ele>
        <time>2014-06-11T12:40:51Z</time>
      </trkpt>
      <trkpt lat="43.41276" lon="6.12284">
        <ele>232.23025512695</ele>
        <time>2014-06-11T12:40:56Z</time>
      </trkpt>
      <trkpt lat="43.41273" lon="6.12304">
        <ele>232.71510314941</ele>
        <time>2014-06-11T12:41:01Z</time>
      </trkpt>
      <trkpt lat="43.41272" lon="6.12312">
        <ele>233.11196899414</ele>
        <time>2014-06-11T12:41:03Z</time>
      </trkpt>
      <trkpt lat="43.41272" lon="6.12331">
        <ele>233.74882507324</ele>
        <time>2014-06-11T12:41:08Z</time>
      </trkpt>
      <trkpt lat="43.4127" lon="6.12351">
        <ele>234.11059570312</ele>
        <time>2014-06-11T12:41:13Z</time>
      </trkpt>
      <trkpt lat="43.41265" lon="6.12375">
        <ele>235.09143066406</ele>
        <time>2014-06-11T12:41:19Z</time>
      </trkpt>
      <trkpt lat="43.41261" lon="6.12398">
        <ele>235.86291503906</ele>
        <time>2014-06-11T12:41:25Z</time>
      </trkpt>
      <trkpt lat="43.41255" lon="6.12423">
        <ele>236.52177429199</ele>
        <time>2014-06-11T12:41:32Z</time>
      </trkpt>
      <trkpt lat="43.41251" lon="6.12444">
        <ele>236.92828369141</ele>
        <time>2014-06-11T12:41:38Z</time>
      </trkpt>
      <trkpt lat="43.41253" lon="6.12468">
        <ele>236.00521850586</ele>
        <time>2014-06-11T12:41:44Z</time>
      </trkpt>
      <trkpt lat="43.41256" lon="6.1248">
        <ele>235.83367919922</ele>
        <time>2014-06-11T12:41:47Z</time>
      </trkpt>
      <trkpt lat="43.41261" lon="6.12496">
        <ele>235.93948364258</ele>
        <time>2014-06-11T12:41:51Z</time>
      </trkpt>
      <trkpt lat="43.41264" lon="6.12513">
        <ele>236.46176147461</ele>
        <time>2014-06-11T12:41:56Z</time>
      </trkpt>
      <trkpt lat="43.41267" lon="6.12526">
        <ele>236.92010498047</ele>
        <time>2014-06-11T12:42:00Z</time>
      </trkpt>
      <trkpt lat="43.41268" lon="6.1254">
        <ele>237</ele>
        <time>2014-06-11T12:42:04Z</time>
      </trkpt>
      <trkpt lat="43.4127" lon="6.12564">
        <ele>237.40556335449</ele>
        <time>2014-06-11T12:42:10Z</time>
      </trkpt>
      <trkpt lat="43.41269" lon="6.12584">
        <ele>238.33258056641</ele>
        <time>2014-06-11T12:42:15Z</time>
      </trkpt>
      <trkpt lat="43.41269" lon="6.12592">
        <ele>238.33258056641</ele>
        <time>2014-06-11T12:42:17Z</time>
      </trkpt>
      <trkpt lat="43.41267" lon="6.1261">
        <ele>238.37377929688</ele>
        <time>2014-06-11T12:42:22Z</time>
      </trkpt>
      <trkpt lat="43.41264" lon="6.12619">
        <ele>238.64390563965</ele>
        <time>2014-06-11T12:42:25Z</time>
      </trkpt>
      <trkpt lat="43.41261" lon="6.12624">
        <ele>238.79458618164</ele>
        <time>2014-06-11T12:42:27Z</time>
      </trkpt>
      <trkpt lat="43.41252" lon="6.12635">
        <ele>238.99113464356</ele>
        <time>2014-06-11T12:42:32Z</time>
      </trkpt>
      <trkpt lat="43.41246" lon="6.12637">
        <ele>239.63887023926</ele>
        <time>2014-06-11T12:42:34Z</time>
      </trkpt>
      <trkpt lat="43.41235" lon="6.12642">
        <ele>241.72044372559</ele>
        <time>2014-06-11T12:42:38Z</time>
      </trkpt>
      <trkpt lat="43.41224" lon="6.12651">
        <ele>243.34111022949</ele>
        <time>2014-06-11T12:42:43Z</time>
      </trkpt>
      <trkpt lat="43.41216" lon="6.12667">
        <ele>244.59837341309</ele>
        <time>2014-06-11T12:42:48Z</time>
      </trkpt>
      <trkpt lat="43.41215" lon="6.12674">
        <ele>244.5361328125</ele>
        <time>2014-06-11T12:42:50Z</time>
      </trkpt>
      <trkpt lat="43.41211" lon="6.12709">
        <ele>244.13192749023</ele>
        <time>2014-06-11T12:43:00Z</time>
      </trkpt>
      <trkpt lat="43.41209" lon="6.12721">
        <ele>244.43879699707</ele>
        <time>2014-06-11T12:43:04Z</time>
      </trkpt>
      <trkpt lat="43.41208" lon="6.12725">
        <ele>244.56681823731</ele>
        <time>2014-06-11T12:43:05Z</time>
      </trkpt>
      <trkpt lat="43.41202" lon="6.1274">
        <ele>246.39370727539</ele>
        <time>2014-06-11T12:43:10Z</time>
      </trkpt>
      <trkpt lat="43.41193" lon="6.12767">
        <ele>248.82084655762</ele>
        <time>2014-06-11T12:43:19Z</time>
      </trkpt>
      <trkpt lat="43.41191" lon="6.12781">
        <ele>249.77789306641</ele>
        <time>2014-06-11T12:43:23Z</time>
      </trkpt>
      <trkpt lat="43.41188" lon="6.12787">
        <ele>250.42163085938</ele>
        <time>2014-06-11T12:43:25Z</time>
      </trkpt>
      <trkpt lat="43.41185" lon="6.12799">
        <ele>251.46533203125</ele>
        <time>2014-06-11T12:43:29Z</time>
      </trkpt>
      <trkpt lat="43.4118" lon="6.12815">
        <ele>252.66174316406</ele>
        <time>2014-06-11T12:43:36Z</time>
      </trkpt>
      <trkpt lat="43.41178" lon="6.12825">
        <ele>253.00506591797</ele>
        <time>2014-06-11T12:43:40Z</time>
      </trkpt>
      <trkpt lat="43.41177" lon="6.12827">
        <ele>253.14239501953</ele>
        <time>2014-06-11T12:43:41Z</time>
      </trkpt>
      <trkpt lat="43.41177" lon="6.1283">
        <ele>253.21105957031</ele>
        <time>2014-06-11T12:43:42Z</time>
      </trkpt>
      <trkpt lat="43.41174" lon="6.12832">
        <ele>253.69171142578</ele>
        <time>2014-06-11T12:43:44Z</time>
      </trkpt>
      <trkpt lat="43.41172" lon="6.12837">
        <ele>254.17530822754</ele>
        <time>2014-06-11T12:43:46Z</time>
      </trkpt>
      <trkpt lat="43.41169" lon="6.12846">
        <ele>255.00428771973</ele>
        <time>2014-06-11T12:43:50Z</time>
      </trkpt>
      <trkpt lat="43.41169" lon="6.12857">
        <ele>255.44299316406</ele>
        <time>2014-06-11T12:43:54Z</time>
      </trkpt>
      <trkpt lat="43.41172" lon="6.12868">
        <ele>255.22702026367</ele>
        <time>2014-06-11T12:43:57Z</time>
      </trkpt>
      <trkpt lat="43.41172" lon="6.12874">
        <ele>255.27102661133</ele>
        <time>2014-06-11T12:43:59Z</time>
      </trkpt>
      <trkpt lat="43.41172" lon="6.12877">
        <ele>255.28947448731</ele>
        <time>2014-06-11T12:44:00Z</time>
      </trkpt>
      <trkpt lat="43.41172" lon="6.12884">
        <ele>255.34448242188</ele>
        <time>2014-06-11T12:44:03Z</time>
      </trkpt>
      <trkpt lat="43.41175" lon="6.12896">
        <ele>255.35821533203</ele>
        <time>2014-06-11T12:44:08Z</time>
      </trkpt>
      <trkpt lat="43.41176" lon="6.12906">
        <ele>255.57107543945</ele>
        <time>2014-06-11T12:44:13Z</time>
      </trkpt>
      <trkpt lat="43.41179" lon="6.12912">
        <ele>255.56248474121</ele>
        <time>2014-06-11T12:44:17Z</time>
      </trkpt>
      <trkpt lat="43.4118" lon="6.12917">
        <ele>255.51441955566</ele>
        <time>2014-06-11T12:44:20Z</time>
      </trkpt>
      <trkpt lat="43.41185" lon="6.12921">
        <ele>255.21057128906</ele>
        <time>2014-06-11T12:44:23Z</time>
      </trkpt>
      <trkpt lat="43.41194" lon="6.12936">
        <ele>254.78314208984</ele>
        <time>2014-06-11T12:44:33Z</time>
      </trkpt>
      <trkpt lat="43.41198" lon="6.12952">
        <ele>255.41062927246</ele>
        <time>2014-06-11T12:44:40Z</time>
      </trkpt>
      <trkpt lat="43.41198" lon="6.12961">
        <ele>255.75051879883</ele>
        <time>2014-06-11T12:44:44Z</time>
      </trkpt>
      <trkpt lat="43.41201" lon="6.12975">
        <ele>256.30841064453</ele>
        <time>2014-06-11T12:44:51Z</time>
      </trkpt>
      <trkpt lat="43.41201" lon="6.12979">
        <ele>256.51098632812</ele>
        <time>2014-06-11T12:44:54Z</time>
      </trkpt>
      <trkpt lat="43.41198" lon="6.12987">
        <ele>256.65002441406</ele>
        <time>2014-06-11T12:45:00Z</time>
      </trkpt>
      <trkpt lat="43.41208" lon="6.13001">
        <ele>257.53579711914</ele>
        <time>2014-06-11T12:45:09Z</time>
      </trkpt>
      <trkpt lat="43.41209" lon="6.13003">
        <ele>257.65252685547</ele>
        <time>2014-06-11T12:45:10Z</time>
      </trkpt>
      <trkpt lat="43.41216" lon="6.13014">
        <ele>258.28424072266</ele>
        <time>2014-06-11T12:45:18Z</time>
      </trkpt>
      <trkpt lat="43.41219" lon="6.13019">
        <ele>258.55718994141</ele>
        <time>2014-06-11T12:45:21Z</time>
      </trkpt>
      <trkpt lat="43.41225" lon="6.13025">
        <ele>259.61111450195</ele>
        <time>2014-06-11T12:45:27Z</time>
      </trkpt>
      <trkpt lat="43.41225" lon="6.13027">
        <ele>259.88400268555</ele>
        <time>2014-06-11T12:45:28Z</time>
      </trkpt>
      <trkpt lat="43.41228" lon="6.13028">
        <ele>260.75924682617</ele>
        <time>2014-06-11T12:45:30Z</time>
      </trkpt>
      <trkpt lat="43.41228" lon="6.13028">
        <ele>260.73864746094</ele>
        <time>2014-06-11T12:45:31Z</time>
      </trkpt>
      <trkpt lat="43.41237" lon="6.13033">
        <ele>263.76501464844</ele>
        <time>2014-06-11T12:45:38Z</time>
      </trkpt>
      <trkpt lat="43.41241" lon="6.13036">
        <ele>265.26705932617</ele>
        <time>2014-06-11T12:45:42Z</time>
      </trkpt>
      <trkpt lat="43.41243" lon="6.13036">
        <ele>265.88333129883</ele>
        <time>2014-06-11T12:45:44Z</time>
      </trkpt>
      <trkpt lat="43.41252" lon="6.13038">
        <ele>268.4049987793</ele>
        <time>2014-06-11T12:45:52Z</time>
      </trkpt>
      <trkpt lat="43.41258" lon="6.1304">
        <ele>269.36846923828</ele>
        <time>2014-06-11T12:45:57Z</time>
      </trkpt>
      <trkpt lat="43.41263" lon="6.13041">
        <ele>270.08200073242</ele>
        <time>2014-06-11T12:46:01Z</time>
      </trkpt>
      <trkpt lat="43.41265" lon="6.13043">
        <ele>270.52746582031</ele>
        <time>2014-06-11T12:46:03Z</time>
      </trkpt>
      <trkpt lat="43.41268" lon="6.13044">
        <ele>270.98696899414</ele>
        <time>2014-06-11T12:46:05Z</time>
      </trkpt>
      <trkpt lat="43.41272" lon="6.13046">
        <ele>271.58868408203</ele>
        <time>2014-06-11T12:46:09Z</time>
      </trkpt>
      <trkpt lat="43.4128" lon="6.1305">
        <ele>273.19604492188</ele>
        <time>2014-06-11T12:46:16Z</time>
      </trkpt>
      <trkpt lat="43.41284" lon="6.13053">
        <ele>274.3723449707</ele>
        <time>2014-06-11T12:46:20Z</time>
      </trkpt>
      <trkpt lat="43.4129" lon="6.13053">
        <ele>275.96655273438</ele>
        <time>2014-06-11T12:46:26Z</time>
      </trkpt>
      <trkpt lat="43.41298" lon="6.13056">
        <ele>277.97891235352</ele>
        <time>2014-06-11T12:46:32Z</time>
      </trkpt>
      <trkpt lat="43.41302" lon="6.13057">
        <ele>279.13571166992</ele>
        <time>2014-06-11T12:46:38Z</time>
      </trkpt>
      <trkpt lat="43.41311" lon="6.13052">
        <ele>280.16680908203</ele>
        <time>2014-06-11T12:46:45Z</time>
      </trkpt>
      <trkpt lat="43.41317" lon="6.13048">
        <ele>280.31292724609</ele>
        <time>2014-06-11T12:46:51Z</time>
      </trkpt>
      <trkpt lat="43.41319" lon="6.13046">
        <ele>280.32531738281</ele>
        <time>2014-06-11T12:46:53Z</time>
      </trkpt>
      <trkpt lat="43.41327" lon="6.13034">
        <ele>280.16207885742</ele>
        <time>2014-06-11T12:47:03Z</time>
      </trkpt>
      <trkpt lat="43.41332" lon="6.13028">
        <ele>279.99890136719</ele>
        <time>2014-06-11T12:47:09Z</time>
      </trkpt>
      <trkpt lat="43.41333" lon="6.13026">
        <ele>280</ele>
        <time>2014-06-11T12:47:11Z</time>
      </trkpt>
      <trkpt lat="43.41338" lon="6.13021">
        <ele>280</ele>
        <time>2014-06-11T12:47:16Z</time>
      </trkpt>
      <trkpt lat="43.41341" lon="6.1302">
        <ele>280</ele>
        <time>2014-06-11T12:47:19Z</time>
      </trkpt>
      <trkpt lat="43.41344" lon="6.13017">
        <ele>280</ele>
        <time>2014-06-11T12:47:22Z</time>
      </trkpt>
      <trkpt lat="43.41347" lon="6.13018">
        <ele>280</ele>
        <time>2014-06-11T12:47:24Z</time>
      </trkpt>
      <trkpt lat="43.41348" lon="6.13018">
        <ele>280</ele>
        <time>2014-06-11T12:47:25Z</time>
      </trkpt>
      <trkpt lat="43.41348" lon="6.13018">
        <ele>280</ele>
        <time>2014-06-11T12:47:26Z</time>
      </trkpt>
      <trkpt lat="43.41349" lon="6.13016">
        <ele>280</ele>
        <time>2014-06-11T12:47:27Z</time>
      </trkpt>
      <trkpt lat="43.41348" lon="6.13016">
        <ele>280</ele>
        <time>2014-06-11T12:47:28Z</time>
      </trkpt>
      <trkpt lat="43.41348" lon="6.13016">
        <ele>280</ele>
        <time>2014-06-11T12:47:34Z</time>
      </trkpt>
      <trkpt lat="43.41348" lon="6.13016">
        <ele>280</ele>
        <time>2014-06-11T12:47:41Z</time>
      </trkpt>
      <trkpt lat="43.41349" lon="6.13015">
        <ele>280</ele>
        <time>2014-06-11T12:47:45Z</time>
      </trkpt>
      <trkpt lat="43.41349" lon="6.13014">
        <ele>280</ele>
        <time>2014-06-11T12:47:52Z</time>
      </trkpt>
      <trkpt lat="43.41349" lon="6.13014">
        <ele>280</ele>
        <time>2014-06-11T12:48:07Z</time>
      </trkpt>
      <trkpt lat="43.41349" lon="6.13014">
        <ele>280</ele>
        <time>2014-06-11T12:48:42Z</time>
      </trkpt>
      <trkpt lat="43.41349" lon="6.13014">
        <ele>280</ele>
        <time>2014-06-11T12:48:55Z</time>
      </trkpt>
      <trkpt lat="43.41349" lon="6.13016">
        <ele>280</ele>
        <time>2014-06-11T12:49:02Z</time>
      </trkpt>
      <trkpt lat="43.41349" lon="6.13016">
        <ele>280</ele>
        <time>2014-06-11T12:49:03Z</time>
      </trkpt>
      <trkpt lat="43.41351" lon="6.13023">
        <ele>280</ele>
        <time>2014-06-11T12:49:07Z</time>
      </trkpt>
      <trkpt lat="43.41354" lon="6.13037">
        <ele>280.09307861328</ele>
        <time>2014-06-11T12:49:12Z</time>
      </trkpt>
      <trkpt lat="43.41357" lon="6.13053">
        <ele>280.14794921875</ele>
        <time>2014-06-11T12:49:16Z</time>
      </trkpt>
      <trkpt lat="43.41357" lon="6.13072">
        <ele>280.14654541016</ele>
        <time>2014-06-11T12:49:20Z</time>
      </trkpt>
      <trkpt lat="43.41361" lon="6.13084">
        <ele>280.00942993164</ele>
        <time>2014-06-11T12:49:24Z</time>
      </trkpt>
      <trkpt lat="43.4136" lon="6.13087">
        <ele>280.04138183594</ele>
        <time>2014-06-11T12:49:25Z</time>
      </trkpt>
      <trkpt lat="43.41354" lon="6.13105">
        <ele>280.48373413086</ele>
        <time>2014-06-11T12:49:29Z</time>
      </trkpt>
      <trkpt lat="43.41353" lon="6.13111">
        <ele>280.56680297852</ele>
        <time>2014-06-11T12:49:30Z</time>
      </trkpt>
      <trkpt lat="43.41352" lon="6.13116">
        <ele>280.62268066406</ele>
        <time>2014-06-11T12:49:31Z</time>
      </trkpt>
      <trkpt lat="43.41351" lon="6.13125">
        <ele>280.76000976562</ele>
        <time>2014-06-11T12:49:33Z</time>
      </trkpt>
      <trkpt lat="43.41351" lon="6.13139">
        <ele>280.76000976562</ele>
        <time>2014-06-11T12:49:36Z</time>
      </trkpt>
      <trkpt lat="43.41352" lon="6.13148">
        <ele>280.72985839844</ele>
        <time>2014-06-11T12:49:38Z</time>
      </trkpt>
      <trkpt lat="43.41352" lon="6.13169">
        <ele>280.97521972656</ele>
        <time>2014-06-11T12:49:42Z</time>
      </trkpt>
      <trkpt lat="43.41346" lon="6.13186">
        <ele>281.67559814453</ele>
        <time>2014-06-11T12:49:47Z</time>
      </trkpt>
      <trkpt lat="43.4134" lon="6.132">
        <ele>282.25238037109</ele>
        <time>2014-06-11T12:49:52Z</time>
      </trkpt>
      <trkpt lat="43.41335" lon="6.13212">
        <ele>282.78796386719</ele>
        <time>2014-06-11T12:49:56Z</time>
      </trkpt>
      <trkpt lat="43.41335" lon="6.13247">
        <ele>282.82916259766</ele>
        <time>2014-06-11T12:50:03Z</time>
      </trkpt>
      <trkpt lat="43.41333" lon="6.13274">
        <ele>283.90631103516</ele>
        <time>2014-06-11T12:50:08Z</time>
      </trkpt>
      <trkpt lat="43.41326" lon="6.13308">
        <ele>285.39117431641</ele>
        <time>2014-06-11T12:50:14Z</time>
      </trkpt>
      <trkpt lat="43.41326" lon="6.13336">
        <ele>286.42935180664</ele>
        <time>2014-06-11T12:50:19Z</time>
      </trkpt>
      <trkpt lat="43.41325" lon="6.13357">
        <ele>287.79727172852</ele>
        <time>2014-06-11T12:50:23Z</time>
      </trkpt>
      <trkpt lat="43.41325" lon="6.13379">
        <ele>287.46530151367</ele>
        <time>2014-06-11T12:50:27Z</time>
      </trkpt>
      <trkpt lat="43.41325" lon="6.13393">
        <ele>286.6796875</ele>
        <time>2014-06-11T12:50:30Z</time>
      </trkpt>
      <trkpt lat="43.41324" lon="6.13396">
        <ele>286.86508178711</ele>
        <time>2014-06-11T12:50:31Z</time>
      </trkpt>
      <trkpt lat="43.4132" lon="6.13401">
        <ele>287.47619628906</ele>
        <time>2014-06-11T12:50:34Z</time>
      </trkpt>
      <trkpt lat="43.41319" lon="6.13403">
        <ele>287.55172729492</ele>
        <time>2014-06-11T12:50:35Z</time>
      </trkpt>
      <trkpt lat="43.41318" lon="6.13404">
        <ele>287.7165222168</ele>
        <time>2014-06-11T12:50:40Z</time>
      </trkpt>
      <trkpt lat="43.41318" lon="6.13404">
        <ele>287.7165222168</ele>
        <time>2014-06-11T12:51:03Z</time>
      </trkpt>
      <trkpt lat="43.41318" lon="6.13404">
        <ele>287.7165222168</ele>
        <time>2014-06-11T12:51:14Z</time>
      </trkpt>
      <trkpt lat="43.41319" lon="6.13406">
        <ele>287.42126464844</ele>
        <time>2014-06-11T12:51:22Z</time>
      </trkpt>
      <trkpt lat="43.4132" lon="6.13404">
        <ele>287.13973999023</ele>
        <time>2014-06-11T12:51:24Z</time>
      </trkpt>
      <trkpt lat="43.41322" lon="6.13398">
        <ele>287.10198974609</ele>
        <time>2014-06-11T12:51:29Z</time>
      </trkpt>
      <trkpt lat="43.41323" lon="6.13394">
        <ele>287.13973999023</ele>
        <time>2014-06-11T12:51:31Z</time>
      </trkpt>
      <trkpt lat="43.41328" lon="6.13381">
        <ele>286.50399780273</ele>
        <time>2014-06-11T12:51:36Z</time>
      </trkpt>
      <trkpt lat="43.41333" lon="6.1337">
        <ele>285.84307861328</ele>
        <time>2014-06-11T12:51:41Z</time>
      </trkpt>
      <trkpt lat="43.41336" lon="6.13367">
        <ele>285.38192749023</ele>
        <time>2014-06-11T12:51:44Z</time>
      </trkpt>
      <trkpt lat="43.41341" lon="6.1336">
        <ele>284.66159057617</ele>
        <time>2014-06-11T12:51:47Z</time>
      </trkpt>
      <trkpt lat="43.41346" lon="6.13354">
        <ele>283.40502929688</ele>
        <time>2014-06-11T12:51:50Z</time>
      </trkpt>
      <trkpt lat="43.41349" lon="6.1335">
        <ele>282.84027099609</ele>
        <time>2014-06-11T12:51:52Z</time>
      </trkpt>
      <trkpt lat="43.4135" lon="6.13347">
        <ele>282.54672241211</ele>
        <time>2014-06-11T12:51:53Z</time>
      </trkpt>
      <trkpt lat="43.41361" lon="6.13331">
        <ele>280.04522705078</ele>
        <time>2014-06-11T12:52:02Z</time>
      </trkpt>
      <trkpt lat="43.41362" lon="6.1333">
        <ele>279.7356262207</ele>
        <time>2014-06-11T12:52:03Z</time>
      </trkpt>
      <trkpt lat="43.41365" lon="6.13328">
        <ele>279.28158569336</ele>
        <time>2014-06-11T12:52:05Z</time>
      </trkpt>
      <trkpt lat="43.41368" lon="6.13323">
        <ele>278.74884033203</ele>
        <time>2014-06-11T12:52:08Z</time>
      </trkpt>
      <trkpt lat="43.41369" lon="6.13321">
        <ele>278.49826049805</ele>
        <time>2014-06-11T12:52:09Z</time>
      </trkpt>
      <trkpt lat="43.41372" lon="6.1332">
        <ele>278.11444091797</ele>
        <time>2014-06-11T12:52:10Z</time>
      </trkpt>
      <trkpt lat="43.41373" lon="6.13319">
        <ele>277.86654663086</ele>
        <time>2014-06-11T12:52:11Z</time>
      </trkpt>
      <trkpt lat="43.41374" lon="6.13319">
        <ele>277.67193603516</ele>
        <time>2014-06-11T12:52:12Z</time>
      </trkpt>
      <trkpt lat="43.41374" lon="6.13318">
        <ele>277.67517089844</ele>
        <time>2014-06-11T12:52:16Z</time>
      </trkpt>
      <trkpt lat="43.41374" lon="6.13318">
        <ele>277.67517089844</ele>
        <time>2014-06-11T12:52:25Z</time>
      </trkpt>
      <trkpt lat="43.41374" lon="6.13318">
        <ele>277.67517089844</ele>
        <time>2014-06-11T12:52:36Z</time>
      </trkpt>
      <trkpt lat="43.41375" lon="6.13318">
        <ele>277.61413574219</ele>
        <time>2014-06-11T12:52:43Z</time>
      </trkpt>
      <trkpt lat="43.41376" lon="6.13319">
        <ele>277.40249633789</ele>
        <time>2014-06-11T12:52:44Z</time>
      </trkpt>
      <trkpt lat="43.4138" lon="6.13321">
        <ele>276.5407409668</ele>
        <time>2014-06-11T12:52:47Z</time>
      </trkpt>
      <trkpt lat="43.41382" lon="6.13321">
        <ele>276.16705322266</ele>
        <time>2014-06-11T12:52:48Z</time>
      </trkpt>
      <trkpt lat="43.41384" lon="6.13322">
        <ele>275.71817016602</ele>
        <time>2014-06-11T12:52:49Z</time>
      </trkpt>
      <trkpt lat="43.41386" lon="6.13322">
        <ele>275.3232421875</ele>
        <time>2014-06-11T12:52:50Z</time>
      </trkpt>
      <trkpt lat="43.41391" lon="6.13324">
        <ele>274.05773925781</ele>
        <time>2014-06-11T12:52:52Z</time>
      </trkpt>
      <trkpt lat="43.41396" lon="6.13326">
        <ele>272.1591796875</ele>
        <time>2014-06-11T12:52:54Z</time>
      </trkpt>
      <trkpt lat="43.41404" lon="6.13323">
        <ele>269.30615234375</ele>
        <time>2014-06-11T12:52:57Z</time>
      </trkpt>
      <trkpt lat="43.41407" lon="6.13323">
        <ele>268.18695068359</ele>
        <time>2014-06-11T12:52:58Z</time>
      </trkpt>
      <trkpt lat="43.4141" lon="6.13325">
        <ele>266.98529052734</ele>
        <time>2014-06-11T12:52:59Z</time>
      </trkpt>
      <trkpt lat="43.41413" lon="6.13327">
        <ele>265.89010620117</ele>
        <time>2014-06-11T12:53:00Z</time>
      </trkpt>
      <trkpt lat="43.41423" lon="6.13335">
        <ele>262.97521972656</ele>
        <time>2014-06-11T12:53:04Z</time>
      </trkpt>
      <trkpt lat="43.41434" lon="6.13344">
        <ele>261.19747924805</ele>
        <time>2014-06-11T12:53:08Z</time>
      </trkpt>
      <trkpt lat="43.41439" lon="6.13349">
        <ele>260.56295776367</ele>
        <time>2014-06-11T12:53:10Z</time>
      </trkpt>
      <trkpt lat="43.41441" lon="6.1335">
        <ele>260.35205078125</ele>
        <time>2014-06-11T12:53:14Z</time>
      </trkpt>
      <trkpt lat="43.41442" lon="6.13351">
        <ele>260.228515625</ele>
        <time>2014-06-11T12:53:20Z</time>
      </trkpt>
      <trkpt lat="43.41443" lon="6.13351">
        <ele>260.15408325195</ele>
        <time>2014-06-11T12:53:26Z</time>
      </trkpt>
      <trkpt lat="43.41443" lon="6.13351">
        <ele>260.15408325195</ele>
        <time>2014-06-11T12:53:30Z</time>
      </trkpt>
      <trkpt lat="43.41443" lon="6.13351">
        <ele>260.15408325195</ele>
        <time>2014-06-11T12:53:35Z</time>
      </trkpt>
      <trkpt lat="43.41444" lon="6.13351">
        <ele>260.07867431641</ele>
        <time>2014-06-11T12:53:43Z</time>
      </trkpt>
      <trkpt lat="43.41452" lon="6.13358">
        <ele>259.970703125</ele>
        <time>2014-06-11T12:53:49Z</time>
      </trkpt>
      <trkpt lat="43.41452" lon="6.13361">
        <ele>259.99960327148</ele>
        <time>2014-06-11T12:53:54Z</time>
      </trkpt>
      <trkpt lat="43.41452" lon="6.13361">
        <ele>259.99960327148</ele>
        <time>2014-06-11T12:54:18Z</time>
      </trkpt>
      <trkpt lat="43.41452" lon="6.13361">
        <ele>259.99774169922</ele>
        <time>2014-06-11T12:54:34Z</time>
      </trkpt>
      <trkpt lat="43.41452" lon="6.13361">
        <ele>259.99774169922</ele>
        <time>2014-06-11T12:54:50Z</time>
      </trkpt>
      <trkpt lat="43.41452" lon="6.13361">
        <ele>259.99774169922</ele>
        <time>2014-06-11T12:55:04Z</time>
      </trkpt>
      <trkpt lat="43.41453" lon="6.13361">
        <ele>259.99700927734</ele>
        <time>2014-06-11T12:55:18Z</time>
      </trkpt>
      <trkpt lat="43.41451" lon="6.13365">
        <ele>260</ele>
        <time>2014-06-11T12:55:25Z</time>
      </trkpt>
      <trkpt lat="43.41446" lon="6.13376">
        <ele>260</ele>
        <time>2014-06-11T12:55:31Z</time>
      </trkpt>
      <trkpt lat="43.41445" lon="6.13378">
        <ele>260</ele>
        <time>2014-06-11T12:55:32Z</time>
      </trkpt>
      <trkpt lat="43.41442" lon="6.13384">
        <ele>260.08154296875</ele>
        <time>2014-06-11T12:55:35Z</time>
      </trkpt>
      <trkpt lat="43.41442" lon="6.13387">
        <ele>260.09036254883</ele>
        <time>2014-06-11T12:55:36Z</time>
      </trkpt>
      <trkpt lat="43.41441" lon="6.13392">
        <ele>260.1252746582</ele>
        <time>2014-06-11T12:55:38Z</time>
      </trkpt>
      <trkpt lat="43.41439" lon="6.13396">
        <ele>260.14581298828</ele>
        <time>2014-06-11T12:55:40Z</time>
      </trkpt>
      <trkpt lat="43.41437" lon="6.13402">
        <ele>260.14370727539</ele>
        <time>2014-06-11T12:55:43Z</time>
      </trkpt>
      <trkpt lat="43.41432" lon="6.13414">
        <ele>260.0412902832</ele>
        <time>2014-06-11T12:55:49Z</time>
      </trkpt>
      <trkpt lat="43.41428" lon="6.13424">
        <ele>260</ele>
        <time>2014-06-11T12:55:54Z</time>
      </trkpt>
      <trkpt lat="43.41426" lon="6.1343">
        <ele>260</ele>
        <time>2014-06-11T12:55:57Z</time>
      </trkpt>
      <trkpt lat="43.41412" lon="6.13478">
        <ele>260</ele>
        <time>2014-06-11T12:56:19Z</time>
      </trkpt>
      <trkpt lat="43.41405" lon="6.13505">
        <ele>260</ele>
        <time>2014-06-11T12:56:31Z</time>
      </trkpt>
      <trkpt lat="43.41404" lon="6.13507">
        <ele>260</ele>
        <time>2014-06-11T12:56:32Z</time>
      </trkpt>
      <trkpt lat="43.41402" lon="6.13514">
        <ele>260</ele>
        <time>2014-06-11T12:56:35Z</time>
      </trkpt>
      <trkpt lat="43.41392" lon="6.13544">
        <ele>260</ele>
        <time>2014-06-11T12:56:46Z</time>
      </trkpt>
      <trkpt lat="43.41383" lon="6.13569">
        <ele>260</ele>
        <time>2014-06-11T12:56:54Z</time>
      </trkpt>
      <trkpt lat="43.41381" lon="6.13572">
        <ele>260</ele>
        <time>2014-06-11T12:56:55Z</time>
      </trkpt>
      <trkpt lat="43.41375" lon="6.13588">
        <ele>260</ele>
        <time>2014-06-11T12:56:59Z</time>
      </trkpt>
      <trkpt lat="43.4137" lon="6.13597">
        <ele>260</ele>
        <time>2014-06-11T12:57:01Z</time>
      </trkpt>
      <trkpt lat="43.41363" lon="6.13614">
        <ele>260.01229858398</ele>
        <time>2014-06-11T12:57:04Z</time>
      </trkpt>
      <trkpt lat="43.41354" lon="6.13631">
        <ele>260</ele>
        <time>2014-06-11T12:57:07Z</time>
      </trkpt>
      <trkpt lat="43.41346" lon="6.13649">
        <ele>260</ele>
        <time>2014-06-11T12:57:10Z</time>
      </trkpt>
      <trkpt lat="43.41341" lon="6.13661">
        <ele>260</ele>
        <time>2014-06-11T12:57:12Z</time>
      </trkpt>
      <trkpt lat="43.41334" lon="6.1368">
        <ele>260</ele>
        <time>2014-06-11T12:57:15Z</time>
      </trkpt>
      <trkpt lat="43.41332" lon="6.13687">
        <ele>260.02972412109</ele>
        <time>2014-06-11T12:57:16Z</time>
      </trkpt>
      <trkpt lat="43.41331" lon="6.13696">
        <ele>260</ele>
        <time>2014-06-11T12:57:17Z</time>
      </trkpt>
      <trkpt lat="43.41329" lon="6.13705">
        <ele>260</ele>
        <time>2014-06-11T12:57:18Z</time>
      </trkpt>
      <trkpt lat="43.41328" lon="6.13715">
        <ele>260</ele>
        <time>2014-06-11T12:57:19Z</time>
      </trkpt>
      <trkpt lat="43.41328" lon="6.13725">
        <ele>260</ele>
        <time>2014-06-11T12:57:20Z</time>
      </trkpt>
      <trkpt lat="43.41328" lon="6.13737">
        <ele>260</ele>
        <time>2014-06-11T12:57:21Z</time>
      </trkpt>
      <trkpt lat="43.41327" lon="6.13748">
        <ele>260</ele>
        <time>2014-06-11T12:57:22Z</time>
      </trkpt>
      <trkpt lat="43.41327" lon="6.1376">
        <ele>260.26861572266</ele>
        <time>2014-06-11T12:57:23Z</time>
      </trkpt>
      <trkpt lat="43.41326" lon="6.13771">
        <ele>260.54013061523</ele>
        <time>2014-06-11T12:57:24Z</time>
      </trkpt>
      <trkpt lat="43.41325" lon="6.13781">
        <ele>260.77691650391</ele>
        <time>2014-06-11T12:57:25Z</time>
      </trkpt>
      <trkpt lat="43.41323" lon="6.13792">
        <ele>260.95852661133</ele>
        <time>2014-06-11T12:57:26Z</time>
      </trkpt>
      <trkpt lat="43.41322" lon="6.13803">
        <ele>261.15933227539</ele>
        <time>2014-06-11T12:57:27Z</time>
      </trkpt>
      <trkpt lat="43.41321" lon="6.13813">
        <ele>261.44479370117</ele>
        <time>2014-06-11T12:57:28Z</time>
      </trkpt>
      <trkpt lat="43.4132" lon="6.13823">
        <ele>261.75637817383</ele>
        <time>2014-06-11T12:57:29Z</time>
      </trkpt>
      <trkpt lat="43.4132" lon="6.13833">
        <ele>262.06393432617</ele>
        <time>2014-06-11T12:57:30Z</time>
      </trkpt>
      <trkpt lat="43.4132" lon="6.13842">
        <ele>262.18124389648</ele>
        <time>2014-06-11T12:57:31Z</time>
      </trkpt>
      <trkpt lat="43.41318" lon="6.13858">
        <ele>262.21331787109</ele>
        <time>2014-06-11T12:57:33Z</time>
      </trkpt>
      <trkpt lat="43.41317" lon="6.13892">
        <ele>263.00714111328</ele>
        <time>2014-06-11T12:57:38Z</time>
      </trkpt>
      <trkpt lat="43.41315" lon="6.13926">
        <ele>264.41180419922</ele>
        <time>2014-06-11T12:57:44Z</time>
      </trkpt>
      <trkpt lat="43.41313" lon="6.13942">
        <ele>264.17163085938</ele>
        <time>2014-06-11T12:57:48Z</time>
      </trkpt>
      <trkpt lat="43.41312" lon="6.13959">
        <ele>264.93084716797</ele>
        <time>2014-06-11T12:57:53Z</time>
      </trkpt>
      <trkpt lat="43.41311" lon="6.13966">
        <ele>265.16772460938</ele>
        <time>2014-06-11T12:57:55Z</time>
      </trkpt>
      <trkpt lat="43.41311" lon="6.13972">
        <ele>265.52478027344</ele>
        <time>2014-06-11T12:57:57Z</time>
      </trkpt>
      <trkpt lat="43.41307" lon="6.13993">
        <ele>265.29943847656</ele>
        <time>2014-06-11T12:58:04Z</time>
      </trkpt>
      <trkpt lat="43.41303" lon="6.14026">
        <ele>265.36938476562</ele>
        <time>2014-06-11T12:58:15Z</time>
      </trkpt>
      <trkpt lat="43.41299" lon="6.14053">
        <ele>266.10076904297</ele>
        <time>2014-06-11T12:58:24Z</time>
      </trkpt>
      <trkpt lat="43.41299" lon="6.14059">
        <ele>266.16555786133</ele>
        <time>2014-06-11T12:58:26Z</time>
      </trkpt>
      <trkpt lat="43.41298" lon="6.14064">
        <ele>266.07534790039</ele>
        <time>2014-06-11T12:58:28Z</time>
      </trkpt>
      <trkpt lat="43.41292" lon="6.14085">
        <ele>265.70526123047</ele>
        <time>2014-06-11T12:58:35Z</time>
      </trkpt>
      <trkpt lat="43.41285" lon="6.14113">
        <ele>265.17181396484</ele>
        <time>2014-06-11T12:58:42Z</time>
      </trkpt>
      <trkpt lat="43.41277" lon="6.1414">
        <ele>264.87603759766</ele>
        <time>2014-06-11T12:58:47Z</time>
      </trkpt>
      <trkpt lat="43.4127" lon="6.14165">
        <ele>264.21578979492</ele>
        <time>2014-06-11T12:58:51Z</time>
      </trkpt>
      <trkpt lat="43.41263" lon="6.14186">
        <ele>264.18807983398</ele>
        <time>2014-06-11T12:58:54Z</time>
      </trkpt>
      <trkpt lat="43.41258" lon="6.14201">
        <ele>264.33602905273</ele>
        <time>2014-06-11T12:58:56Z</time>
      </trkpt>
      <trkpt lat="43.41253" lon="6.14216">
        <ele>264.90737915039</ele>
        <time>2014-06-11T12:58:58Z</time>
      </trkpt>
      <trkpt lat="43.41248" lon="6.14232">
        <ele>265.35717773438</ele>
        <time>2014-06-11T12:59:00Z</time>
      </trkpt>
      <trkpt lat="43.41246" lon="6.1424">
        <ele>265.28686523438</ele>
        <time>2014-06-11T12:59:01Z</time>
      </trkpt>
      <trkpt lat="43.41243" lon="6.14248">
        <ele>265.19625854492</ele>
        <time>2014-06-11T12:59:02Z</time>
      </trkpt>
      <trkpt lat="43.41241" lon="6.14255">
        <ele>265.26940917969</ele>
        <time>2014-06-11T12:59:03Z</time>
      </trkpt>
      <trkpt lat="43.41238" lon="6.14263">
        <ele>265.2783203125</ele>
        <time>2014-06-11T12:59:04Z</time>
      </trkpt>
      <trkpt lat="43.41224" lon="6.14307">
        <ele>265.68673706055</ele>
        <time>2014-06-11T12:59:10Z</time>
      </trkpt>
      <trkpt lat="43.41214" lon="6.14339">
        <ele>266.28955078125</ele>
        <time>2014-06-11T12:59:15Z</time>
      </trkpt>
      <trkpt lat="43.41212" lon="6.14344">
        <ele>266.47494506836</ele>
        <time>2014-06-11T12:59:16Z</time>
      </trkpt>
      <trkpt lat="43.41206" lon="6.14364">
        <ele>267.703125</ele>
        <time>2014-06-11T12:59:21Z</time>
      </trkpt>
      <trkpt lat="43.41199" lon="6.14385">
        <ele>270.11410522461</ele>
        <time>2014-06-11T12:59:28Z</time>
      </trkpt>
      <trkpt lat="43.41198" lon="6.14391">
        <ele>270.80990600586</ele>
        <time>2014-06-11T12:59:30Z</time>
      </trkpt>
      <trkpt lat="43.41197" lon="6.14393">
        <ele>270.97128295898</ele>
        <time>2014-06-11T12:59:31Z</time>
      </trkpt>
      <trkpt lat="43.41197" lon="6.14396">
        <ele>271.22189331055</ele>
        <time>2014-06-11T12:59:32Z</time>
      </trkpt>
      <trkpt lat="43.41196" lon="6.14403">
        <ele>271.81069946289</ele>
        <time>2014-06-11T12:59:34Z</time>
      </trkpt>
      <trkpt lat="43.41192" lon="6.14425">
        <ele>274.33135986328</ele>
        <time>2014-06-11T12:59:41Z</time>
      </trkpt>
      <trkpt lat="43.41189" lon="6.14448">
        <ele>278.86636352539</ele>
        <time>2014-06-11T12:59:49Z</time>
      </trkpt>
      <trkpt lat="43.41188" lon="6.14458">
        <ele>279.63635253906</ele>
        <time>2014-06-11T12:59:53Z</time>
      </trkpt>
      <trkpt lat="43.41188" lon="6.14463">
        <ele>280.0481262207</ele>
        <time>2014-06-11T12:59:55Z</time>
      </trkpt>
      <trkpt lat="43.41184" lon="6.14496">
        <ele>282.29583740234</ele>
        <time>2014-06-11T13:00:06Z</time>
      </trkpt>
      <trkpt lat="43.41181" lon="6.14512">
        <ele>283.37045288086</ele>
        <time>2014-06-11T13:00:11Z</time>
      </trkpt>
      <trkpt lat="43.41176" lon="6.14535">
        <ele>284.60913085938</ele>
        <time>2014-06-11T13:00:18Z</time>
      </trkpt>
      <trkpt lat="43.41171" lon="6.14557">
        <ele>285.25436401367</ele>
        <time>2014-06-11T13:00:24Z</time>
      </trkpt>
      <trkpt lat="43.41169" lon="6.14564">
        <ele>285.68695068359</ele>
        <time>2014-06-11T13:00:26Z</time>
      </trkpt>
      <trkpt lat="43.41166" lon="6.14573">
        <ele>286.25885009766</ele>
        <time>2014-06-11T13:00:29Z</time>
      </trkpt>
      <trkpt lat="43.41166" lon="6.14576">
        <ele>286.41925048828</ele>
        <time>2014-06-11T13:00:30Z</time>
      </trkpt>
      <trkpt lat="43.41166" lon="6.1458">
        <ele>286.72409057617</ele>
        <time>2014-06-11T13:00:35Z</time>
      </trkpt>
      <trkpt lat="43.41166" lon="6.1458">
        <ele>286.72409057617</ele>
        <time>2014-06-11T13:00:57Z</time>
      </trkpt>
      <trkpt lat="43.41166" lon="6.1458">
        <ele>286.72409057617</ele>
        <time>2014-06-11T13:01:02Z</time>
      </trkpt>
      <trkpt lat="43.41166" lon="6.1458">
        <ele>286.74102783203</ele>
        <time>2014-06-11T13:01:11Z</time>
      </trkpt>
      <trkpt lat="43.41166" lon="6.14582">
        <ele>286.87313842773</ele>
        <time>2014-06-11T13:01:12Z</time>
      </trkpt>
      <trkpt lat="43.41163" lon="6.14593">
        <ele>287.45581054688</ele>
        <time>2014-06-11T13:01:16Z</time>
      </trkpt>
      <trkpt lat="43.41162" lon="6.14596">
        <ele>287.59997558594</ele>
        <time>2014-06-11T13:01:17Z</time>
      </trkpt>
      <trkpt lat="43.41157" lon="6.14615">
        <ele>288.37884521484</ele>
        <time>2014-06-11T13:01:21Z</time>
      </trkpt>
      <trkpt lat="43.41149" lon="6.14643">
        <ele>288.35974121094</ele>
        <time>2014-06-11T13:01:26Z</time>
      </trkpt>
      <trkpt lat="43.41146" lon="6.14655">
        <ele>288.80667114258</ele>
        <time>2014-06-11T13:01:28Z</time>
      </trkpt>
      <trkpt lat="43.41145" lon="6.14667">
        <ele>289.43472290039</ele>
        <time>2014-06-11T13:01:30Z</time>
      </trkpt>
      <trkpt lat="43.41141" lon="6.14682">
        <ele>289.71197509766</ele>
        <time>2014-06-11T13:01:32Z</time>
      </trkpt>
      <trkpt lat="43.41135" lon="6.14703">
        <ele>290.04138183594</ele>
        <time>2014-06-11T13:01:35Z</time>
      </trkpt>
      <trkpt lat="43.41134" lon="6.1471">
        <ele>290.20788574219</ele>
        <time>2014-06-11T13:01:36Z</time>
      </trkpt>
      <trkpt lat="43.41133" lon="6.14719">
        <ele>290.42590332031</ele>
        <time>2014-06-11T13:01:37Z</time>
      </trkpt>
      <trkpt lat="43.41132" lon="6.14727">
        <ele>290.24783325195</ele>
        <time>2014-06-11T13:01:38Z</time>
      </trkpt>
      <trkpt lat="43.4113" lon="6.14737">
        <ele>289.71038818359</ele>
        <time>2014-06-11T13:01:39Z</time>
      </trkpt>
      <trkpt lat="43.4113" lon="6.14746">
        <ele>289.21884155273</ele>
        <time>2014-06-11T13:01:40Z</time>
      </trkpt>
      <trkpt lat="43.4113" lon="6.14756">
        <ele>288.59020996094</ele>
        <time>2014-06-11T13:01:41Z</time>
      </trkpt>
      <trkpt lat="43.4113" lon="6.14766">
        <ele>287.87954711914</ele>
        <time>2014-06-11T13:01:42Z</time>
      </trkpt>
      <trkpt lat="43.41129" lon="6.14776">
        <ele>287.076171875</ele>
        <time>2014-06-11T13:01:43Z</time>
      </trkpt>
      <trkpt lat="43.41129" lon="6.14795">
        <ele>286.64471435547</ele>
        <time>2014-06-11T13:01:45Z</time>
      </trkpt>
      <trkpt lat="43.41128" lon="6.14805">
        <ele>286.40197753906</ele>
        <time>2014-06-11T13:01:46Z</time>
      </trkpt>
      <trkpt lat="43.41128" lon="6.14814">
        <ele>286.08062744141</ele>
        <time>2014-06-11T13:01:47Z</time>
      </trkpt>
      <trkpt lat="43.41127" lon="6.14823">
        <ele>285.70983886719</ele>
        <time>2014-06-11T13:01:48Z</time>
      </trkpt>
      <trkpt lat="43.41127" lon="6.14832">
        <ele>285.34762573242</ele>
        <time>2014-06-11T13:01:49Z</time>
      </trkpt>
      <trkpt lat="43.41126" lon="6.14868">
        <ele>283.40435791016</ele>
        <time>2014-06-11T13:01:54Z</time>
      </trkpt>
      <trkpt lat="43.41125" lon="6.14874">
        <ele>282.97006225586</ele>
        <time>2014-06-11T13:01:56Z</time>
      </trkpt>
      <trkpt lat="43.41124" lon="6.1488">
        <ele>282.62503051758</ele>
        <time>2014-06-11T13:01:58Z</time>
      </trkpt>
      <trkpt lat="43.41124" lon="6.14897">
        <ele>281.82083129883</ele>
        <time>2014-06-11T13:02:05Z</time>
      </trkpt>
      <trkpt lat="43.41124" lon="6.14917">
        <ele>280.85354614258</ele>
        <time>2014-06-11T13:02:10Z</time>
      </trkpt>
      <trkpt lat="43.41123" lon="6.1495">
        <ele>279.43698120117</ele>
        <time>2014-06-11T13:02:17Z</time>
      </trkpt>
      <trkpt lat="43.41123" lon="6.14955">
        <ele>279.12142944336</ele>
        <time>2014-06-11T13:02:18Z</time>
      </trkpt>
      <trkpt lat="43.41122" lon="6.14988">
        <ele>277.84722900391</ele>
        <time>2014-06-11T13:02:24Z</time>
      </trkpt>
      <trkpt lat="43.41121" lon="6.15026">
        <ele>276.52673339844</ele>
        <time>2014-06-11T13:02:30Z</time>
      </trkpt>
      <trkpt lat="43.41121" lon="6.15032">
        <ele>276.24349975586</ele>
        <time>2014-06-11T13:02:31Z</time>
      </trkpt>
      <trkpt lat="43.41121" lon="6.15038">
        <ele>276.02548217773</ele>
        <time>2014-06-11T13:02:32Z</time>
      </trkpt>
      <trkpt lat="43.41121" lon="6.15044">
        <ele>275.77313232422</ele>
        <time>2014-06-11T13:02:33Z</time>
      </trkpt>
      <trkpt lat="43.41121" lon="6.15049">
        <ele>275.60491943359</ele>
        <time>2014-06-11T13:02:34Z</time>
      </trkpt>
      <trkpt lat="43.41121" lon="6.15053">
        <ele>275.45727539062</ele>
        <time>2014-06-11T13:02:35Z</time>
      </trkpt>
      <trkpt lat="43.41123" lon="6.15062">
        <ele>275.60195922852</ele>
        <time>2014-06-11T13:02:39Z</time>
      </trkpt>
      <trkpt lat="43.41125" lon="6.15064">
        <ele>275.80368041992</ele>
        <time>2014-06-11T13:02:41Z</time>
      </trkpt>
      <trkpt lat="43.41125" lon="6.15064">
        <ele>275.92031860352</ele>
        <time>2014-06-11T13:02:44Z</time>
      </trkpt>
      <trkpt lat="43.41125" lon="6.15064">
        <ele>275.92031860352</ele>
        <time>2014-06-11T13:02:57Z</time>
      </trkpt>
      <trkpt lat="43.41125" lon="6.15064">
        <ele>275.92031860352</ele>
        <time>2014-06-11T13:03:07Z</time>
      </trkpt>
      <trkpt lat="43.41127" lon="6.15064">
        <ele>276.10018920898</ele>
        <time>2014-06-11T13:03:16Z</time>
      </trkpt>
      <trkpt lat="43.4113" lon="6.15064">
        <ele>276.63073730469</ele>
        <time>2014-06-11T13:03:19Z</time>
      </trkpt>
      <trkpt lat="43.41135" lon="6.15063">
        <ele>277.40490722656</ele>
        <time>2014-06-11T13:03:23Z</time>
      </trkpt>
      <trkpt lat="43.41139" lon="6.15064">
        <ele>278.0680847168</ele>
        <time>2014-06-11T13:03:27Z</time>
      </trkpt>
      <trkpt lat="43.4115" lon="6.15066">
        <ele>280.15188598633</ele>
        <time>2014-06-11T13:03:36Z</time>
      </trkpt>
      <trkpt lat="43.41159" lon="6.15068">
        <ele>281.95965576172</ele>
        <time>2014-06-11T13:03:44Z</time>
      </trkpt>
      <trkpt lat="43.41164" lon="6.15069">
        <ele>282.92755126953</ele>
        <time>2014-06-11T13:03:48Z</time>
      </trkpt>
      <trkpt lat="43.41166" lon="6.1507">
        <ele>283.4016418457</ele>
        <time>2014-06-11T13:03:50Z</time>
      </trkpt>
      <trkpt lat="43.41173" lon="6.15073">
        <ele>284.03118896484</ele>
        <time>2014-06-11T13:03:56Z</time>
      </trkpt>
      <trkpt lat="43.41179" lon="6.15077">
        <ele>284.52041625977</ele>
        <time>2014-06-11T13:04:02Z</time>
      </trkpt>
      <trkpt lat="43.4118" lon="6.15076">
        <ele>284.74700927734</ele>
        <time>2014-06-11T13:04:04Z</time>
      </trkpt>
      <trkpt lat="43.41184" lon="6.15078">
        <ele>285.06286621094</ele>
        <time>2014-06-11T13:04:08Z</time>
      </trkpt>
      <trkpt lat="43.41191" lon="6.15078">
        <ele>285.78555297852</ele>
        <time>2014-06-11T13:04:15Z</time>
      </trkpt>
      <trkpt lat="43.41193" lon="6.15079">
        <ele>286.03274536133</ele>
        <time>2014-06-11T13:04:18Z</time>
      </trkpt>
      <trkpt lat="43.41202" lon="6.1508">
        <ele>287.16207885742</ele>
        <time>2014-06-11T13:04:27Z</time>
      </trkpt>
      <trkpt lat="43.41203" lon="6.15081">
        <ele>287.31488037109</ele>
        <time>2014-06-11T13:04:28Z</time>
      </trkpt>
      <trkpt lat="43.41205" lon="6.15082">
        <ele>287.59982299805</ele>
        <time>2014-06-11T13:04:30Z</time>
      </trkpt>
      <trkpt lat="43.41211" lon="6.15083">
        <ele>288.38430786133</ele>
        <time>2014-06-11T13:04:35Z</time>
      </trkpt>
      <trkpt lat="43.41212" lon="6.15084">
        <ele>288.53756713867</ele>
        <time>2014-06-11T13:04:36Z</time>
      </trkpt>
      <trkpt lat="43.41215" lon="6.15085">
        <ele>288.91159057617</ele>
        <time>2014-06-11T13:04:39Z</time>
      </trkpt>
      <trkpt lat="43.41219" lon="6.15086">
        <ele>289.5158996582</ele>
        <time>2014-06-11T13:04:44Z</time>
      </trkpt>
      <trkpt lat="43.41219" lon="6.15086">
        <ele>289.5158996582</ele>
        <time>2014-06-11T13:04:53Z</time>
      </trkpt>
      <trkpt lat="43.41219" lon="6.15086">
        <ele>289.57232666016</ele>
        <time>2014-06-11T13:05:00Z</time>
      </trkpt>
      <trkpt lat="43.41223" lon="6.15086">
        <ele>290.32891845703</ele>
        <time>2014-06-11T13:05:07Z</time>
      </trkpt>
      <trkpt lat="43.41225" lon="6.15086">
        <ele>291.00982666016</ele>
        <time>2014-06-11T13:05:12Z</time>
      </trkpt>
      <trkpt lat="43.41226" lon="6.15086">
        <ele>291.28210449219</ele>
        <time>2014-06-11T13:05:13Z</time>
      </trkpt>
      <trkpt lat="43.41227" lon="6.15086">
        <ele>291.82537841797</ele>
        <time>2014-06-11T13:05:16Z</time>
      </trkpt>
      <trkpt lat="43.41227" lon="6.15086">
        <ele>291.82760620117</ele>
        <time>2014-06-11T13:05:17Z</time>
      </trkpt>
      <trkpt lat="43.41228" lon="6.15085">
        <ele>292.10256958008</ele>
        <time>2014-06-11T13:05:18Z</time>
      </trkpt>
      <trkpt lat="43.41228" lon="6.15085">
        <ele>292.10293579102</ele>
        <time>2014-06-11T13:05:20Z</time>
      </trkpt>
      <trkpt lat="43.41228" lon="6.15085">
        <ele>292.10220336914</ele>
        <time>2014-06-11T13:05:25Z</time>
      </trkpt>
      <trkpt lat="43.41228" lon="6.15085">
        <ele>292.23931884766</ele>
        <time>2014-06-11T13:05:26Z</time>
      </trkpt>
      <trkpt lat="43.41229" lon="6.15086">
        <ele>292.37078857422</ele>
        <time>2014-06-11T13:05:32Z</time>
      </trkpt>
      <trkpt lat="43.41229" lon="6.15086">
        <ele>292.37078857422</ele>
        <time>2014-06-11T13:05:47Z</time>
      </trkpt>
      <trkpt lat="43.41229" lon="6.15086">
        <ele>292.37078857422</ele>
        <time>2014-06-11T13:05:59Z</time>
      </trkpt>
      <trkpt lat="43.41231" lon="6.15086">
        <ele>293.04818725586</ele>
        <time>2014-06-11T13:06:07Z</time>
      </trkpt>
      <trkpt lat="43.41234" lon="6.15087">
        <ele>294.12377929688</ele>
        <time>2014-06-11T13:06:12Z</time>
      </trkpt>
      <trkpt lat="43.41235" lon="6.15087">
        <ele>294.66036987305</ele>
        <time>2014-06-11T13:06:14Z</time>
      </trkpt>
      <trkpt lat="43.41239" lon="6.15087">
        <ele>295.88619995117</ele>
        <time>2014-06-11T13:06:18Z</time>
      </trkpt>
      <trkpt lat="43.41242" lon="6.15088">
        <ele>296.93804931641</ele>
        <time>2014-06-11T13:06:23Z</time>
      </trkpt>
      <trkpt lat="43.41245" lon="6.15089">
        <ele>298.11825561523</ele>
        <time>2014-06-11T13:06:28Z</time>
      </trkpt>
      <trkpt lat="43.41246" lon="6.15089">
        <ele>298.25842285156</ele>
        <time>2014-06-11T13:06:29Z</time>
      </trkpt>
      <trkpt lat="43.41247" lon="6.15089">
        <ele>298.79318237305</ele>
        <time>2014-06-11T13:06:31Z</time>
      </trkpt>
      <trkpt lat="43.41248" lon="6.15089">
        <ele>298.91976928711</ele>
        <time>2014-06-11T13:06:36Z</time>
      </trkpt>
      <trkpt lat="43.4125" lon="6.1509">
        <ele>299.705078125</ele>
        <time>2014-06-11T13:06:43Z</time>
      </trkpt>
      <trkpt lat="43.41254" lon="6.15091">
        <ele>300.19540405273</ele>
        <time>2014-06-11T13:06:47Z</time>
      </trkpt>
      <trkpt lat="43.41259" lon="6.15092">
        <ele>300.71551513672</ele>
        <time>2014-06-11T13:06:51Z</time>
      </trkpt>
      <trkpt lat="43.41261" lon="6.15092">
        <ele>300.91467285156</ele>
        <time>2014-06-11T13:06:53Z</time>
      </trkpt>
      <trkpt lat="43.41266" lon="6.15093">
        <ele>301.42279052734</ele>
        <time>2014-06-11T13:06:58Z</time>
      </trkpt>
      <trkpt lat="43.41267" lon="6.15093">
        <ele>301.53948974609</ele>
        <time>2014-06-11T13:06:59Z</time>
      </trkpt>
      <trkpt lat="43.41269" lon="6.15092">
        <ele>301.77294921875</ele>
        <time>2014-06-11T13:07:01Z</time>
      </trkpt>
      <trkpt lat="43.41278" lon="6.15091">
        <ele>302.70336914062</ele>
        <time>2014-06-11T13:07:10Z</time>
      </trkpt>
      <trkpt lat="43.41281" lon="6.15091">
        <ele>303.24154663086</ele>
        <time>2014-06-11T13:07:13Z</time>
      </trkpt>
      <trkpt lat="43.41285" lon="6.15088">
        <ele>303.83724975586</ele>
        <time>2014-06-11T13:07:17Z</time>
      </trkpt>
      <trkpt lat="43.41297" lon="6.15084">
        <ele>305.72451782227</ele>
        <time>2014-06-11T13:07:28Z</time>
      </trkpt>
      <trkpt lat="43.41301" lon="6.15081">
        <ele>306.3388671875</ele>
        <time>2014-06-11T13:07:33Z</time>
      </trkpt>
      <trkpt lat="43.41304" lon="6.1508">
        <ele>306.72338867188</ele>
        <time>2014-06-11T13:07:35Z</time>
      </trkpt>
      <trkpt lat="43.41307" lon="6.1508">
        <ele>307.16284179688</ele>
        <time>2014-06-11T13:07:37Z</time>
      </trkpt>
      <trkpt lat="43.41319" lon="6.1508">
        <ele>308.86572265625</ele>
        <time>2014-06-11T13:07:46Z</time>
      </trkpt>
      <trkpt lat="43.41321" lon="6.15081">
        <ele>309.25024414062</ele>
        <time>2014-06-11T13:07:48Z</time>
      </trkpt>
      <trkpt lat="43.4133" lon="6.15081">
        <ele>310.45874023438</ele>
        <time>2014-06-11T13:07:53Z</time>
      </trkpt>
      <trkpt lat="43.41331" lon="6.1508">
        <ele>310.67846679688</ele>
        <time>2014-06-11T13:07:54Z</time>
      </trkpt>
      <trkpt lat="43.41336" lon="6.15081">
        <ele>310.70556640625</ele>
        <time>2014-06-11T13:07:58Z</time>
      </trkpt>
      <trkpt lat="43.41343" lon="6.15083">
        <ele>309.96398925781</ele>
        <time>2014-06-11T13:08:03Z</time>
      </trkpt>
      <trkpt lat="43.41346" lon="6.15085">
        <ele>309.66952514648</ele>
        <time>2014-06-11T13:08:05Z</time>
      </trkpt>
      <trkpt lat="43.41347" lon="6.15086">
        <ele>309.59246826172</ele>
        <time>2014-06-11T13:08:07Z</time>
      </trkpt>
      <trkpt lat="43.41347" lon="6.15086">
        <ele>309.59246826172</ele>
        <time>2014-06-11T13:08:32Z</time>
      </trkpt>
      <trkpt lat="43.41347" lon="6.15086">
        <ele>309.59246826172</ele>
        <time>2014-06-11T13:08:45Z</time>
      </trkpt>
      <trkpt lat="43.41347" lon="6.15086">
        <ele>309.60134887695</ele>
        <time>2014-06-11T13:08:51Z</time>
      </trkpt>
      <trkpt lat="43.41349" lon="6.15088">
        <ele>309.41885375977</ele>
        <time>2014-06-11T13:08:53Z</time>
      </trkpt>
      <trkpt lat="43.4136" lon="6.15099">
        <ele>308.08151245117</ele>
        <time>2014-06-11T13:08:58Z</time>
      </trkpt>
      <trkpt lat="43.41362" lon="6.15102">
        <ele>307.41989135742</ele>
        <time>2014-06-11T13:08:59Z</time>
      </trkpt>
      <trkpt lat="43.41367" lon="6.15111">
        <ele>305.08905029297</ele>
        <time>2014-06-11T13:09:01Z</time>
      </trkpt>
      <trkpt lat="43.4137" lon="6.15115">
        <ele>303.69677734375</ele>
        <time>2014-06-11T13:09:02Z</time>
      </trkpt>
      <trkpt lat="43.41373" lon="6.15124">
        <ele>301.27206420898</ele>
        <time>2014-06-11T13:09:04Z</time>
      </trkpt>
      <trkpt lat="43.41379" lon="6.15134">
        <ele>297.52047729492</ele>
        <time>2014-06-11T13:09:06Z</time>
      </trkpt>
      <trkpt lat="43.41386" lon="6.15146">
        <ele>292.99786376953</ele>
        <time>2014-06-11T13:09:08Z</time>
      </trkpt>
      <trkpt lat="43.41399" lon="6.15166">
        <ele>286.40405273438</ele>
        <time>2014-06-11T13:09:12Z</time>
      </trkpt>
      <trkpt lat="43.41405" lon="6.15176">
        <ele>283.98010253906</ele>
        <time>2014-06-11T13:09:14Z</time>
      </trkpt>
      <trkpt lat="43.4141" lon="6.15185">
        <ele>281.56140136719</ele>
        <time>2014-06-11T13:09:16Z</time>
      </trkpt>
      <trkpt lat="43.41414" lon="6.1519">
        <ele>280.16064453125</ele>
        <time>2014-06-11T13:09:17Z</time>
      </trkpt>
      <trkpt lat="43.41417" lon="6.15195">
        <ele>278.86047363281</ele>
        <time>2014-06-11T13:09:18Z</time>
      </trkpt>
      <trkpt lat="43.41432" lon="6.15213">
        <ele>275.72937011719</ele>
        <time>2014-06-11T13:09:22Z</time>
      </trkpt>
      <trkpt lat="43.41435" lon="6.15218">
        <ele>275.07019042969</ele>
        <time>2014-06-11T13:09:23Z</time>
      </trkpt>
      <trkpt lat="43.41438" lon="6.15223">
        <ele>274.3727722168</ele>
        <time>2014-06-11T13:09:24Z</time>
      </trkpt>
      <trkpt lat="43.41442" lon="6.15228">
        <ele>273.92645263672</ele>
        <time>2014-06-11T13:09:25Z</time>
      </trkpt>
      <trkpt lat="43.41447" lon="6.15233">
        <ele>273.130859375</ele>
        <time>2014-06-11T13:09:26Z</time>
      </trkpt>
      <trkpt lat="43.41457" lon="6.15243">
        <ele>271.65939331055</ele>
        <time>2014-06-11T13:09:28Z</time>
      </trkpt>
      <trkpt lat="43.41465" lon="6.15252">
        <ele>270.73275756836</ele>
        <time>2014-06-11T13:09:30Z</time>
      </trkpt>
      <trkpt lat="43.41468" lon="6.15257">
        <ele>270.43432617188</ele>
        <time>2014-06-11T13:09:31Z</time>
      </trkpt>
      <trkpt lat="43.41471" lon="6.15261">
        <ele>270.11935424805</ele>
        <time>2014-06-11T13:09:32Z</time>
      </trkpt>
      <trkpt lat="43.41473" lon="6.15263">
        <ele>269.69750976562</ele>
        <time>2014-06-11T13:09:33Z</time>
      </trkpt>
      <trkpt lat="43.41475" lon="6.15264">
        <ele>269.45718383789</ele>
        <time>2014-06-11T13:09:34Z</time>
      </trkpt>
      <trkpt lat="43.41478" lon="6.15266">
        <ele>269.16192626953</ele>
        <time>2014-06-11T13:09:35Z</time>
      </trkpt>
      <trkpt lat="43.4148" lon="6.15268">
        <ele>268.83920288086</ele>
        <time>2014-06-11T13:09:36Z</time>
      </trkpt>
      <trkpt lat="43.41484" lon="6.1527">
        <ele>268.33108520508</ele>
        <time>2014-06-11T13:09:38Z</time>
      </trkpt>
      <trkpt lat="43.41486" lon="6.15271">
        <ele>268.02896118164</ele>
        <time>2014-06-11T13:09:39Z</time>
      </trkpt>
      <trkpt lat="43.41488" lon="6.15272">
        <ele>267.67535400391</ele>
        <time>2014-06-11T13:09:40Z</time>
      </trkpt>
      <trkpt lat="43.41491" lon="6.15272">
        <ele>267.31829833984</ele>
        <time>2014-06-11T13:09:41Z</time>
      </trkpt>
      <trkpt lat="43.41492" lon="6.15273">
        <ele>267.02301025391</ele>
        <time>2014-06-11T13:09:42Z</time>
      </trkpt>
      <trkpt lat="43.41495" lon="6.15273">
        <ele>266.60760498047</ele>
        <time>2014-06-11T13:09:43Z</time>
      </trkpt>
      <trkpt lat="43.41502" lon="6.15275">
        <ele>265.41665649414</ele>
        <time>2014-06-11T13:09:46Z</time>
      </trkpt>
      <trkpt lat="43.41504" lon="6.15275">
        <ele>265.0041809082</ele>
        <time>2014-06-11T13:09:47Z</time>
      </trkpt>
      <trkpt lat="43.41507" lon="6.15272">
        <ele>264.14855957031</ele>
        <time>2014-06-11T13:09:48Z</time>
      </trkpt>
      <trkpt lat="43.41515" lon="6.15268">
        <ele>261.76315307617</ele>
        <time>2014-06-11T13:09:51Z</time>
      </trkpt>
      <trkpt lat="43.41525" lon="6.15279">
        <ele>260.57803344727</ele>
        <time>2014-06-11T13:09:55Z</time>
      </trkpt>
      <trkpt lat="43.4153" lon="6.15283">
        <ele>259.21997070312</ele>
        <time>2014-06-11T13:09:57Z</time>
      </trkpt>
      <trkpt lat="43.41532" lon="6.15283">
        <ele>258.50842285156</ele>
        <time>2014-06-11T13:09:58Z</time>
      </trkpt>
      <trkpt lat="43.41539" lon="6.15281">
        <ele>255.71395874023</ele>
        <time>2014-06-11T13:10:01Z</time>
      </trkpt>
      <trkpt lat="43.41545" lon="6.1528">
        <ele>253.40219116211</ele>
        <time>2014-06-11T13:10:03Z</time>
      </trkpt>
      <trkpt lat="43.41551" lon="6.15279">
        <ele>250.80934143066</ele>
        <time>2014-06-11T13:10:05Z</time>
      </trkpt>
      <trkpt lat="43.41554" lon="6.15279">
        <ele>249.57925415039</ele>
        <time>2014-06-11T13:10:06Z</time>
      </trkpt>
      <trkpt lat="43.4156" lon="6.15279">
        <ele>248.09312438965</ele>
        <time>2014-06-11T13:10:08Z</time>
      </trkpt>
      <trkpt lat="43.41562" lon="6.15281">
        <ele>247.51977539062</ele>
        <time>2014-06-11T13:10:09Z</time>
      </trkpt>
      <trkpt lat="43.41565" lon="6.15281">
        <ele>246.85716247559</ele>
        <time>2014-06-11T13:10:10Z</time>
      </trkpt>
      <trkpt lat="43.41567" lon="6.15281">
        <ele>246.30097961426</ele>
        <time>2014-06-11T13:10:11Z</time>
      </trkpt>
      <trkpt lat="43.41571" lon="6.1528">
        <ele>245.19204711914</ele>
        <time>2014-06-11T13:10:12Z</time>
      </trkpt>
      <trkpt lat="43.41576" lon="6.15279">
        <ele>244.03848266602</ele>
        <time>2014-06-11T13:10:14Z</time>
      </trkpt>
      <trkpt lat="43.41579" lon="6.15278">
        <ele>243.10807800293</ele>
        <time>2014-06-11T13:10:15Z</time>
      </trkpt>
      <trkpt lat="43.41585" lon="6.15277">
        <ele>241.84536743164</ele>
        <time>2014-06-11T13:10:17Z</time>
      </trkpt>
      <trkpt lat="43.41587" lon="6.15276">
        <ele>241.5977935791</ele>
        <time>2014-06-11T13:10:18Z</time>
      </trkpt>
      <trkpt lat="43.41589" lon="6.15275">
        <ele>241.42362976074</ele>
        <time>2014-06-11T13:10:19Z</time>
      </trkpt>
      <trkpt lat="43.4159" lon="6.15274">
        <ele>241.31111145019</ele>
        <time>2014-06-11T13:10:20Z</time>
      </trkpt>
      <trkpt lat="43.4159" lon="6.15274">
        <ele>241.30332946777</ele>
        <time>2014-06-11T13:10:23Z</time>
      </trkpt>
      <trkpt lat="43.4159" lon="6.15274">
        <ele>241.30332946777</ele>
        <time>2014-06-11T13:10:36Z</time>
      </trkpt>
      <trkpt lat="43.4159" lon="6.15274">
        <ele>241.30332946777</ele>
        <time>2014-06-11T13:10:49Z</time>
      </trkpt>
      <trkpt lat="43.41591" lon="6.15273">
        <ele>241.23095703125</ele>
        <time>2014-06-11T13:10:55Z</time>
      </trkpt>
      <trkpt lat="43.41591" lon="6.15273">
        <ele>241.23095703125</ele>
        <time>2014-06-11T13:10:58Z</time>
      </trkpt>
      <trkpt lat="43.4159" lon="6.15274">
        <ele>241.28219604492</ele>
        <time>2014-06-11T13:11:01Z</time>
      </trkpt>
      <trkpt lat="43.4159" lon="6.15274">
        <ele>241.30766296387</ele>
        <time>2014-06-11T13:11:02Z</time>
      </trkpt>
      <trkpt lat="43.4159" lon="6.15274">
        <ele>241.30766296387</ele>
        <time>2014-06-11T13:11:24Z</time>
      </trkpt>
      <trkpt lat="43.4159" lon="6.15274">
        <ele>241.30766296387</ele>
        <time>2014-06-11T13:11:35Z</time>
      </trkpt>
      <trkpt lat="43.41591" lon="6.15272">
        <ele>241.13415527344</ele>
        <time>2014-06-11T13:11:41Z</time>
      </trkpt>
      <trkpt lat="43.41592" lon="6.15268">
        <ele>240.85377502441</ele>
        <time>2014-06-11T13:11:43Z</time>
      </trkpt>
      <trkpt lat="43.41592" lon="6.15265">
        <ele>240.74974060059</ele>
        <time>2014-06-11T13:11:44Z</time>
      </trkpt>
      <trkpt lat="43.41592" lon="6.15247">
        <ele>240</ele>
        <time>2014-06-11T13:11:50Z</time>
      </trkpt>
      <trkpt lat="43.4159" lon="6.15224">
        <ele>240</ele>
        <time>2014-06-11T13:11:56Z</time>
      </trkpt>
      <trkpt lat="43.41589" lon="6.1522">
        <ele>240</ele>
        <time>2014-06-11T13:11:57Z</time>
      </trkpt>
      <trkpt lat="43.41588" lon="6.15216">
        <ele>240</ele>
        <time>2014-06-11T13:11:58Z</time>
      </trkpt>
      <trkpt lat="43.41587" lon="6.15207">
        <ele>240</ele>
        <time>2014-06-11T13:12:00Z</time>
      </trkpt>
      <trkpt lat="43.41585" lon="6.15197">
        <ele>240</ele>
        <time>2014-06-11T13:12:02Z</time>
      </trkpt>
      <trkpt lat="43.41586" lon="6.15193">
        <ele>240</ele>
        <time>2014-06-11T13:12:03Z</time>
      </trkpt>
      <trkpt lat="43.4159" lon="6.15185">
        <ele>240</ele>
        <time>2014-06-11T13:12:05Z</time>
      </trkpt>
      <trkpt lat="43.41603" lon="6.15164">
        <ele>240</ele>
        <time>2014-06-11T13:12:11Z</time>
      </trkpt>
      <trkpt lat="43.41606" lon="6.15144">
        <ele>240</ele>
        <time>2014-06-11T13:12:15Z</time>
      </trkpt>
      <trkpt lat="43.41605" lon="6.15124">
        <ele>240</ele>
        <time>2014-06-11T13:12:19Z</time>
      </trkpt>
      <trkpt lat="43.41604" lon="6.15107">
        <ele>240</ele>
        <time>2014-06-11T13:12:22Z</time>
      </trkpt>
      <trkpt lat="43.41598" lon="6.15087">
        <ele>240</ele>
        <time>2014-06-11T13:12:26Z</time>
      </trkpt>
      <trkpt lat="43.41596" lon="6.15065">
        <ele>240</ele>
        <time>2014-06-11T13:12:30Z</time>
      </trkpt>
      <trkpt lat="43.41586" lon="6.15051">
        <ele>240</ele>
        <time>2014-06-11T13:12:34Z</time>
      </trkpt>
      <trkpt lat="43.4157" lon="6.15039">
        <ele>240</ele>
        <time>2014-06-11T13:12:39Z</time>
      </trkpt>
      <trkpt lat="43.41558" lon="6.15026">
        <ele>240</ele>
        <time>2014-06-11T13:12:43Z</time>
      </trkpt>
      <trkpt lat="43.41553" lon="6.1502">
        <ele>240.7109375</ele>
        <time>2014-06-11T13:12:45Z</time>
      </trkpt>
      <trkpt lat="43.41551" lon="6.15018">
        <ele>241.19158935547</ele>
        <time>2014-06-11T13:12:46Z</time>
      </trkpt>
      <trkpt lat="43.41547" lon="6.15011">
        <ele>242.2490234375</ele>
        <time>2014-06-11T13:12:49Z</time>
      </trkpt>
      <trkpt lat="43.41544" lon="6.15004">
        <ele>242.82580566406</ele>
        <time>2014-06-11T13:12:52Z</time>
      </trkpt>
      <trkpt lat="43.41544" lon="6.14998">
        <ele>243.01806640625</ele>
        <time>2014-06-11T13:12:54Z</time>
      </trkpt>
      <trkpt lat="43.41544" lon="6.14996">
        <ele>243.01806640625</ele>
        <time>2014-06-11T13:12:55Z</time>
      </trkpt>
      <trkpt lat="43.41542" lon="6.1499">
        <ele>243.30645751953</ele>
        <time>2014-06-11T13:12:57Z</time>
      </trkpt>
      <trkpt lat="43.41542" lon="6.14985">
        <ele>243.30645751953</ele>
        <time>2014-06-11T13:12:59Z</time>
      </trkpt>
      <trkpt lat="43.41541" lon="6.14975">
        <ele>243.787109375</ele>
        <time>2014-06-11T13:13:03Z</time>
      </trkpt>
      <trkpt lat="43.41536" lon="6.14969">
        <ele>244.92207336426</ele>
        <time>2014-06-11T13:13:06Z</time>
      </trkpt>
      <trkpt lat="43.41534" lon="6.14966">
        <ele>245.60646057129</ele>
        <time>2014-06-11T13:13:08Z</time>
      </trkpt>
      <trkpt lat="43.41533" lon="6.14963">
        <ele>245.9817199707</ele>
        <time>2014-06-11T13:13:09Z</time>
      </trkpt>
      <trkpt lat="43.41532" lon="6.14957">
        <ele>246.37419128418</ele>
        <time>2014-06-11T13:13:11Z</time>
      </trkpt>
      <trkpt lat="43.41529" lon="6.14946">
        <ele>247.46533203125</ele>
        <time>2014-06-11T13:13:14Z</time>
      </trkpt>
      <trkpt lat="43.41529" lon="6.14928">
        <ele>246.96963500977</ele>
        <time>2014-06-11T13:13:19Z</time>
      </trkpt>
      <trkpt lat="43.41529" lon="6.1491">
        <ele>246.54116821289</ele>
        <time>2014-06-11T13:13:25Z</time>
      </trkpt>
      <trkpt lat="43.41528" lon="6.14905">
        <ele>246.55464172363</ele>
        <time>2014-06-11T13:13:27Z</time>
      </trkpt>
      <trkpt lat="43.41527" lon="6.14899">
        <ele>246.61010742188</ele>
        <time>2014-06-11T13:13:29Z</time>
      </trkpt>
      <trkpt lat="43.41527" lon="6.14894">
        <ele>246.5622253418</ele>
        <time>2014-06-11T13:13:31Z</time>
      </trkpt>
      <trkpt lat="43.41525" lon="6.14867">
        <ele>247.29577636719</ele>
        <time>2014-06-11T13:13:40Z</time>
      </trkpt>
      <trkpt lat="43.41525" lon="6.14859">
        <ele>247.04844665527</ele>
        <time>2014-06-11T13:13:43Z</time>
      </trkpt>
      <trkpt lat="43.41526" lon="6.14857">
        <ele>246.84127807617</ele>
        <time>2014-06-11T13:13:44Z</time>
      </trkpt>
      <trkpt lat="43.41529" lon="6.14844">
        <ele>246.22911071777</ele>
        <time>2014-06-11T13:13:49Z</time>
      </trkpt>
      <trkpt lat="43.41533" lon="6.14832">
        <ele>245.61358642578</ele>
        <time>2014-06-11T13:13:54Z</time>
      </trkpt>
      <trkpt lat="43.41534" lon="6.14828">
        <ele>245.3251953125</ele>
        <time>2014-06-11T13:13:59Z</time>
      </trkpt>
      <trkpt lat="43.41534" lon="6.14828">
        <ele>245.3251953125</ele>
        <time>2014-06-11T13:14:20Z</time>
      </trkpt>
      <trkpt lat="43.41534" lon="6.14828">
        <ele>245.3251953125</ele>
        <time>2014-06-11T13:15:32Z</time>
      </trkpt>
      <trkpt lat="43.41534" lon="6.14828">
        <ele>245.3251953125</ele>
        <time>2014-06-11T13:16:00Z</time>
      </trkpt>
      <trkpt lat="43.41534" lon="6.14828">
        <ele>245.3251953125</ele>
        <time>2014-06-11T13:16:15Z</time>
      </trkpt>
      <trkpt lat="43.41539" lon="6.14816">
        <ele>244.26776123047</ele>
        <time>2014-06-11T13:16:19Z</time>
      </trkpt>
      <trkpt lat="43.41549" lon="6.14796">
        <ele>241.76837158203</ele>
        <time>2014-06-11T13:16:23Z</time>
      </trkpt>
      <trkpt lat="43.41552" lon="6.1479">
        <ele>240.99932861328</ele>
        <time>2014-06-11T13:16:24Z</time>
      </trkpt>
      <trkpt lat="43.41555" lon="6.14784">
        <ele>240.13415527344</ele>
        <time>2014-06-11T13:16:25Z</time>
      </trkpt>
      <trkpt lat="43.41558" lon="6.14777">
        <ele>240</ele>
        <time>2014-06-11T13:16:26Z</time>
      </trkpt>
      <trkpt lat="43.41562" lon="6.14771">
        <ele>240</ele>
        <time>2014-06-11T13:16:27Z</time>
      </trkpt>
      <trkpt lat="43.41566" lon="6.14765">
        <ele>240</ele>
        <time>2014-06-11T13:16:28Z</time>
      </trkpt>
      <trkpt lat="43.41568" lon="6.14757">
        <ele>240</ele>
        <time>2014-06-11T13:16:29Z</time>
      </trkpt>
      <trkpt lat="43.4157" lon="6.1475">
        <ele>240</ele>
        <time>2014-06-11T13:16:30Z</time>
      </trkpt>
      <trkpt lat="43.41569" lon="6.14742">
        <ele>240</ele>
        <time>2014-06-11T13:16:31Z</time>
      </trkpt>
      <trkpt lat="43.41568" lon="6.14735">
        <ele>240</ele>
        <time>2014-06-11T13:16:32Z</time>
      </trkpt>
      <trkpt lat="43.41569" lon="6.14719">
        <ele>240</ele>
        <time>2014-06-11T13:16:34Z</time>
      </trkpt>
      <trkpt lat="43.41568" lon="6.14711">
        <ele>240</ele>
        <time>2014-06-11T13:16:35Z</time>
      </trkpt>
      <trkpt lat="43.41566" lon="6.14697">
        <ele>240</ele>
        <time>2014-06-11T13:16:37Z</time>
      </trkpt>
      <trkpt lat="43.41562" lon="6.14682">
        <ele>240</ele>
        <time>2014-06-11T13:16:39Z</time>
      </trkpt>
      <trkpt lat="43.41551" lon="6.14657">
        <ele>241.251953125</ele>
        <time>2014-06-11T13:16:45Z</time>
      </trkpt>
      <trkpt lat="43.41543" lon="6.14633">
        <ele>243.6689453125</ele>
        <time>2014-06-11T13:16:50Z</time>
      </trkpt>
      <trkpt lat="43.41543" lon="6.14608">
        <ele>243.56469726562</ele>
        <time>2014-06-11T13:16:54Z</time>
      </trkpt>
      <trkpt lat="43.41542" lon="6.14601">
        <ele>243.44116210938</ele>
        <time>2014-06-11T13:16:55Z</time>
      </trkpt>
      <trkpt lat="43.41542" lon="6.14568">
        <ele>242.65310668945</ele>
        <time>2014-06-11T13:17:00Z</time>
      </trkpt>
      <trkpt lat="43.41543" lon="6.14553">
        <ele>242.14633178711</ele>
        <time>2014-06-11T13:17:02Z</time>
      </trkpt>
      <trkpt lat="43.41544" lon="6.14536">
        <ele>241.43754577637</ele>
        <time>2014-06-11T13:17:04Z</time>
      </trkpt>
      <trkpt lat="43.41544" lon="6.14519">
        <ele>241.11640930176</ele>
        <time>2014-06-11T13:17:06Z</time>
      </trkpt>
      <trkpt lat="43.41544" lon="6.14502">
        <ele>240.89039611816</ele>
        <time>2014-06-11T13:17:08Z</time>
      </trkpt>
      <trkpt lat="43.41542" lon="6.14466">
        <ele>240</ele>
        <time>2014-06-11T13:17:12Z</time>
      </trkpt>
      <trkpt lat="43.41544" lon="6.14437">
        <ele>239.84036254883</ele>
        <time>2014-06-11T13:17:16Z</time>
      </trkpt>
      <trkpt lat="43.41546" lon="6.1443">
        <ele>239.65573120117</ele>
        <time>2014-06-11T13:17:17Z</time>
      </trkpt>
      <trkpt lat="43.41556" lon="6.14385">
        <ele>239</ele>
        <time>2014-06-11T13:17:22Z</time>
      </trkpt>
      <trkpt lat="43.41558" lon="6.14375">
        <ele>239</ele>
        <time>2014-06-11T13:17:23Z</time>
      </trkpt>
      <trkpt lat="43.41559" lon="6.14365">
        <ele>239</ele>
        <time>2014-06-11T13:17:24Z</time>
      </trkpt>
      <trkpt lat="43.41561" lon="6.14355">
        <ele>239</ele>
        <time>2014-06-11T13:17:25Z</time>
      </trkpt>
      <trkpt lat="43.41563" lon="6.14345">
        <ele>239</ele>
        <time>2014-06-11T13:17:26Z</time>
      </trkpt>
      <trkpt lat="43.41565" lon="6.14336">
        <ele>239</ele>
        <time>2014-06-11T13:17:27Z</time>
      </trkpt>
      <trkpt lat="43.41572" lon="6.14293">
        <ele>239</ele>
        <time>2014-06-11T13:17:32Z</time>
      </trkpt>
      <trkpt lat="43.41573" lon="6.1428">
        <ele>239</ele>
        <time>2014-06-11T13:17:34Z</time>
      </trkpt>
      <trkpt lat="43.41576" lon="6.1427">
        <ele>239</ele>
        <time>2014-06-11T13:17:36Z</time>
      </trkpt>
      <trkpt lat="43.41583" lon="6.14245">
        <ele>239.00297546387</ele>
        <time>2014-06-11T13:17:40Z</time>
      </trkpt>
      <trkpt lat="43.41587" lon="6.1423">
        <ele>238.91525268555</ele>
        <time>2014-06-11T13:17:42Z</time>
      </trkpt>
      <trkpt lat="43.4159" lon="6.14218">
        <ele>238.76947021484</ele>
        <time>2014-06-11T13:17:44Z</time>
      </trkpt>
      <trkpt lat="43.4159" lon="6.14212">
        <ele>238.76947021484</ele>
        <time>2014-06-11T13:17:45Z</time>
      </trkpt>
      <trkpt lat="43.41584" lon="6.14193">
        <ele>238.96173095703</ele>
        <time>2014-06-11T13:17:49Z</time>
      </trkpt>
      <trkpt lat="43.41582" lon="6.14174">
        <ele>239.16542053223</ele>
        <time>2014-06-11T13:17:53Z</time>
      </trkpt>
      <trkpt lat="43.41582" lon="6.1417">
        <ele>239.17543029785</ele>
        <time>2014-06-11T13:17:54Z</time>
      </trkpt>
      <trkpt lat="43.41582" lon="6.1415">
        <ele>239.25511169434</ele>
        <time>2014-06-11T13:17:59Z</time>
      </trkpt>
      <trkpt lat="43.41582" lon="6.14146">
        <ele>239.27098083496</ele>
        <time>2014-06-11T13:18:02Z</time>
      </trkpt>
      <trkpt lat="43.41582" lon="6.14146">
        <ele>239.27098083496</ele>
        <time>2014-06-11T13:18:28Z</time>
      </trkpt>
      <trkpt lat="43.41582" lon="6.14146">
        <ele>239.27098083496</ele>
        <time>2014-06-11T13:18:41Z</time>
      </trkpt>
      <trkpt lat="43.41582" lon="6.14146">
        <ele>239.39643859863</ele>
        <time>2014-06-11T13:18:51Z</time>
      </trkpt>
      <trkpt lat="43.41582" lon="6.14146">
        <ele>239.39643859863</ele>
        <time>2014-06-11T13:19:09Z</time>
      </trkpt>
      <trkpt lat="43.41582" lon="6.14146">
        <ele>239.39643859863</ele>
        <time>2014-06-11T13:19:24Z</time>
      </trkpt>
      <trkpt lat="43.41582" lon="6.14146">
        <ele>239.27494812012</ele>
        <time>2014-06-11T13:19:35Z</time>
      </trkpt>
      <trkpt lat="43.41582" lon="6.14142">
        <ele>239.2889251709</ele>
        <time>2014-06-11T13:19:37Z</time>
      </trkpt>
      <trkpt lat="43.41583" lon="6.14135">
        <ele>239.30178833008</ele>
        <time>2014-06-11T13:19:40Z</time>
      </trkpt>
      <trkpt lat="43.41586" lon="6.14114">
        <ele>239.81829833984</ele>
        <time>2014-06-11T13:19:47Z</time>
      </trkpt>
      <trkpt lat="43.41592" lon="6.14094">
        <ele>243.56629943848</ele>
        <time>2014-06-11T13:19:52Z</time>
      </trkpt>
      <trkpt lat="43.41607" lon="6.14071">
        <ele>242.05897521973</ele>
        <time>2014-06-11T13:19:57Z</time>
      </trkpt>
      <trkpt lat="43.4161" lon="6.14068">
        <ele>240.94691467285</ele>
        <time>2014-06-11T13:19:58Z</time>
      </trkpt>
      <trkpt lat="43.41615" lon="6.14064">
        <ele>240.67172241211</ele>
        <time>2014-06-11T13:19:59Z</time>
      </trkpt>
      <trkpt lat="43.41619" lon="6.14059">
        <ele>240.54638671875</ele>
        <time>2014-06-11T13:20:00Z</time>
      </trkpt>
      <trkpt lat="43.41624" lon="6.14053">
        <ele>240.68190002441</ele>
        <time>2014-06-11T13:20:01Z</time>
      </trkpt>
      <trkpt lat="43.41629" lon="6.14047">
        <ele>240.81520080566</ele>
        <time>2014-06-11T13:20:02Z</time>
      </trkpt>
      <trkpt lat="43.41633" lon="6.1404">
        <ele>240.59948730469</ele>
        <time>2014-06-11T13:20:03Z</time>
      </trkpt>
      <trkpt lat="43.41638" lon="6.14034">
        <ele>239.88801574707</ele>
        <time>2014-06-11T13:20:04Z</time>
      </trkpt>
      <trkpt lat="43.41642" lon="6.14028">
        <ele>239.49078369141</ele>
        <time>2014-06-11T13:20:05Z</time>
      </trkpt>
      <trkpt lat="43.41647" lon="6.14021">
        <ele>239.69400024414</ele>
        <time>2014-06-11T13:20:06Z</time>
      </trkpt>
      <trkpt lat="43.41655" lon="6.14009">
        <ele>239.62557983398</ele>
        <time>2014-06-11T13:20:08Z</time>
      </trkpt>
      <trkpt lat="43.41666" lon="6.13994">
        <ele>239.15316772461</ele>
        <time>2014-06-11T13:20:11Z</time>
      </trkpt>
      <trkpt lat="43.41673" lon="6.13981">
        <ele>239.87010192871</ele>
        <time>2014-06-11T13:20:13Z</time>
      </trkpt>
      <trkpt lat="43.41686" lon="6.1397">
        <ele>238.42568969727</ele>
        <time>2014-06-11T13:20:16Z</time>
      </trkpt>
      <trkpt lat="43.41691" lon="6.13967">
        <ele>237.57669067383</ele>
        <time>2014-06-11T13:20:17Z</time>
      </trkpt>
      <trkpt lat="43.41696" lon="6.13962">
        <ele>237.11795043945</ele>
        <time>2014-06-11T13:20:18Z</time>
      </trkpt>
      <trkpt lat="43.41707" lon="6.13945">
        <ele>235.76156616211</ele>
        <time>2014-06-11T13:20:21Z</time>
      </trkpt>
      <trkpt lat="43.41717" lon="6.13929">
        <ele>233.64280700684</ele>
        <time>2014-06-11T13:20:24Z</time>
      </trkpt>
      <trkpt lat="43.4174" lon="6.13902">
        <ele>229.88850402832</ele>
        <time>2014-06-11T13:20:30Z</time>
      </trkpt>
      <trkpt lat="43.41746" lon="6.13891">
        <ele>228.93597412109</ele>
        <time>2014-06-11T13:20:32Z</time>
      </trkpt>
      <trkpt lat="43.41749" lon="6.13881">
        <ele>229.19107055664</ele>
        <time>2014-06-11T13:20:34Z</time>
      </trkpt>
      <trkpt lat="43.41753" lon="6.1387">
        <ele>228.86077880859</ele>
        <time>2014-06-11T13:20:37Z</time>
      </trkpt>
      <trkpt lat="43.41756" lon="6.13864">
        <ele>228.46769714356</ele>
        <time>2014-06-11T13:20:39Z</time>
      </trkpt>
      <trkpt lat="43.41758" lon="6.13855">
        <ele>228.16065979004</ele>
        <time>2014-06-11T13:20:42Z</time>
      </trkpt>
      <trkpt lat="43.4176" lon="6.13845">
        <ele>227.84642028809</ele>
        <time>2014-06-11T13:20:45Z</time>
      </trkpt>
      <trkpt lat="43.41767" lon="6.13822">
        <ele>226.50875854492</ele>
        <time>2014-06-11T13:20:51Z</time>
      </trkpt>
      <trkpt lat="43.41775" lon="6.13792">
        <ele>227.13104248047</ele>
        <time>2014-06-11T13:20:58Z</time>
      </trkpt>
      <trkpt lat="43.41783" lon="6.13774">
        <ele>226.76232910156</ele>
        <time>2014-06-11T13:21:02Z</time>
      </trkpt>
      <trkpt lat="43.41787" lon="6.13772">
        <ele>225.75622558594</ele>
        <time>2014-06-11T13:21:03Z</time>
      </trkpt>
      <trkpt lat="43.41797" lon="6.13763">
        <ele>223.01489257812</ele>
        <time>2014-06-11T13:21:06Z</time>
      </trkpt>
      <trkpt lat="43.41798" lon="6.13756">
        <ele>222.94219970703</ele>
        <time>2014-06-11T13:21:07Z</time>
      </trkpt>
      <trkpt lat="43.41798" lon="6.13749">
        <ele>223.00024414062</ele>
        <time>2014-06-11T13:21:08Z</time>
      </trkpt>
      <trkpt lat="43.41799" lon="6.13735">
        <ele>222.90960693359</ele>
        <time>2014-06-11T13:21:10Z</time>
      </trkpt>
      <trkpt lat="43.41804" lon="6.13712">
        <ele>222.34526062012</ele>
        <time>2014-06-11T13:21:13Z</time>
      </trkpt>
      <trkpt lat="43.41805" lon="6.13704">
        <ele>222.92324829102</ele>
        <time>2014-06-11T13:21:14Z</time>
      </trkpt>
      <trkpt lat="43.41805" lon="6.13696">
        <ele>223.90419006348</ele>
        <time>2014-06-11T13:21:15Z</time>
      </trkpt>
      <trkpt lat="43.41806" lon="6.13688">
        <ele>223.98657226562</ele>
        <time>2014-06-11T13:21:16Z</time>
      </trkpt>
      <trkpt lat="43.41807" lon="6.13679">
        <ele>223.82177734375</ele>
        <time>2014-06-11T13:21:17Z</time>
      </trkpt>
      <trkpt lat="43.41817" lon="6.13659">
        <ele>222.66937255859</ele>
        <time>2014-06-11T13:21:20Z</time>
      </trkpt>
      <trkpt lat="43.41829" lon="6.13642">
        <ele>220.99761962891</ele>
        <time>2014-06-11T13:21:23Z</time>
      </trkpt>
      <trkpt lat="43.41829" lon="6.1362">
        <ele>220.95361328125</ele>
        <time>2014-06-11T13:21:26Z</time>
      </trkpt>
      <trkpt lat="43.41835" lon="6.13603">
        <ele>220</ele>
        <time>2014-06-11T13:21:29Z</time>
      </trkpt>
      <trkpt lat="43.41837" lon="6.13597">
        <ele>220</ele>
        <time>2014-06-11T13:21:30Z</time>
      </trkpt>
      <trkpt lat="43.41843" lon="6.13586">
        <ele>220</ele>
        <time>2014-06-11T13:21:32Z</time>
      </trkpt>
      <trkpt lat="43.41854" lon="6.13571">
        <ele>220.22036743164</ele>
        <time>2014-06-11T13:21:36Z</time>
      </trkpt>
      <trkpt lat="43.41856" lon="6.13568">
        <ele>220.18353271484</ele>
        <time>2014-06-11T13:21:37Z</time>
      </trkpt>
      <trkpt lat="43.41862" lon="6.13548">
        <ele>220</ele>
        <time>2014-06-11T13:21:41Z</time>
      </trkpt>
      <trkpt lat="43.4187" lon="6.13508">
        <ele>220</ele>
        <time>2014-06-11T13:21:48Z</time>
      </trkpt>
      <trkpt lat="43.41873" lon="6.1349">
        <ele>220</ele>
        <time>2014-06-11T13:21:51Z</time>
      </trkpt>
      <trkpt lat="43.41875" lon="6.13477">
        <ele>220</ele>
        <time>2014-06-11T13:21:53Z</time>
      </trkpt>
      <trkpt lat="43.41883" lon="6.13453">
        <ele>220</ele>
        <time>2014-06-11T13:21:57Z</time>
      </trkpt>
      <trkpt lat="43.41887" lon="6.13441">
        <ele>220</ele>
        <time>2014-06-11T13:21:59Z</time>
      </trkpt>
      <trkpt lat="43.4189" lon="6.13421">
        <ele>220</ele>
        <time>2014-06-11T13:22:02Z</time>
      </trkpt>
      <trkpt lat="43.4189" lon="6.13415">
        <ele>220</ele>
        <time>2014-06-11T13:22:03Z</time>
      </trkpt>
      <trkpt lat="43.41894" lon="6.13379">
        <ele>220</ele>
        <time>2014-06-11T13:22:10Z</time>
      </trkpt>
      <trkpt lat="43.41895" lon="6.13374">
        <ele>220</ele>
        <time>2014-06-11T13:22:11Z</time>
      </trkpt>
      <trkpt lat="43.41895" lon="6.13369">
        <ele>220</ele>
        <time>2014-06-11T13:22:12Z</time>
      </trkpt>
      <trkpt lat="43.41895" lon="6.13364">
        <ele>220</ele>
        <time>2014-06-11T13:22:13Z</time>
      </trkpt>
      <trkpt lat="43.41888" lon="6.13346">
        <ele>220.06066894531</ele>
        <time>2014-06-11T13:22:17Z</time>
      </trkpt>
      <trkpt lat="43.41884" lon="6.13322">
        <ele>220.4338684082</ele>
        <time>2014-06-11T13:22:22Z</time>
      </trkpt>
      <trkpt lat="43.41885" lon="6.13306">
        <ele>220.41932678223</ele>
        <time>2014-06-11T13:22:26Z</time>
      </trkpt>
      <trkpt lat="43.41882" lon="6.13285">
        <ele>220.708984375</ele>
        <time>2014-06-11T13:22:31Z</time>
      </trkpt>
      <trkpt lat="43.41878" lon="6.13268">
        <ele>221.34465026856</ele>
        <time>2014-06-11T13:22:35Z</time>
      </trkpt>
      <trkpt lat="43.41878" lon="6.13263">
        <ele>221.36312866211</ele>
        <time>2014-06-11T13:22:39Z</time>
      </trkpt>
      <trkpt lat="43.41878" lon="6.13263">
        <ele>221.36312866211</ele>
        <time>2014-06-11T13:23:02Z</time>
      </trkpt>
      <trkpt lat="43.41878" lon="6.13263">
        <ele>221.36312866211</ele>
        <time>2014-06-11T13:23:17Z</time>
      </trkpt>
      <trkpt lat="43.4188" lon="6.13258">
        <ele>221.23545837402</ele>
        <time>2014-06-11T13:23:24Z</time>
      </trkpt>
      <trkpt lat="43.41884" lon="6.13238">
        <ele>220.7255859375</ele>
        <time>2014-06-11T13:23:30Z</time>
      </trkpt>
      <trkpt lat="43.41886" lon="6.13223">
        <ele>220.45092773438</ele>
        <time>2014-06-11T13:23:34Z</time>
      </trkpt>
      <trkpt lat="43.41887" lon="6.13212">
        <ele>220.31340026856</ele>
        <time>2014-06-11T13:23:37Z</time>
      </trkpt>
      <trkpt lat="43.41888" lon="6.13193">
        <ele>220.15167236328</ele>
        <time>2014-06-11T13:23:44Z</time>
      </trkpt>
      <trkpt lat="43.41887" lon="6.13168">
        <ele>220.28900146484</ele>
        <time>2014-06-11T13:23:50Z</time>
      </trkpt>
      <trkpt lat="43.41886" lon="6.13142">
        <ele>220.49499511719</ele>
        <time>2014-06-11T13:23:56Z</time>
      </trkpt>
      <trkpt lat="43.41885" lon="6.13118">
        <ele>220.80651855469</ele>
        <time>2014-06-11T13:24:03Z</time>
      </trkpt>
      <trkpt lat="43.41885" lon="6.13093">
        <ele>220.84118652344</ele>
        <time>2014-06-11T13:24:09Z</time>
      </trkpt>
      <trkpt lat="43.41885" lon="6.13073">
        <ele>220.80598449707</ele>
        <time>2014-06-11T13:24:14Z</time>
      </trkpt>
      <trkpt lat="43.41891" lon="6.1304">
        <ele>220</ele>
        <time>2014-06-11T13:24:21Z</time>
      </trkpt>
      <trkpt lat="43.41901" lon="6.13007">
        <ele>220</ele>
        <time>2014-06-11T13:24:27Z</time>
      </trkpt>
      <trkpt lat="43.41901" lon="6.12994">
        <ele>220</ele>
        <time>2014-06-11T13:24:29Z</time>
      </trkpt>
      <trkpt lat="43.41901" lon="6.12988">
        <ele>220</ele>
        <time>2014-06-11T13:24:30Z</time>
      </trkpt>
      <trkpt lat="43.41902" lon="6.12982">
        <ele>220</ele>
        <time>2014-06-11T13:24:31Z</time>
      </trkpt>
      <trkpt lat="43.41911" lon="6.12959">
        <ele>219.63154602051</ele>
        <time>2014-06-11T13:24:36Z</time>
      </trkpt>
      <trkpt lat="43.41913" lon="6.12937">
        <ele>218.92039489746</ele>
        <time>2014-06-11T13:24:41Z</time>
      </trkpt>
      <trkpt lat="43.41914" lon="6.12908">
        <ele>218.27317810059</ele>
        <time>2014-06-11T13:24:46Z</time>
      </trkpt>
      <trkpt lat="43.41916" lon="6.12896">
        <ele>218.15531921387</ele>
        <time>2014-06-11T13:24:48Z</time>
      </trkpt>
      <trkpt lat="43.41916" lon="6.12876">
        <ele>218.13652038574</ele>
        <time>2014-06-11T13:24:51Z</time>
      </trkpt>
      <trkpt lat="43.41917" lon="6.12856">
        <ele>217.97088623047</ele>
        <time>2014-06-11T13:24:54Z</time>
      </trkpt>
      <trkpt lat="43.41919" lon="6.12837">
        <ele>217.76368713379</ele>
        <time>2014-06-11T13:24:57Z</time>
      </trkpt>
      <trkpt lat="43.4192" lon="6.1283">
        <ele>217.78999328613</ele>
        <time>2014-06-11T13:24:58Z</time>
      </trkpt>
      <trkpt lat="43.41919" lon="6.12823">
        <ele>218.03945922852</ele>
        <time>2014-06-11T13:24:59Z</time>
      </trkpt>
      <trkpt lat="43.41919" lon="6.12816">
        <ele>218.31411743164</ele>
        <time>2014-06-11T13:25:00Z</time>
      </trkpt>
      <trkpt lat="43.41918" lon="6.12797">
        <ele>218.46765136719</ele>
        <time>2014-06-11T13:25:03Z</time>
      </trkpt>
      <trkpt lat="43.41919" lon="6.1279">
        <ele>218.1174621582</ele>
        <time>2014-06-11T13:25:04Z</time>
      </trkpt>
      <trkpt lat="43.41921" lon="6.1273">
        <ele>220.29681396484</ele>
        <time>2014-06-11T13:25:14Z</time>
      </trkpt>
      <trkpt lat="43.41925" lon="6.12721">
        <ele>219.59977722168</ele>
        <time>2014-06-11T13:25:16Z</time>
      </trkpt>
      <trkpt lat="43.4193" lon="6.12712">
        <ele>218.29219055176</ele>
        <time>2014-06-11T13:25:18Z</time>
      </trkpt>
      <trkpt lat="43.41936" lon="6.12692">
        <ele>215.77877807617</ele>
        <time>2014-06-11T13:25:22Z</time>
      </trkpt>
      <trkpt lat="43.41946" lon="6.12659">
        <ele>211.60687255859</ele>
        <time>2014-06-11T13:25:28Z</time>
      </trkpt>
      <trkpt lat="43.41961" lon="6.12621">
        <ele>205.03561401367</ele>
        <time>2014-06-11T13:25:35Z</time>
      </trkpt>
      <trkpt lat="43.41975" lon="6.1259">
        <ele>200</ele>
        <time>2014-06-11T13:25:41Z</time>
      </trkpt>
      <trkpt lat="43.4198" lon="6.12555">
        <ele>203.69508361816</ele>
        <time>2014-06-11T13:25:46Z</time>
      </trkpt>
      <trkpt lat="43.41987" lon="6.12545">
        <ele>202.53004455566</ele>
        <time>2014-06-11T13:25:48Z</time>
      </trkpt>
      <trkpt lat="43.42006" lon="6.12515">
        <ele>199</ele>
        <time>2014-06-11T13:25:54Z</time>
      </trkpt>
      <trkpt lat="43.42013" lon="6.12499">
        <ele>199.01481628418</ele>
        <time>2014-06-11T13:25:57Z</time>
      </trkpt>
      <trkpt lat="43.42022" lon="6.12453">
        <ele>199.49674987793</ele>
        <time>2014-06-11T13:26:03Z</time>
      </trkpt>
      <trkpt lat="43.42024" lon="6.12446">
        <ele>199.40818786621</ele>
        <time>2014-06-11T13:26:04Z</time>
      </trkpt>
      <trkpt lat="43.42027" lon="6.12439">
        <ele>199.16429138184</ele>
        <time>2014-06-11T13:26:05Z</time>
      </trkpt>
      <trkpt lat="43.4203" lon="6.12431">
        <ele>199</ele>
        <time>2014-06-11T13:26:06Z</time>
      </trkpt>
      <trkpt lat="43.42033" lon="6.12424">
        <ele>199</ele>
        <time>2014-06-11T13:26:07Z</time>
      </trkpt>
      <trkpt lat="43.42046" lon="6.12396">
        <ele>199</ele>
        <time>2014-06-11T13:26:11Z</time>
      </trkpt>
      <trkpt lat="43.42057" lon="6.1238">
        <ele>199</ele>
        <time>2014-06-11T13:26:14Z</time>
      </trkpt>
      <trkpt lat="43.4206" lon="6.12374">
        <ele>199</ele>
        <time>2014-06-11T13:26:15Z</time>
      </trkpt>
      <trkpt lat="43.42066" lon="6.12364">
        <ele>199</ele>
        <time>2014-06-11T13:26:17Z</time>
      </trkpt>
      <trkpt lat="43.42085" lon="6.12336">
        <ele>198.93653869629</ele>
        <time>2014-06-11T13:26:24Z</time>
      </trkpt>
      <trkpt lat="43.42088" lon="6.12332">
        <ele>198.82218933106</ele>
        <time>2014-06-11T13:26:25Z</time>
      </trkpt>
      <trkpt lat="43.42089" lon="6.12327">
        <ele>198.62712097168</ele>
        <time>2014-06-11T13:26:27Z</time>
      </trkpt>
      <trkpt lat="43.42091" lon="6.12325">
        <ele>198.49140930176</ele>
        <time>2014-06-11T13:26:29Z</time>
      </trkpt>
      <trkpt lat="43.42096" lon="6.12321">
        <ele>198.30493164062</ele>
        <time>2014-06-11T13:26:31Z</time>
      </trkpt>
      <trkpt lat="43.4211" lon="6.12308">
        <ele>198.00234985352</ele>
        <time>2014-06-11T13:26:36Z</time>
      </trkpt>
      <trkpt lat="43.42131" lon="6.1229">
        <ele>198</ele>
        <time>2014-06-11T13:26:43Z</time>
      </trkpt>
      <trkpt lat="43.42144" lon="6.12271">
        <ele>197.60882568359</ele>
        <time>2014-06-11T13:26:48Z</time>
      </trkpt>
      <trkpt lat="43.42147" lon="6.12266">
        <ele>197.40014648438</ele>
        <time>2014-06-11T13:26:49Z</time>
      </trkpt>
      <trkpt lat="43.42164" lon="6.12252">
        <ele>197.00833129883</ele>
        <time>2014-06-11T13:26:53Z</time>
      </trkpt>
      <trkpt lat="43.42196" lon="6.12228">
        <ele>196.15802001953</ele>
        <time>2014-06-11T13:27:00Z</time>
      </trkpt>
      <trkpt lat="43.42202" lon="6.12226">
        <ele>195.88851928711</ele>
        <time>2014-06-11T13:27:01Z</time>
      </trkpt>
      <trkpt lat="43.42228" lon="6.12215">
        <ele>195</ele>
        <time>2014-06-11T13:27:06Z</time>
      </trkpt>
      <trkpt lat="43.42238" lon="6.12209">
        <ele>195</ele>
        <time>2014-06-11T13:27:08Z</time>
      </trkpt>
      <trkpt lat="43.42249" lon="6.12204">
        <ele>195</ele>
        <time>2014-06-11T13:27:10Z</time>
      </trkpt>
      <trkpt lat="43.42254" lon="6.12201">
        <ele>194.89495849609</ele>
        <time>2014-06-11T13:27:11Z</time>
      </trkpt>
      <trkpt lat="43.4227" lon="6.12193">
        <ele>194.20294189453</ele>
        <time>2014-06-11T13:27:14Z</time>
      </trkpt>
      <trkpt lat="43.42306" lon="6.12174">
        <ele>192.53355407715</ele>
        <time>2014-06-11T13:27:21Z</time>
      </trkpt>
      <trkpt lat="43.4231" lon="6.12172">
        <ele>192.20739746094</ele>
        <time>2014-06-11T13:27:22Z</time>
      </trkpt>
      <trkpt lat="43.42319" lon="6.12167">
        <ele>191.5447845459</ele>
        <time>2014-06-11T13:27:24Z</time>
      </trkpt>
      <trkpt lat="43.42323" lon="6.12165">
        <ele>191.34031677246</ele>
        <time>2014-06-11T13:27:25Z</time>
      </trkpt>
      <trkpt lat="43.42328" lon="6.12162">
        <ele>191.16377258301</ele>
        <time>2014-06-11T13:27:26Z</time>
      </trkpt>
      <trkpt lat="43.42332" lon="6.1216">
        <ele>191.04554748535</ele>
        <time>2014-06-11T13:27:27Z</time>
      </trkpt>
      <trkpt lat="43.42346" lon="6.12152">
        <ele>191</ele>
        <time>2014-06-11T13:27:32Z</time>
      </trkpt>
      <trkpt lat="43.42347" lon="6.12151">
        <ele>191</ele>
        <time>2014-06-11T13:27:33Z</time>
      </trkpt>
      <trkpt lat="43.42354" lon="6.12146">
        <ele>191</ele>
        <time>2014-06-11T13:27:37Z</time>
      </trkpt>
      <trkpt lat="43.42361" lon="6.1214">
        <ele>191</ele>
        <time>2014-06-11T13:27:42Z</time>
      </trkpt>
      <trkpt lat="43.42364" lon="6.12138">
        <ele>191</ele>
        <time>2014-06-11T13:27:45Z</time>
      </trkpt>
      <trkpt lat="43.42366" lon="6.12136">
        <ele>191</ele>
        <time>2014-06-11T13:27:47Z</time>
      </trkpt>
      <trkpt lat="43.42368" lon="6.12135">
        <ele>191</ele>
        <time>2014-06-11T13:27:49Z</time>
      </trkpt>
      <trkpt lat="43.42375" lon="6.12131">
        <ele>191</ele>
        <time>2014-06-11T13:27:54Z</time>
      </trkpt>
      <trkpt lat="43.42384" lon="6.12126">
        <ele>191</ele>
        <time>2014-06-11T13:28:00Z</time>
      </trkpt>
      <trkpt lat="43.4239" lon="6.12119">
        <ele>191.09573364258</ele>
        <time>2014-06-11T13:28:04Z</time>
      </trkpt>
      <trkpt lat="43.42401" lon="6.12104">
        <ele>192.38008117676</ele>
        <time>2014-06-11T13:28:13Z</time>
      </trkpt>
      <trkpt lat="43.42403" lon="6.12098">
        <ele>193.00492858887</ele>
        <time>2014-06-11T13:28:16Z</time>
      </trkpt>
      <trkpt lat="43.42408" lon="6.1209">
        <ele>193.91473388672</ele>
        <time>2014-06-11T13:28:20Z</time>
      </trkpt>
      <trkpt lat="43.42411" lon="6.12085">
        <ele>194.47434997559</ele>
        <time>2014-06-11T13:28:22Z</time>
      </trkpt>
      <trkpt lat="43.42414" lon="6.12081">
        <ele>194.9260559082</ele>
        <time>2014-06-11T13:28:25Z</time>
      </trkpt>
      <trkpt lat="43.42414" lon="6.1208">
        <ele>194.97067260742</ele>
        <time>2014-06-11T13:28:27Z</time>
      </trkpt>
      <trkpt lat="43.42414" lon="6.1208">
        <ele>194.97067260742</ele>
        <time>2014-06-11T13:28:31Z</time>
      </trkpt>
      <trkpt lat="43.42415" lon="6.12079">
        <ele>195.01187133789</ele>
        <time>2014-06-11T13:28:32Z</time>
      </trkpt>
      <trkpt lat="43.42415" lon="6.12079">
        <ele>195.02389526367</ele>
        <time>2014-06-11T13:28:35Z</time>
      </trkpt>
      <trkpt lat="43.42416" lon="6.12079">
        <ele>195.12518310547</ele>
        <time>2014-06-11T13:28:39Z</time>
      </trkpt>
      <trkpt lat="43.42417" lon="6.12079">
        <ele>195.15663146973</ele>
        <time>2014-06-11T13:28:47Z</time>
      </trkpt>
      <trkpt lat="43.42419" lon="6.1208">
        <ele>195.34501647949</ele>
        <time>2014-06-11T13:28:48Z</time>
      </trkpt>
      <trkpt lat="43.42419" lon="6.12081">
        <ele>195.29164123535</ele>
        <time>2014-06-11T13:28:49Z</time>
      </trkpt>
      <trkpt lat="43.4242" lon="6.12085">
        <ele>195.23919677734</ele>
        <time>2014-06-11T13:28:51Z</time>
      </trkpt>
      <trkpt lat="43.42421" lon="6.12086">
        <ele>195.25411987305</ele>
        <time>2014-06-11T13:28:52Z</time>
      </trkpt>
      <trkpt lat="43.42421" lon="6.12088">
        <ele>195.14640808106</ele>
        <time>2014-06-11T13:28:54Z</time>
      </trkpt>
      <trkpt lat="43.42421" lon="6.12088">
        <ele>195.14007568359</ele>
        <time>2014-06-11T13:28:57Z</time>
      </trkpt>
      <trkpt lat="43.42421" lon="6.12088">
        <ele>195.14007568359</ele>
        <time>2014-06-11T13:29:08Z</time>
      </trkpt>
      <trkpt lat="43.42421" lon="6.12089">
        <ele>195.15852355957</ele>
        <time>2014-06-11T13:29:15Z</time>
      </trkpt>
      <trkpt lat="43.42421" lon="6.12089">
        <ele>195.15852355957</ele>
        <time>2014-06-11T13:29:29Z</time>
      </trkpt>
      <trkpt lat="43.42421" lon="6.12089">
        <ele>195.11764526367</ele>
        <time>2014-06-11T13:30:03Z</time>
      </trkpt>
      <trkpt lat="43.42421" lon="6.12089">
        <ele>195.11764526367</ele>
        <time>2014-06-11T13:30:14Z</time>
      </trkpt>
      <trkpt lat="43.42421" lon="6.12088">
        <ele>195.21826171875</ele>
        <time>2014-06-11T13:30:22Z</time>
      </trkpt>
      <trkpt lat="43.42422" lon="6.12084">
        <ele>195.51438903809</ele>
        <time>2014-06-11T13:30:24Z</time>
      </trkpt>
      <trkpt lat="43.4242" lon="6.12075">
        <ele>195.67041015625</ele>
        <time>2014-06-11T13:30:27Z</time>
      </trkpt>
      <trkpt lat="43.42413" lon="6.12061">
        <ele>195.52857971191</ele>
        <time>2014-06-11T13:30:31Z</time>
      </trkpt>
      <trkpt lat="43.4241" lon="6.12054">
        <ele>195.54231262207</ele>
        <time>2014-06-11T13:30:33Z</time>
      </trkpt>
      <trkpt lat="43.42398" lon="6.12024">
        <ele>195.79809570312</ele>
        <time>2014-06-11T13:30:41Z</time>
      </trkpt>
      <trkpt lat="43.42392" lon="6.11999">
        <ele>196.21694946289</ele>
        <time>2014-06-11T13:30:47Z</time>
      </trkpt>
      <trkpt lat="43.42385" lon="6.11974">
        <ele>196.7790222168</ele>
        <time>2014-06-11T13:30:53Z</time>
      </trkpt>
      <trkpt lat="43.42379" lon="6.11948">
        <ele>197.50686645508</ele>
        <time>2014-06-11T13:31:00Z</time>
      </trkpt>
      <trkpt lat="43.42372" lon="6.11921">
        <ele>198.24844360352</ele>
        <time>2014-06-11T13:31:07Z</time>
      </trkpt>
      <trkpt lat="43.42365" lon="6.11896">
        <ele>198.90589904785</ele>
        <time>2014-06-11T13:31:14Z</time>
      </trkpt>
      <trkpt lat="43.42355" lon="6.11858">
        <ele>199.80174255371</ele>
        <time>2014-06-11T13:31:24Z</time>
      </trkpt>
      <trkpt lat="43.42349" lon="6.11839">
        <ele>199.90757751465</ele>
        <time>2014-06-11T13:31:29Z</time>
      </trkpt>
      <trkpt lat="43.42337" lon="6.11813">
        <ele>203.91674804688</ele>
        <time>2014-06-11T13:31:36Z</time>
      </trkpt>
      <trkpt lat="43.42324" lon="6.11788">
        <ele>209.55368041992</ele>
        <time>2014-06-11T13:31:42Z</time>
      </trkpt>
      <trkpt lat="43.42317" lon="6.11774">
        <ele>213.41513061523</ele>
        <time>2014-06-11T13:31:46Z</time>
      </trkpt>
      <trkpt lat="43.42319" lon="6.11772">
        <ele>214.26863098144</ele>
        <time>2014-06-11T13:31:47Z</time>
      </trkpt>
      <trkpt lat="43.42321" lon="6.1177">
        <ele>215.19772338867</ele>
        <time>2014-06-11T13:31:51Z</time>
      </trkpt>
      <trkpt lat="43.42323" lon="6.1177">
        <ele>215.27061462402</ele>
        <time>2014-06-11T13:31:52Z</time>
      </trkpt>
      <trkpt lat="43.42329" lon="6.1177">
        <ele>216.28076171875</ele>
        <time>2014-06-11T13:31:56Z</time>
      </trkpt>
      <trkpt lat="43.42333" lon="6.11771">
        <ele>216.71406555176</ele>
        <time>2014-06-11T13:31:59Z</time>
      </trkpt>
      <trkpt lat="43.42337" lon="6.1177">
        <ele>216.84820556641</ele>
        <time>2014-06-11T13:32:02Z</time>
      </trkpt>
      <trkpt lat="43.42339" lon="6.11771">
        <ele>216.57699584961</ele>
        <time>2014-06-11T13:32:04Z</time>
      </trkpt>
      <trkpt lat="43.42342" lon="6.1177">
        <ele>216.67140197754</ele>
        <time>2014-06-11T13:32:07Z</time>
      </trkpt>
      <trkpt lat="43.42345" lon="6.11768">
        <ele>217.06622314453</ele>
        <time>2014-06-11T13:32:10Z</time>
      </trkpt>
      <trkpt lat="43.4235" lon="6.11766">
        <ele>217.45074462891</ele>
        <time>2014-06-11T13:32:15Z</time>
      </trkpt>
      <trkpt lat="43.42356" lon="6.1176">
        <ele>218.5665435791</ele>
        <time>2014-06-11T13:32:20Z</time>
      </trkpt>
      <trkpt lat="43.42358" lon="6.11759">
        <ele>218.94076538086</ele>
        <time>2014-06-11T13:32:22Z</time>
      </trkpt>
      <trkpt lat="43.4236" lon="6.11757">
        <ele>219.21885681152</ele>
        <time>2014-06-11T13:32:24Z</time>
      </trkpt>
      <trkpt lat="43.42367" lon="6.11753">
        <ele>219.95077514648</ele>
        <time>2014-06-11T13:32:31Z</time>
      </trkpt>
      <trkpt lat="43.4237" lon="6.1175">
        <ele>220.3776550293</ele>
        <time>2014-06-11T13:32:34Z</time>
      </trkpt>
      <trkpt lat="43.42374" lon="6.11746">
        <ele>220.59834289551</ele>
        <time>2014-06-11T13:32:38Z</time>
      </trkpt>
      <trkpt lat="43.42385" lon="6.11738">
        <ele>220.57754516602</ele>
        <time>2014-06-11T13:32:49Z</time>
      </trkpt>
      <trkpt lat="43.42392" lon="6.11734">
        <ele>220.49404907227</ele>
        <time>2014-06-11T13:32:55Z</time>
      </trkpt>
      <trkpt lat="43.42399" lon="6.11729">
        <ele>220.33709716797</ele>
        <time>2014-06-11T13:33:03Z</time>
      </trkpt>
      <trkpt lat="43.42409" lon="6.11722">
        <ele>219.89674377441</ele>
        <time>2014-06-11T13:33:13Z</time>
      </trkpt>
      <trkpt lat="43.42415" lon="6.11713">
        <ele>220.2010345459</ele>
        <time>2014-06-11T13:33:21Z</time>
      </trkpt>
      <trkpt lat="43.42419" lon="6.11706">
        <ele>220.69111633301</ele>
        <time>2014-06-11T13:33:27Z</time>
      </trkpt>
      <trkpt lat="43.42425" lon="6.11698">
        <ele>221.16198730469</ele>
        <time>2014-06-11T13:33:34Z</time>
      </trkpt>
      <trkpt lat="43.42431" lon="6.11688">
        <ele>221.54010009766</ele>
        <time>2014-06-11T13:33:42Z</time>
      </trkpt>
      <trkpt lat="43.42442" lon="6.11673">
        <ele>222.39163208008</ele>
        <time>2014-06-11T13:33:53Z</time>
      </trkpt>
      <trkpt lat="43.42443" lon="6.11671">
        <ele>222.59617614746</ele>
        <time>2014-06-11T13:33:55Z</time>
      </trkpt>
      <trkpt lat="43.42452" lon="6.11657">
        <ele>222.82286071777</ele>
        <time>2014-06-11T13:34:05Z</time>
      </trkpt>
      <trkpt lat="43.42454" lon="6.11654">
        <ele>222.8546295166</ele>
        <time>2014-06-11T13:34:08Z</time>
      </trkpt>
      <trkpt lat="43.4246" lon="6.11647">
        <ele>223.17835998535</ele>
        <time>2014-06-11T13:34:15Z</time>
      </trkpt>
      <trkpt lat="43.42464" lon="6.11641">
        <ele>223.74211120606</ele>
        <time>2014-06-11T13:34:20Z</time>
      </trkpt>
      <trkpt lat="43.42464" lon="6.11632">
        <ele>224.92033386231</ele>
        <time>2014-06-11T13:34:27Z</time>
      </trkpt>
      <trkpt lat="43.42463" lon="6.11631">
        <ele>225.0495300293</ele>
        <time>2014-06-11T13:34:28Z</time>
      </trkpt>
      <trkpt lat="43.42462" lon="6.1163">
        <ele>225.20639038086</ele>
        <time>2014-06-11T13:34:29Z</time>
      </trkpt>
      <trkpt lat="43.42462" lon="6.1163">
        <ele>225.20013427734</ele>
        <time>2014-06-11T13:34:30Z</time>
      </trkpt>
      <trkpt lat="43.42461" lon="6.11629">
        <ele>225.32237243652</ele>
        <time>2014-06-11T13:34:31Z</time>
      </trkpt>
      <trkpt lat="43.42459" lon="6.11626">
        <ele>225.64797973633</ele>
        <time>2014-06-11T13:34:35Z</time>
      </trkpt>
      <trkpt lat="43.42458" lon="6.11626">
        <ele>225.63552856445</ele>
        <time>2014-06-11T13:34:41Z</time>
      </trkpt>
      <trkpt lat="43.42458" lon="6.11626">
        <ele>225.63552856445</ele>
        <time>2014-06-11T13:34:43Z</time>
      </trkpt>
      <trkpt lat="43.42458" lon="6.11626">
        <ele>225.63552856445</ele>
        <time>2014-06-11T13:34:50Z</time>
      </trkpt>
      <trkpt lat="43.42456" lon="6.11626">
        <ele>225.62112426758</ele>
        <time>2014-06-11T13:34:53Z</time>
      </trkpt>
      <trkpt lat="43.42455" lon="6.11625">
        <ele>225.65219116211</ele>
        <time>2014-06-11T13:34:56Z</time>
      </trkpt>
      <trkpt lat="43.42454" lon="6.11625">
        <ele>225.65119934082</ele>
        <time>2014-06-11T13:34:57Z</time>
      </trkpt>
      <trkpt lat="43.42454" lon="6.11625">
        <ele>225.67419433594</ele>
        <time>2014-06-11T13:34:58Z</time>
      </trkpt>
      <trkpt lat="43.42453" lon="6.11625">
        <ele>225.69903564453</ele>
        <time>2014-06-11T13:35:00Z</time>
      </trkpt>
      <trkpt lat="43.42449" lon="6.11624">
        <ele>225.74609375</ele>
        <time>2014-06-11T13:35:06Z</time>
      </trkpt>
      <trkpt lat="43.42446" lon="6.11622">
        <ele>225.91360473633</ele>
        <time>2014-06-11T13:35:11Z</time>
      </trkpt>
      <trkpt lat="43.42445" lon="6.1162">
        <ele>226.09001159668</ele>
        <time>2014-06-11T13:35:14Z</time>
      </trkpt>
      <trkpt lat="43.42445" lon="6.11619">
        <ele>226.1321105957</ele>
        <time>2014-06-11T13:35:15Z</time>
      </trkpt>
      <trkpt lat="43.42445" lon="6.11619">
        <ele>226.15275573731</ele>
        <time>2014-06-11T13:35:20Z</time>
      </trkpt>
      <trkpt lat="43.42445" lon="6.11619">
        <ele>226.15275573731</ele>
        <time>2014-06-11T13:35:33Z</time>
      </trkpt>
      <trkpt lat="43.42445" lon="6.11619">
        <ele>226.15275573731</ele>
        <time>2014-06-11T13:35:35Z</time>
      </trkpt>
      <trkpt lat="43.42443" lon="6.11617">
        <ele>226.44117736816</ele>
        <time>2014-06-11T13:35:43Z</time>
      </trkpt>
      <trkpt lat="43.4244" lon="6.1161">
        <ele>227.2936706543</ele>
        <time>2014-06-11T13:35:48Z</time>
      </trkpt>
      <trkpt lat="43.42438" lon="6.11607">
        <ele>227.60893249512</ele>
        <time>2014-06-11T13:35:50Z</time>
      </trkpt>
      <trkpt lat="43.42437" lon="6.11604">
        <ele>227.95254516602</ele>
        <time>2014-06-11T13:35:52Z</time>
      </trkpt>
      <trkpt lat="43.42437" lon="6.116">
        <ele>228.40637207031</ele>
        <time>2014-06-11T13:35:55Z</time>
      </trkpt>
      <trkpt lat="43.42437" lon="6.11597">
        <ele>228.62896728516</ele>
        <time>2014-06-11T13:35:56Z</time>
      </trkpt>
      <trkpt lat="43.42435" lon="6.11589">
        <ele>229.46113586426</ele>
        <time>2014-06-11T13:36:01Z</time>
      </trkpt>
      <trkpt lat="43.42433" lon="6.11583">
        <ele>230.05361938477</ele>
        <time>2014-06-11T13:36:04Z</time>
      </trkpt>
      <trkpt lat="43.42431" lon="6.11579">
        <ele>230.36262512207</ele>
        <time>2014-06-11T13:36:07Z</time>
      </trkpt>
      <trkpt lat="43.4243" lon="6.11576">
        <ele>230.69979858398</ele>
        <time>2014-06-11T13:36:11Z</time>
      </trkpt>
      <trkpt lat="43.4243" lon="6.11576">
        <ele>230.69979858398</ele>
        <time>2014-06-11T13:36:33Z</time>
      </trkpt>
      <trkpt lat="43.4243" lon="6.11576">
        <ele>230.69979858398</ele>
        <time>2014-06-11T13:36:38Z</time>
      </trkpt>
      <trkpt lat="43.4243" lon="6.11574">
        <ele>230.82347106934</ele>
        <time>2014-06-11T13:36:44Z</time>
      </trkpt>
      <trkpt lat="43.4243" lon="6.11574">
        <ele>230.82347106934</ele>
        <time>2014-06-11T13:37:06Z</time>
      </trkpt>
      <trkpt lat="43.4243" lon="6.11574">
        <ele>230.82347106934</ele>
        <time>2014-06-11T13:37:15Z</time>
      </trkpt>
      <trkpt lat="43.4243" lon="6.11574">
        <ele>230.81042480469</ele>
        <time>2014-06-11T13:37:21Z</time>
      </trkpt>
      <trkpt lat="43.4243" lon="6.11574">
        <ele>230.81042480469</ele>
        <time>2014-06-11T13:37:40Z</time>
      </trkpt>
      <trkpt lat="43.4243" lon="6.11574">
        <ele>230.82739257812</ele>
        <time>2014-06-11T13:38:01Z</time>
      </trkpt>
      <trkpt lat="43.4243" lon="6.11574">
        <ele>230.82739257812</ele>
        <time>2014-06-11T13:38:21Z</time>
      </trkpt>
      <trkpt lat="43.4243" lon="6.11574">
        <ele>230.82739257812</ele>
        <time>2014-06-11T13:38:35Z</time>
      </trkpt>
      <trkpt lat="43.4243" lon="6.11573">
        <ele>230.95138549805</ele>
        <time>2014-06-11T13:38:44Z</time>
      </trkpt>
      <trkpt lat="43.4243" lon="6.11573">
        <ele>230.95138549805</ele>
        <time>2014-06-11T13:38:53Z</time>
      </trkpt>
      <trkpt lat="43.4243" lon="6.11573">
        <ele>230.95991516113</ele>
        <time>2014-06-11T13:38:55Z</time>
      </trkpt>
      <trkpt lat="43.42431" lon="6.11568">
        <ele>231.42755126953</ele>
        <time>2014-06-11T13:38:58Z</time>
      </trkpt>
      <trkpt lat="43.42432" lon="6.11564">
        <ele>231.7569732666</ele>
        <time>2014-06-11T13:39:00Z</time>
      </trkpt>
      <trkpt lat="43.42436" lon="6.11548">
        <ele>233.50155639648</ele>
        <time>2014-06-11T13:39:08Z</time>
      </trkpt>
      <trkpt lat="43.42443" lon="6.11538">
        <ele>234.88000488281</ele>
        <time>2014-06-11T13:39:14Z</time>
      </trkpt>
      <trkpt lat="43.42445" lon="6.11533">
        <ele>235.43960571289</ele>
        <time>2014-06-11T13:39:16Z</time>
      </trkpt>
      <trkpt lat="43.42445" lon="6.11525">
        <ele>236.09582519531</ele>
        <time>2014-06-11T13:39:19Z</time>
      </trkpt>
      <trkpt lat="43.4245" lon="6.11515">
        <ele>236.75294494629</ele>
        <time>2014-06-11T13:39:24Z</time>
      </trkpt>
      <trkpt lat="43.42451" lon="6.11506">
        <ele>237.23202514648</ele>
        <time>2014-06-11T13:39:29Z</time>
      </trkpt>
      <trkpt lat="43.42453" lon="6.11501">
        <ele>237.56314086914</ele>
        <time>2014-06-11T13:39:32Z</time>
      </trkpt>
      <trkpt lat="43.42455" lon="6.11496">
        <ele>238.22004699707</ele>
        <time>2014-06-11T13:39:35Z</time>
      </trkpt>
      <trkpt lat="43.42456" lon="6.11495">
        <ele>238.47299194336</ele>
        <time>2014-06-11T13:39:38Z</time>
      </trkpt>
      <trkpt lat="43.42457" lon="6.11495">
        <ele>238.50881958008</ele>
        <time>2014-06-11T13:39:40Z</time>
      </trkpt>
      <trkpt lat="43.42458" lon="6.11494">
        <ele>238.76072692871</ele>
        <time>2014-06-11T13:39:45Z</time>
      </trkpt>
      <trkpt lat="43.42459" lon="6.11492">
        <ele>239.05268859863</ele>
        <time>2014-06-11T13:39:47Z</time>
      </trkpt>
      <trkpt lat="43.4246" lon="6.11492">
        <ele>239.20091247559</ele>
        <time>2014-06-11T13:39:48Z</time>
      </trkpt>
      <trkpt lat="43.42462" lon="6.1149">
        <ele>239.6008605957</ele>
        <time>2014-06-11T13:39:53Z</time>
      </trkpt>
      <trkpt lat="43.42464" lon="6.11484">
        <ele>240.6016998291</ele>
        <time>2014-06-11T13:40:00Z</time>
      </trkpt>
      <trkpt lat="43.42466" lon="6.11483">
        <ele>240.87591552734</ele>
        <time>2014-06-11T13:40:02Z</time>
      </trkpt>
      <trkpt lat="43.42467" lon="6.11482">
        <ele>241.0754699707</ele>
        <time>2014-06-11T13:40:04Z</time>
      </trkpt>
      <trkpt lat="43.42469" lon="6.11481">
        <ele>241.41384887695</ele>
        <time>2014-06-11T13:40:07Z</time>
      </trkpt>
      <trkpt lat="43.42469" lon="6.11481">
        <ele>241.49749755859</ele>
        <time>2014-06-11T13:40:13Z</time>
      </trkpt>
      <trkpt lat="43.42469" lon="6.11481">
        <ele>241.49749755859</ele>
        <time>2014-06-11T13:40:18Z</time>
      </trkpt>
      <trkpt lat="43.42469" lon="6.11481">
        <ele>241.49749755859</ele>
        <time>2014-06-11T13:40:22Z</time>
      </trkpt>
      <trkpt lat="43.42472" lon="6.11478">
        <ele>242.23892211914</ele>
        <time>2014-06-11T13:40:29Z</time>
      </trkpt>
      <trkpt lat="43.42476" lon="6.11474">
        <ele>243.12019348144</ele>
        <time>2014-06-11T13:40:36Z</time>
      </trkpt>
      <trkpt lat="43.42477" lon="6.11473">
        <ele>243.41145324707</ele>
        <time>2014-06-11T13:40:38Z</time>
      </trkpt>
      <trkpt lat="43.42477" lon="6.11472">
        <ele>243.44110107422</ele>
        <time>2014-06-11T13:40:39Z</time>
      </trkpt>
      <trkpt lat="43.42477" lon="6.11472">
        <ele>243.44110107422</ele>
        <time>2014-06-11T13:40:42Z</time>
      </trkpt>
      <trkpt lat="43.42477" lon="6.11472">
        <ele>243.53646850586</ele>
        <time>2014-06-11T13:40:44Z</time>
      </trkpt>
      <trkpt lat="43.42479" lon="6.11467">
        <ele>244.75354003906</ele>
        <time>2014-06-11T13:40:47Z</time>
      </trkpt>
      <trkpt lat="43.42481" lon="6.11461">
        <ele>245.92083740234</ele>
        <time>2014-06-11T13:40:50Z</time>
      </trkpt>
      <trkpt lat="43.42482" lon="6.11457">
        <ele>246.85125732422</ele>
        <time>2014-06-11T13:40:53Z</time>
      </trkpt>
      <trkpt lat="43.42483" lon="6.11454">
        <ele>247.40744018555</ele>
        <time>2014-06-11T13:40:56Z</time>
      </trkpt>
      <trkpt lat="43.42483" lon="6.11454">
        <ele>247.40744018555</ele>
        <time>2014-06-11T13:40:58Z</time>
      </trkpt>
      <trkpt lat="43.42484" lon="6.11451">
        <ele>247.95330810547</ele>
        <time>2014-06-11T13:41:04Z</time>
      </trkpt>
      <trkpt lat="43.42484" lon="6.1145">
        <ele>248.34469604492</ele>
        <time>2014-06-11T13:41:11Z</time>
      </trkpt>
      <trkpt lat="43.42487" lon="6.11446">
        <ele>249.40385437012</ele>
        <time>2014-06-11T13:41:18Z</time>
      </trkpt>
      <trkpt lat="43.4249" lon="6.11444">
        <ele>249.95431518555</ele>
        <time>2014-06-11T13:41:22Z</time>
      </trkpt>
      <trkpt lat="43.4249" lon="6.11444">
        <ele>250.07090759277</ele>
        <time>2014-06-11T13:41:23Z</time>
      </trkpt>
      <trkpt lat="43.42491" lon="6.11443">
        <ele>250.2236328125</ele>
        <time>2014-06-11T13:41:25Z</time>
      </trkpt>
      <trkpt lat="43.42492" lon="6.11443">
        <ele>250.36466979981</ele>
        <time>2014-06-11T13:41:30Z</time>
      </trkpt>
      <trkpt lat="43.42492" lon="6.11443">
        <ele>250.36466979981</ele>
        <time>2014-06-11T13:41:52Z</time>
      </trkpt>
      <trkpt lat="43.42492" lon="6.11443">
        <ele>250.30355834961</ele>
        <time>2014-06-11T13:42:55Z</time>
      </trkpt>
      <trkpt lat="43.42492" lon="6.11443">
        <ele>250.30355834961</ele>
        <time>2014-06-11T13:43:06Z</time>
      </trkpt>
      <trkpt lat="43.42493" lon="6.11443">
        <ele>250.42961120606</ele>
        <time>2014-06-11T13:43:14Z</time>
      </trkpt>
      <trkpt lat="43.42493" lon="6.11443">
        <ele>250.42961120606</ele>
        <time>2014-06-11T13:43:50Z</time>
      </trkpt>
      <trkpt lat="43.42493" lon="6.11443">
        <ele>250.46838378906</ele>
        <time>2014-06-11T13:44:38Z</time>
      </trkpt>
      <trkpt lat="43.42493" lon="6.11443">
        <ele>250.46838378906</ele>
        <time>2014-06-11T13:44:49Z</time>
      </trkpt>
      <trkpt lat="43.42493" lon="6.11443">
        <ele>250.46838378906</ele>
        <time>2014-06-11T13:44:58Z</time>
      </trkpt>
      <trkpt lat="43.42493" lon="6.11443">
        <ele>250.45545959473</ele>
        <time>2014-06-11T13:45:04Z</time>
      </trkpt>
      <trkpt lat="43.42493" lon="6.11442">
        <ele>250.52580261231</ele>
        <time>2014-06-11T13:45:05Z</time>
      </trkpt>
      <trkpt lat="43.42493" lon="6.11442">
        <ele>250.51937866211</ele>
        <time>2014-06-11T13:45:06Z</time>
      </trkpt>
      <trkpt lat="43.42492" lon="6.11443">
        <ele>250.30737304688</ele>
        <time>2014-06-11T13:45:12Z</time>
      </trkpt>
      <trkpt lat="43.42486" lon="6.11446">
        <ele>249.14292907715</ele>
        <time>2014-06-11T13:45:19Z</time>
      </trkpt>
      <trkpt lat="43.42485" lon="6.11448">
        <ele>248.66055297852</ele>
        <time>2014-06-11T13:45:21Z</time>
      </trkpt>
      <trkpt lat="43.42485" lon="6.11451">
        <ele>248.16275024414</ele>
        <time>2014-06-11T13:45:25Z</time>
      </trkpt>
      <trkpt lat="43.42484" lon="6.11455">
        <ele>247.46923828125</ele>
        <time>2014-06-11T13:45:35Z</time>
      </trkpt>
      <trkpt lat="43.42484" lon="6.11455">
        <ele>247.46923828125</ele>
        <time>2014-06-11T13:45:36Z</time>
      </trkpt>
      <trkpt lat="43.42484" lon="6.11455">
        <ele>247.35078430176</ele>
        <time>2014-06-11T13:45:37Z</time>
      </trkpt>
      <trkpt lat="43.42484" lon="6.11456">
        <ele>247.14479064941</ele>
        <time>2014-06-11T13:45:38Z</time>
      </trkpt>
      <trkpt lat="43.42483" lon="6.11458">
        <ele>246.71907043457</ele>
        <time>2014-06-11T13:45:39Z</time>
      </trkpt>
      <trkpt lat="43.42481" lon="6.11464">
        <ele>245.34750366211</ele>
        <time>2014-06-11T13:45:41Z</time>
      </trkpt>
      <trkpt lat="43.42472" lon="6.11478">
        <ele>242.06788635254</ele>
        <time>2014-06-11T13:45:46Z</time>
      </trkpt>
      <trkpt lat="43.4247" lon="6.1148">
        <ele>241.69950866699</ele>
        <time>2014-06-11T13:45:47Z</time>
      </trkpt>
      <trkpt lat="43.42469" lon="6.11482">
        <ele>241.30392456055</ele>
        <time>2014-06-11T13:45:48Z</time>
      </trkpt>
      <trkpt lat="43.4247" lon="6.11485">
        <ele>241.00392150879</ele>
        <time>2014-06-11T13:45:50Z</time>
      </trkpt>
      <trkpt lat="43.42473" lon="6.11497">
        <ele>239.44471740723</ele>
        <time>2014-06-11T13:45:57Z</time>
      </trkpt>
      <trkpt lat="43.42477" lon="6.11503">
        <ele>238.93991088867</ele>
        <time>2014-06-11T13:46:03Z</time>
      </trkpt>
      <trkpt lat="43.42477" lon="6.11503">
        <ele>238.93991088867</ele>
        <time>2014-06-11T13:46:09Z</time>
      </trkpt>
      <trkpt lat="43.42476" lon="6.11504">
        <ele>238.86747741699</ele>
        <time>2014-06-11T13:46:10Z</time>
      </trkpt>
      <trkpt lat="43.42474" lon="6.11505">
        <ele>238.71894836426</ele>
        <time>2014-06-11T13:46:14Z</time>
      </trkpt>
      <trkpt lat="43.42475" lon="6.11505">
        <ele>238.73196411133</ele>
        <time>2014-06-11T13:46:22Z</time>
      </trkpt>
      <trkpt lat="43.42475" lon="6.11505">
        <ele>238.73196411133</ele>
        <time>2014-06-11T13:46:35Z</time>
      </trkpt>
      <trkpt lat="43.42475" lon="6.11505">
        <ele>238.73196411133</ele>
        <time>2014-06-11T13:46:47Z</time>
      </trkpt>
      <trkpt lat="43.42475" lon="6.11506">
        <ele>238.70597839356</ele>
        <time>2014-06-11T13:46:54Z</time>
      </trkpt>
      <trkpt lat="43.42475" lon="6.11506">
        <ele>238.70597839356</ele>
        <time>2014-06-11T13:47:05Z</time>
      </trkpt>
      <trkpt lat="43.42475" lon="6.11506">
        <ele>238.70597839356</ele>
        <time>2014-06-11T13:47:13Z</time>
      </trkpt>
      <trkpt lat="43.42476" lon="6.11506">
        <ele>238.7322845459</ele>
        <time>2014-06-11T13:47:18Z</time>
      </trkpt>
      <trkpt lat="43.42476" lon="6.11505">
        <ele>238.77769470215</ele>
        <time>2014-06-11T13:47:25Z</time>
      </trkpt>
      <trkpt lat="43.42474" lon="6.11498">
        <ele>239.44427490234</ele>
        <time>2014-06-11T13:47:31Z</time>
      </trkpt>
      <trkpt lat="43.42471" lon="6.11489">
        <ele>240.49928283691</ele>
        <time>2014-06-11T13:47:38Z</time>
      </trkpt>
      <trkpt lat="43.4247" lon="6.11487">
        <ele>240.63465881348</ele>
        <time>2014-06-11T13:47:39Z</time>
      </trkpt>
      <trkpt lat="43.4247" lon="6.1148">
        <ele>241.69276428223</ele>
        <time>2014-06-11T13:47:45Z</time>
      </trkpt>
      <trkpt lat="43.42472" lon="6.11478">
        <ele>242.14306640625</ele>
        <time>2014-06-11T13:47:50Z</time>
      </trkpt>
      <trkpt lat="43.42478" lon="6.11472">
        <ele>243.59420776367</ele>
        <time>2014-06-11T13:47:59Z</time>
      </trkpt>
      <trkpt lat="43.42479" lon="6.11471">
        <ele>244.0583190918</ele>
        <time>2014-06-11T13:48:01Z</time>
      </trkpt>
      <trkpt lat="43.4248" lon="6.11467">
        <ele>244.75698852539</ele>
        <time>2014-06-11T13:48:04Z</time>
      </trkpt>
      <trkpt lat="43.42482" lon="6.1146">
        <ele>246.21781921387</ele>
        <time>2014-06-11T13:48:13Z</time>
      </trkpt>
      <trkpt lat="43.42482" lon="6.1146">
        <ele>246.26931762695</ele>
        <time>2014-06-11T13:48:22Z</time>
      </trkpt>
      <trkpt lat="43.42482" lon="6.1146">
        <ele>246.26931762695</ele>
        <time>2014-06-11T13:48:32Z</time>
      </trkpt>
      <trkpt lat="43.42482" lon="6.1146">
        <ele>246.35342407227</ele>
        <time>2014-06-11T13:48:34Z</time>
      </trkpt>
      <trkpt lat="43.42483" lon="6.11458">
        <ele>246.71047973633</ele>
        <time>2014-06-11T13:48:37Z</time>
      </trkpt>
      <trkpt lat="43.42484" lon="6.11452">
        <ele>247.86404418945</ele>
        <time>2014-06-11T13:48:43Z</time>
      </trkpt>
      <trkpt lat="43.42484" lon="6.11451">
        <ele>248.13012695312</ele>
        <time>2014-06-11T13:48:46Z</time>
      </trkpt>
      <trkpt lat="43.42485" lon="6.1145">
        <ele>248.29148864746</ele>
        <time>2014-06-11T13:48:53Z</time>
      </trkpt>
      <trkpt lat="43.42486" lon="6.11448">
        <ele>248.78414916992</ele>
        <time>2014-06-11T13:49:01Z</time>
      </trkpt>
      <trkpt lat="43.42489" lon="6.11444">
        <ele>249.86544799805</ele>
        <time>2014-06-11T13:49:08Z</time>
      </trkpt>
      <trkpt lat="43.42491" lon="6.11442">
        <ele>250.31210327148</ele>
        <time>2014-06-11T13:49:11Z</time>
      </trkpt>
      <trkpt lat="43.42492" lon="6.11442">
        <ele>250.45381164551</ele>
        <time>2014-06-11T13:49:12Z</time>
      </trkpt>
      <trkpt lat="43.42494" lon="6.11442">
        <ele>250.69180297852</ele>
        <time>2014-06-11T13:49:14Z</time>
      </trkpt>
      <trkpt lat="43.42498" lon="6.11443">
        <ele>250.99749755859</ele>
        <time>2014-06-11T13:49:21Z</time>
      </trkpt>
      <trkpt lat="43.425" lon="6.11443">
        <ele>251.11738586426</ele>
        <time>2014-06-11T13:49:25Z</time>
      </trkpt>
      <trkpt lat="43.425" lon="6.11443">
        <ele>251.11738586426</ele>
        <time>2014-06-11T13:49:48Z</time>
      </trkpt>
      <trkpt lat="43.425" lon="6.11443">
        <ele>251.11738586426</ele>
        <time>2014-06-11T13:49:55Z</time>
      </trkpt>
      <trkpt lat="43.425" lon="6.11443">
        <ele>251.166015625</ele>
        <time>2014-06-11T13:50:05Z</time>
      </trkpt>
      <trkpt lat="43.425" lon="6.11443">
        <ele>251.2004699707</ele>
        <time>2014-06-11T13:50:08Z</time>
      </trkpt>
      <trkpt lat="43.425" lon="6.11443">
        <ele>251.2004699707</ele>
        <time>2014-06-11T13:50:31Z</time>
      </trkpt>
      <trkpt lat="43.425" lon="6.11444">
        <ele>251.16613769531</ele>
        <time>2014-06-11T13:51:03Z</time>
      </trkpt>
      <trkpt lat="43.425" lon="6.11444">
        <ele>251.16613769531</ele>
        <time>2014-06-11T13:51:19Z</time>
      </trkpt>
      <trkpt lat="43.425" lon="6.11444">
        <ele>251.11120605469</ele>
        <time>2014-06-11T13:51:20Z</time>
      </trkpt>
      <trkpt lat="43.42504" lon="6.11447">
        <ele>251.02090454102</ele>
        <time>2014-06-11T13:51:23Z</time>
      </trkpt>
      <trkpt lat="43.42506" lon="6.11447">
        <ele>251.11532592773</ele>
        <time>2014-06-11T13:51:25Z</time>
      </trkpt>
      <trkpt lat="43.42508" lon="6.11449">
        <ele>251.02947998047</ele>
        <time>2014-06-11T13:51:27Z</time>
      </trkpt>
      <trkpt lat="43.42512" lon="6.1145">
        <ele>251.19943237305</ele>
        <time>2014-06-11T13:51:31Z</time>
      </trkpt>
      <trkpt lat="43.42513" lon="6.11451">
        <ele>251.16853332519</ele>
        <time>2014-06-11T13:51:32Z</time>
      </trkpt>
      <trkpt lat="43.42518" lon="6.11447">
        <ele>252.45083618164</ele>
        <time>2014-06-11T13:51:37Z</time>
      </trkpt>
      <trkpt lat="43.42518" lon="6.11443">
        <ele>253.15740966797</ele>
        <time>2014-06-11T13:51:40Z</time>
      </trkpt>
      <trkpt lat="43.42517" lon="6.11443">
        <ele>253.12307739258</ele>
        <time>2014-06-11T13:51:43Z</time>
      </trkpt>
      <trkpt lat="43.42517" lon="6.11443">
        <ele>253.12307739258</ele>
        <time>2014-06-11T13:51:45Z</time>
      </trkpt>
      <trkpt lat="43.42518" lon="6.11442">
        <ele>253.21234130859</ele>
        <time>2014-06-11T13:51:46Z</time>
      </trkpt>
      <trkpt lat="43.42517" lon="6.1144">
        <ele>253.4938659668</ele>
        <time>2014-06-11T13:51:48Z</time>
      </trkpt>
      <trkpt lat="43.42515" lon="6.11437">
        <ele>253.74105834961</ele>
        <time>2014-06-11T13:51:50Z</time>
      </trkpt>
      <trkpt lat="43.42514" lon="6.11433">
        <ele>254.20797729492</ele>
        <time>2014-06-11T13:51:53Z</time>
      </trkpt>
      <trkpt lat="43.42514" lon="6.11432">
        <ele>254.41397094727</ele>
        <time>2014-06-11T13:51:54Z</time>
      </trkpt>
      <trkpt lat="43.42515" lon="6.1143">
        <ele>254.654296875</ele>
        <time>2014-06-11T13:51:55Z</time>
      </trkpt>
      <trkpt lat="43.42514" lon="6.11427">
        <ele>255.08001708984</ele>
        <time>2014-06-11T13:51:57Z</time>
      </trkpt>
      <trkpt lat="43.42511" lon="6.11408">
        <ele>257.6135559082</ele>
        <time>2014-06-11T13:52:09Z</time>
      </trkpt>
      <trkpt lat="43.42509" lon="6.11393">
        <ele>260.05975341797</ele>
        <time>2014-06-11T13:52:19Z</time>
      </trkpt>
      <trkpt lat="43.42507" lon="6.11377">
        <ele>261.67291259766</ele>
        <time>2014-06-11T13:52:30Z</time>
      </trkpt>
      <trkpt lat="43.42505" lon="6.1137">
        <ele>262.25350952148</ele>
        <time>2014-06-11T13:52:35Z</time>
      </trkpt>
      <trkpt lat="43.42504" lon="6.11358">
        <ele>263.24404907227</ele>
        <time>2014-06-11T13:52:43Z</time>
      </trkpt>
      <trkpt lat="43.42501" lon="6.1134">
        <ele>263.82427978516</ele>
        <time>2014-06-11T13:52:54Z</time>
      </trkpt>
      <trkpt lat="43.42501" lon="6.11334">
        <ele>264.02166748047</ele>
        <time>2014-06-11T13:52:57Z</time>
      </trkpt>
      <trkpt lat="43.42502" lon="6.11327">
        <ele>264.53018188477</ele>
        <time>2014-06-11T13:53:01Z</time>
      </trkpt>
      <trkpt lat="43.42501" lon="6.11317">
        <ele>265.22369384766</ele>
        <time>2014-06-11T13:53:07Z</time>
      </trkpt>
      <trkpt lat="43.425" lon="6.11307">
        <ele>265.86724853516</ele>
        <time>2014-06-11T13:53:13Z</time>
      </trkpt>
      <trkpt lat="43.42501" lon="6.1129">
        <ele>266.61724853516</ele>
        <time>2014-06-11T13:53:23Z</time>
      </trkpt>
      <trkpt lat="43.42501" lon="6.11266">
        <ele>267.54577636719</ele>
        <time>2014-06-11T13:53:37Z</time>
      </trkpt>
      <trkpt lat="43.42501" lon="6.1126">
        <ele>267.75177001953</ele>
        <time>2014-06-11T13:53:40Z</time>
      </trkpt>
      <trkpt lat="43.42498" lon="6.11247">
        <ele>267.68121337891</ele>
        <time>2014-06-11T13:53:47Z</time>
      </trkpt>
      <trkpt lat="43.4249" lon="6.11233">
        <ele>266.51989746094</ele>
        <time>2014-06-11T13:53:53Z</time>
      </trkpt>
      <trkpt lat="43.42481" lon="6.11216">
        <ele>265.62121582031</ele>
        <time>2014-06-11T13:54:00Z</time>
      </trkpt>
      <trkpt lat="43.42478" lon="6.1121">
        <ele>265.42895507812</ele>
        <time>2014-06-11T13:54:03Z</time>
      </trkpt>
      <trkpt lat="43.42478" lon="6.11206">
        <ele>265.42895507812</ele>
        <time>2014-06-11T13:54:05Z</time>
      </trkpt>
      <trkpt lat="43.42476" lon="6.112">
        <ele>265.29162597656</ele>
        <time>2014-06-11T13:54:09Z</time>
      </trkpt>
      <trkpt lat="43.42476" lon="6.11198">
        <ele>265.26416015625</ele>
        <time>2014-06-11T13:54:10Z</time>
      </trkpt>
      <trkpt lat="43.42474" lon="6.11193">
        <ele>265.12683105469</ele>
        <time>2014-06-11T13:54:13Z</time>
      </trkpt>
      <trkpt lat="43.42473" lon="6.11188">
        <ele>265.07189941406</ele>
        <time>2014-06-11T13:54:16Z</time>
      </trkpt>
      <trkpt lat="43.42473" lon="6.11187">
        <ele>265.04443359375</ele>
        <time>2014-06-11T13:54:17Z</time>
      </trkpt>
      <trkpt lat="43.42474" lon="6.11174">
        <ele>265.154296875</ele>
        <time>2014-06-11T13:54:24Z</time>
      </trkpt>
      <trkpt lat="43.42478" lon="6.11166">
        <ele>265.40148925781</ele>
        <time>2014-06-11T13:54:29Z</time>
      </trkpt>
      <trkpt lat="43.42484" lon="6.11163">
        <ele>265.84094238281</ele>
        <time>2014-06-11T13:54:34Z</time>
      </trkpt>
      <trkpt lat="43.42496" lon="6.11155">
        <ele>266.71984863281</ele>
        <time>2014-06-11T13:54:43Z</time>
      </trkpt>
      <trkpt lat="43.42508" lon="6.11149">
        <ele>267.3854675293</ele>
        <time>2014-06-11T13:54:51Z</time>
      </trkpt>
      <trkpt lat="43.42522" lon="6.11148">
        <ele>268.05615234375</ele>
        <time>2014-06-11T13:54:58Z</time>
      </trkpt>
      <trkpt lat="43.42537" lon="6.11147">
        <ele>269.1354675293</ele>
        <time>2014-06-11T13:55:05Z</time>
      </trkpt>
      <trkpt lat="43.42556" lon="6.11142">
        <ele>271.05944824219</ele>
        <time>2014-06-11T13:55:14Z</time>
      </trkpt>
      <trkpt lat="43.4257" lon="6.11138">
        <ele>271.96090698242</ele>
        <time>2014-06-11T13:55:19Z</time>
      </trkpt>
      <trkpt lat="43.4259" lon="6.11134">
        <ele>273.12133789062</ele>
        <time>2014-06-11T13:55:26Z</time>
      </trkpt>
      <trkpt lat="43.42606" lon="6.1113">
        <ele>273.97964477539</ele>
        <time>2014-06-11T13:55:32Z</time>
      </trkpt>
      <trkpt lat="43.42639" lon="6.1113">
        <ele>276.68576049805</ele>
        <time>2014-06-11T13:55:46Z</time>
      </trkpt>
      <trkpt lat="43.42653" lon="6.11122">
        <ele>277.38442993164</ele>
        <time>2014-06-11T13:55:53Z</time>
      </trkpt>
      <trkpt lat="43.42667" lon="6.11115">
        <ele>278.13629150391</ele>
        <time>2014-06-11T13:56:00Z</time>
      </trkpt>
      <trkpt lat="43.42669" lon="6.11114">
        <ele>278.17724609375</ele>
        <time>2014-06-11T13:56:01Z</time>
      </trkpt>
      <trkpt lat="43.42677" lon="6.11112">
        <ele>278.40728759766</ele>
        <time>2014-06-11T13:56:05Z</time>
      </trkpt>
      <trkpt lat="43.42683" lon="6.11111">
        <ele>278.59783935547</ele>
        <time>2014-06-11T13:56:08Z</time>
      </trkpt>
      <trkpt lat="43.4271" lon="6.11107">
        <ele>279.56408691406</ele>
        <time>2014-06-11T13:56:21Z</time>
      </trkpt>
      <trkpt lat="43.42722" lon="6.11106">
        <ele>280.00289916992</ele>
        <time>2014-06-11T13:56:27Z</time>
      </trkpt>
      <trkpt lat="43.42739" lon="6.11103">
        <ele>280.44027709961</ele>
        <time>2014-06-11T13:56:35Z</time>
      </trkpt>
      <trkpt lat="43.42747" lon="6.11101">
        <ele>280.56753540039</ele>
        <time>2014-06-11T13:56:38Z</time>
      </trkpt>
      <trkpt lat="43.42754" lon="6.111">
        <ele>280.77752685547</ele>
        <time>2014-06-11T13:56:41Z</time>
      </trkpt>
      <trkpt lat="43.42767" lon="6.11097">
        <ele>281.09423828125</ele>
        <time>2014-06-11T13:56:47Z</time>
      </trkpt>
      <trkpt lat="43.42785" lon="6.11093">
        <ele>281.09808349609</ele>
        <time>2014-06-11T13:56:56Z</time>
      </trkpt>
      <trkpt lat="43.42801" lon="6.11092">
        <ele>281.17114257812</ele>
        <time>2014-06-11T13:57:03Z</time>
      </trkpt>
      <trkpt lat="43.42818" lon="6.11093">
        <ele>282.02163696289</ele>
        <time>2014-06-11T13:57:11Z</time>
      </trkpt>
      <trkpt lat="43.42837" lon="6.11101">
        <ele>283.35028076172</ele>
        <time>2014-06-11T13:57:20Z</time>
      </trkpt>
      <trkpt lat="43.42845" lon="6.11101">
        <ele>283.58422851562</ele>
        <time>2014-06-11T13:57:24Z</time>
      </trkpt>
      <trkpt lat="43.42846" lon="6.11102">
        <ele>283.65090942383</ele>
        <time>2014-06-11T13:57:25Z</time>
      </trkpt>
      <trkpt lat="43.42847" lon="6.11103">
        <ele>283.68936157227</ele>
        <time>2014-06-11T13:57:26Z</time>
      </trkpt>
      <trkpt lat="43.42848" lon="6.11102">
        <ele>283.69638061523</ele>
        <time>2014-06-11T13:57:31Z</time>
      </trkpt>
      <trkpt lat="43.42848" lon="6.11102">
        <ele>283.69638061523</ele>
        <time>2014-06-11T13:58:02Z</time>
      </trkpt>
      <trkpt lat="43.42848" lon="6.11102">
        <ele>283.6930847168</ele>
        <time>2014-06-11T13:58:18Z</time>
      </trkpt>
      <trkpt lat="43.42848" lon="6.11102">
        <ele>283.6930847168</ele>
        <time>2014-06-11T13:58:31Z</time>
      </trkpt>
      <trkpt lat="43.42848" lon="6.11103">
        <ele>283.72424316406</ele>
        <time>2014-06-11T13:58:32Z</time>
      </trkpt>
      <trkpt lat="43.42849" lon="6.11107">
        <ele>283.88461303711</ele>
        <time>2014-06-11T13:58:35Z</time>
      </trkpt>
      <trkpt lat="43.4285" lon="6.11114">
        <ele>283.94076538086</ele>
        <time>2014-06-11T13:58:38Z</time>
      </trkpt>
      <trkpt lat="43.42853" lon="6.11121">
        <ele>283.74371337891</ele>
        <time>2014-06-11T13:58:41Z</time>
      </trkpt>
      <trkpt lat="43.42855" lon="6.11123">
        <ele>283.65933227539</ele>
        <time>2014-06-11T13:58:42Z</time>
      </trkpt>
      <trkpt lat="43.42868" lon="6.11138">
        <ele>283.04879760742</ele>
        <time>2014-06-11T13:58:48Z</time>
      </trkpt>
      <trkpt lat="43.42876" lon="6.11157">
        <ele>282.34671020508</ele>
        <time>2014-06-11T13:58:53Z</time>
      </trkpt>
      <trkpt lat="43.42884" lon="6.11171">
        <ele>282</ele>
        <time>2014-06-11T13:58:57Z</time>
      </trkpt>
      <trkpt lat="43.42895" lon="6.11204">
        <ele>281.67300415039</ele>
        <time>2014-06-11T13:59:03Z</time>
      </trkpt>
      <trkpt lat="43.42892" lon="6.1122">
        <ele>281.09451293945</ele>
        <time>2014-06-11T13:59:07Z</time>
      </trkpt>
      <trkpt lat="43.4289" lon="6.11223">
        <ele>280.93041992188</ele>
        <time>2014-06-11T13:59:08Z</time>
      </trkpt>
      <trkpt lat="43.42887" lon="6.11224">
        <ele>280.8671875</ele>
        <time>2014-06-11T13:59:09Z</time>
      </trkpt>
      <trkpt lat="43.42884" lon="6.11227">
        <ele>280.72906494141</ele>
        <time>2014-06-11T13:59:10Z</time>
      </trkpt>
      <trkpt lat="43.4288" lon="6.11233">
        <ele>280.47738647461</ele>
        <time>2014-06-11T13:59:12Z</time>
      </trkpt>
      <trkpt lat="43.42872" lon="6.11244">
        <ele>280.37985229492</ele>
        <time>2014-06-11T13:59:16Z</time>
      </trkpt>
      <trkpt lat="43.42863" lon="6.11257">
        <ele>280.55236816406</ele>
        <time>2014-06-11T13:59:21Z</time>
      </trkpt>
      <trkpt lat="43.42853" lon="6.11274">
        <ele>280.44595336914</ele>
        <time>2014-06-11T13:59:26Z</time>
      </trkpt>
      <trkpt lat="43.42845" lon="6.11295">
        <ele>280.57446289062</ele>
        <time>2014-06-11T13:59:31Z</time>
      </trkpt>
      <trkpt lat="43.42837" lon="6.1131">
        <ele>280.62707519531</ele>
        <time>2014-06-11T13:59:35Z</time>
      </trkpt>
      <trkpt lat="43.42829" lon="6.1133">
        <ele>280.13598632812</ele>
        <time>2014-06-11T13:59:39Z</time>
      </trkpt>
      <trkpt lat="43.42824" lon="6.11345">
        <ele>280</ele>
        <time>2014-06-11T13:59:42Z</time>
      </trkpt>
      <trkpt lat="43.42817" lon="6.1136">
        <ele>280</ele>
        <time>2014-06-11T13:59:45Z</time>
      </trkpt>
      <trkpt lat="43.42813" lon="6.11365">
        <ele>280</ele>
        <time>2014-06-11T13:59:46Z</time>
      </trkpt>
      <trkpt lat="43.42784" lon="6.11389">
        <ele>280</ele>
        <time>2014-06-11T13:59:55Z</time>
      </trkpt>
      <trkpt lat="43.42771" lon="6.11404">
        <ele>280</ele>
        <time>2014-06-11T13:59:59Z</time>
      </trkpt>
      <trkpt lat="43.42766" lon="6.11413">
        <ele>280</ele>
        <time>2014-06-11T14:00:01Z</time>
      </trkpt>
      <trkpt lat="43.42764" lon="6.11418">
        <ele>280</ele>
        <time>2014-06-11T14:00:02Z</time>
      </trkpt>
      <trkpt lat="43.42759" lon="6.11426">
        <ele>280</ele>
        <time>2014-06-11T14:00:04Z</time>
      </trkpt>
      <trkpt lat="43.42757" lon="6.1143">
        <ele>280</ele>
        <time>2014-06-11T14:00:05Z</time>
      </trkpt>
      <trkpt lat="43.42756" lon="6.11434">
        <ele>280</ele>
        <time>2014-06-11T14:00:06Z</time>
      </trkpt>
      <trkpt lat="43.42754" lon="6.11442">
        <ele>280</ele>
        <time>2014-06-11T14:00:08Z</time>
      </trkpt>
      <trkpt lat="43.42753" lon="6.11446">
        <ele>279.98822021484</ele>
        <time>2014-06-11T14:00:09Z</time>
      </trkpt>
      <trkpt lat="43.42752" lon="6.11453">
        <ele>279.96365356445</ele>
        <time>2014-06-11T14:00:11Z</time>
      </trkpt>
      <trkpt lat="43.42751" lon="6.11454">
        <ele>279.9860534668</ele>
        <time>2014-06-11T14:00:12Z</time>
      </trkpt>
      <trkpt lat="43.42751" lon="6.11455">
        <ele>279.98501586914</ele>
        <time>2014-06-11T14:00:13Z</time>
      </trkpt>
      <trkpt lat="43.42751" lon="6.11455">
        <ele>279.98529052734</ele>
        <time>2014-06-11T14:00:14Z</time>
      </trkpt>
      <trkpt lat="43.42751" lon="6.11455">
        <ele>279.98529052734</ele>
        <time>2014-06-11T14:00:41Z</time>
      </trkpt>
      <trkpt lat="43.42751" lon="6.11455">
        <ele>279.9853515625</ele>
        <time>2014-06-11T14:00:54Z</time>
      </trkpt>
      <trkpt lat="43.42751" lon="6.11455">
        <ele>279.9853515625</ele>
        <time>2014-06-11T14:01:08Z</time>
      </trkpt>
      <trkpt lat="43.42748" lon="6.11464">
        <ele>279.95672607422</ele>
        <time>2014-06-11T14:01:14Z</time>
      </trkpt>
      <trkpt lat="43.42745" lon="6.11479">
        <ele>279.11795043945</ele>
        <time>2014-06-11T14:01:18Z</time>
      </trkpt>
      <trkpt lat="43.42744" lon="6.11482">
        <ele>278.85766601562</ele>
        <time>2014-06-11T14:01:19Z</time>
      </trkpt>
      <trkpt lat="43.42743" lon="6.11483">
        <ele>278.68350219727</ele>
        <time>2014-06-11T14:01:20Z</time>
      </trkpt>
      <trkpt lat="43.42741" lon="6.11484">
        <ele>278.51229858398</ele>
        <time>2014-06-11T14:01:21Z</time>
      </trkpt>
      <trkpt lat="43.42741" lon="6.11487">
        <ele>278.20889282227</ele>
        <time>2014-06-11T14:01:22Z</time>
      </trkpt>
      <trkpt lat="43.4274" lon="6.11495">
        <ele>277.49526977539</ele>
        <time>2014-06-11T14:01:24Z</time>
      </trkpt>
      <trkpt lat="43.42741" lon="6.11505">
        <ele>276.67617797852</ele>
        <time>2014-06-11T14:01:26Z</time>
      </trkpt>
      <trkpt lat="43.42743" lon="6.11511">
        <ele>276.33639526367</ele>
        <time>2014-06-11T14:01:27Z</time>
      </trkpt>
      <trkpt lat="43.42749" lon="6.11522">
        <ele>275.41973876953</ele>
        <time>2014-06-11T14:01:29Z</time>
      </trkpt>
      <trkpt lat="43.42749" lon="6.11529">
        <ele>274.91162109375</ele>
        <time>2014-06-11T14:01:30Z</time>
      </trkpt>
      <trkpt lat="43.4275" lon="6.11536">
        <ele>274.36999511719</ele>
        <time>2014-06-11T14:01:31Z</time>
      </trkpt>
      <trkpt lat="43.42751" lon="6.11543">
        <ele>273.83441162109</ele>
        <time>2014-06-11T14:01:32Z</time>
      </trkpt>
      <trkpt lat="43.42754" lon="6.1156">
        <ele>272.43023681641</ele>
        <time>2014-06-11T14:01:35Z</time>
      </trkpt>
      <trkpt lat="43.42754" lon="6.11565">
        <ele>272.00793457031</ele>
        <time>2014-06-11T14:01:36Z</time>
      </trkpt>
      <trkpt lat="43.42757" lon="6.11588">
        <ele>270.14584350586</ele>
        <time>2014-06-11T14:01:41Z</time>
      </trkpt>
      <trkpt lat="43.42758" lon="6.1161">
        <ele>268.24530029297</ele>
        <time>2014-06-11T14:01:46Z</time>
      </trkpt>
      <trkpt lat="43.42751" lon="6.11629">
        <ele>267.60394287109</ele>
        <time>2014-06-11T14:01:51Z</time>
      </trkpt>
      <trkpt lat="43.42741" lon="6.11635">
        <ele>267.60916137695</ele>
        <time>2014-06-11T14:01:54Z</time>
      </trkpt>
      <trkpt lat="43.4273" lon="6.11643">
        <ele>267.56591796875</ele>
        <time>2014-06-11T14:01:58Z</time>
      </trkpt>
      <trkpt lat="43.42729" lon="6.11642">
        <ele>267.64660644531</ele>
        <time>2014-06-11T14:01:59Z</time>
      </trkpt>
      <trkpt lat="43.42725" lon="6.11646">
        <ele>267.63458251953</ele>
        <time>2014-06-11T14:02:01Z</time>
      </trkpt>
      <trkpt lat="43.42722" lon="6.11652">
        <ele>267.4992980957</ele>
        <time>2014-06-11T14:02:03Z</time>
      </trkpt>
      <trkpt lat="43.42717" lon="6.11663">
        <ele>266.7336730957</ele>
        <time>2014-06-11T14:02:06Z</time>
      </trkpt>
      <trkpt lat="43.42716" lon="6.11672">
        <ele>266.26184082031</ele>
        <time>2014-06-11T14:02:09Z</time>
      </trkpt>
      <trkpt lat="43.42717" lon="6.11675">
        <ele>266.14273071289</ele>
        <time>2014-06-11T14:02:10Z</time>
      </trkpt>
      <trkpt lat="43.42723" lon="6.11683">
        <ele>265.80078125</ele>
        <time>2014-06-11T14:02:13Z</time>
      </trkpt>
      <trkpt lat="43.42725" lon="6.11686">
        <ele>265.51580810547</ele>
        <time>2014-06-11T14:02:14Z</time>
      </trkpt>
      <trkpt lat="43.42733" lon="6.11694">
        <ele>264.65753173828</ele>
        <time>2014-06-11T14:02:18Z</time>
      </trkpt>
      <trkpt lat="43.42736" lon="6.117">
        <ele>264.00524902344</ele>
        <time>2014-06-11T14:02:20Z</time>
      </trkpt>
      <trkpt lat="43.42739" lon="6.11705">
        <ele>263.41860961914</ele>
        <time>2014-06-11T14:02:22Z</time>
      </trkpt>
      <trkpt lat="43.42744" lon="6.11707">
        <ele>262.92752075195</ele>
        <time>2014-06-11T14:02:24Z</time>
      </trkpt>
      <trkpt lat="43.42746" lon="6.11709">
        <ele>262.60604858398</ele>
        <time>2014-06-11T14:02:25Z</time>
      </trkpt>
      <trkpt lat="43.42749" lon="6.1171">
        <ele>262.38757324219</ele>
        <time>2014-06-11T14:02:26Z</time>
      </trkpt>
      <trkpt lat="43.42753" lon="6.1171">
        <ele>261.71624755859</ele>
        <time>2014-06-11T14:02:28Z</time>
      </trkpt>
      <trkpt lat="43.42755" lon="6.11713">
        <ele>260.85986328125</ele>
        <time>2014-06-11T14:02:29Z</time>
      </trkpt>
      <trkpt lat="43.42755" lon="6.11717">
        <ele>260.37182617188</ele>
        <time>2014-06-11T14:02:31Z</time>
      </trkpt>
      <trkpt lat="43.42755" lon="6.1172">
        <ele>260.03021240234</ele>
        <time>2014-06-11T14:02:32Z</time>
      </trkpt>
      <trkpt lat="43.42756" lon="6.11721">
        <ele>259.6330871582</ele>
        <time>2014-06-11T14:02:33Z</time>
      </trkpt>
      <trkpt lat="43.42757" lon="6.11721">
        <ele>259.30621337891</ele>
        <time>2014-06-11T14:02:34Z</time>
      </trkpt>
      <trkpt lat="43.42758" lon="6.11721">
        <ele>259.19879150391</ele>
        <time>2014-06-11T14:02:35Z</time>
      </trkpt>
      <trkpt lat="43.42758" lon="6.11721">
        <ele>259.19879150391</ele>
        <time>2014-06-11T14:02:56Z</time>
      </trkpt>
      <trkpt lat="43.42758" lon="6.11721">
        <ele>259.04440307617</ele>
        <time>2014-06-11T14:03:21Z</time>
      </trkpt>
      <trkpt lat="43.42758" lon="6.11721">
        <ele>259.04440307617</ele>
        <time>2014-06-11T14:03:36Z</time>
      </trkpt>
      <trkpt lat="43.4276" lon="6.11722">
        <ele>258.35562133789</ele>
        <time>2014-06-11T14:03:43Z</time>
      </trkpt>
      <trkpt lat="43.42763" lon="6.11722">
        <ele>257.87420654297</ele>
        <time>2014-06-11T14:03:44Z</time>
      </trkpt>
      <trkpt lat="43.42776" lon="6.11711">
        <ele>256.69723510742</ele>
        <time>2014-06-11T14:03:49Z</time>
      </trkpt>
      <trkpt lat="43.42783" lon="6.11708">
        <ele>254.96516418457</ele>
        <time>2014-06-11T14:03:51Z</time>
      </trkpt>
      <trkpt lat="43.42786" lon="6.11704">
        <ele>254.62457275391</ele>
        <time>2014-06-11T14:03:52Z</time>
      </trkpt>
      <trkpt lat="43.42787" lon="6.11702">
        <ele>254.58224487305</ele>
        <time>2014-06-11T14:03:53Z</time>
      </trkpt>
      <trkpt lat="43.42793" lon="6.11694">
        <ele>253.17460632324</ele>
        <time>2014-06-11T14:03:55Z</time>
      </trkpt>
      <trkpt lat="43.428" lon="6.11692">
        <ele>250.04663085938</ele>
        <time>2014-06-11T14:03:57Z</time>
      </trkpt>
      <trkpt lat="43.42803" lon="6.11695">
        <ele>248.24462890625</ele>
        <time>2014-06-11T14:03:58Z</time>
      </trkpt>
      <trkpt lat="43.42805" lon="6.11699">
        <ele>246.85627746582</ele>
        <time>2014-06-11T14:03:59Z</time>
      </trkpt>
      <trkpt lat="43.42807" lon="6.11707">
        <ele>245.8444519043</ele>
        <time>2014-06-11T14:04:00Z</time>
      </trkpt>
      <trkpt lat="43.42809" lon="6.11715">
        <ele>244.669921875</ele>
        <time>2014-06-11T14:04:01Z</time>
      </trkpt>
      <trkpt lat="43.4281" lon="6.11722">
        <ele>244.01792907715</ele>
        <time>2014-06-11T14:04:02Z</time>
      </trkpt>
      <trkpt lat="43.42811" lon="6.11732">
        <ele>242.96293640137</ele>
        <time>2014-06-11T14:04:03Z</time>
      </trkpt>
      <trkpt lat="43.42811" lon="6.11738">
        <ele>242.4377746582</ele>
        <time>2014-06-11T14:04:04Z</time>
      </trkpt>
      <trkpt lat="43.42809" lon="6.11743">
        <ele>242.28842163086</ele>
        <time>2014-06-11T14:04:05Z</time>
      </trkpt>
      <trkpt lat="43.42806" lon="6.11754">
        <ele>241.70176696777</ele>
        <time>2014-06-11T14:04:07Z</time>
      </trkpt>
      <trkpt lat="43.42804" lon="6.11759">
        <ele>241.75064086914</ele>
        <time>2014-06-11T14:04:08Z</time>
      </trkpt>
      <trkpt lat="43.42802" lon="6.11762">
        <ele>242.29898071289</ele>
        <time>2014-06-11T14:04:09Z</time>
      </trkpt>
      <trkpt lat="43.42799" lon="6.11765">
        <ele>242.92520141602</ele>
        <time>2014-06-11T14:04:10Z</time>
      </trkpt>
      <trkpt lat="43.42798" lon="6.11769">
        <ele>242.81182861328</ele>
        <time>2014-06-11T14:04:11Z</time>
      </trkpt>
      <trkpt lat="43.42797" lon="6.11774">
        <ele>242.65858459473</ele>
        <time>2014-06-11T14:04:12Z</time>
      </trkpt>
      <trkpt lat="43.42798" lon="6.11784">
        <ele>241.36959838867</ele>
        <time>2014-06-11T14:04:15Z</time>
      </trkpt>
      <trkpt lat="43.42804" lon="6.11814">
        <ele>236.71502685547</ele>
        <time>2014-06-11T14:04:22Z</time>
      </trkpt>
      <trkpt lat="43.42805" lon="6.11818">
        <ele>236.21046447754</ele>
        <time>2014-06-11T14:04:23Z</time>
      </trkpt>
      <trkpt lat="43.42805" lon="6.11821">
        <ele>235.86940002441</ele>
        <time>2014-06-11T14:04:24Z</time>
      </trkpt>
      <trkpt lat="43.42805" lon="6.11828">
        <ele>235.45587158203</ele>
        <time>2014-06-11T14:04:26Z</time>
      </trkpt>
      <trkpt lat="43.42804" lon="6.11836">
        <ele>235.12498474121</ele>
        <time>2014-06-11T14:04:29Z</time>
      </trkpt>
      <trkpt lat="43.42801" lon="6.11848">
        <ele>235.25544738769</ele>
        <time>2014-06-11T14:04:34Z</time>
      </trkpt>
      <trkpt lat="43.42801" lon="6.1185">
        <ele>235.30694580078</ele>
        <time>2014-06-11T14:04:35Z</time>
      </trkpt>
      <trkpt lat="43.428" lon="6.11853">
        <ele>235.34985351562</ele>
        <time>2014-06-11T14:04:36Z</time>
      </trkpt>
      <trkpt lat="43.42799" lon="6.11854">
        <ele>235.42883300781</ele>
        <time>2014-06-11T14:04:37Z</time>
      </trkpt>
      <trkpt lat="43.42797" lon="6.11856">
        <ele>235.76356506348</ele>
        <time>2014-06-11T14:04:39Z</time>
      </trkpt>
      <trkpt lat="43.42784" lon="6.11857">
        <ele>238.00889587402</ele>
        <time>2014-06-11T14:04:46Z</time>
      </trkpt>
      <trkpt lat="43.42776" lon="6.11852">
        <ele>239.67880249023</ele>
        <time>2014-06-11T14:04:51Z</time>
      </trkpt>
      <trkpt lat="43.42768" lon="6.11854">
        <ele>240.73538208008</ele>
        <time>2014-06-11T14:04:56Z</time>
      </trkpt>
      <trkpt lat="43.42764" lon="6.11856">
        <ele>241.13758850098</ele>
        <time>2014-06-11T14:04:58Z</time>
      </trkpt>
      <trkpt lat="43.42761" lon="6.11859">
        <ele>241.2001953125</ele>
        <time>2014-06-11T14:05:01Z</time>
      </trkpt>
      <trkpt lat="43.42758" lon="6.1186">
        <ele>241.27626037598</ele>
        <time>2014-06-11T14:05:03Z</time>
      </trkpt>
      <trkpt lat="43.42752" lon="6.11861">
        <ele>241.78742980957</ele>
        <time>2014-06-11T14:05:07Z</time>
      </trkpt>
      <trkpt lat="43.42751" lon="6.11861">
        <ele>241.90245056152</ele>
        <time>2014-06-11T14:05:08Z</time>
      </trkpt>
      <trkpt lat="43.42744" lon="6.1187">
        <ele>243.31387329102</ele>
        <time>2014-06-11T14:05:17Z</time>
      </trkpt>
      <trkpt lat="43.42731" lon="6.11872">
        <ele>247.54360961914</ele>
        <time>2014-06-11T14:05:27Z</time>
      </trkpt>
      <trkpt lat="43.42727" lon="6.11874">
        <ele>249.05079650879</ele>
        <time>2014-06-11T14:05:31Z</time>
      </trkpt>
      <trkpt lat="43.42715" lon="6.11882">
        <ele>252.21408081055</ele>
        <time>2014-06-11T14:05:43Z</time>
      </trkpt>
      <trkpt lat="43.42706" lon="6.11887">
        <ele>255.52281188965</ele>
        <time>2014-06-11T14:05:52Z</time>
      </trkpt>
      <trkpt lat="43.42699" lon="6.11898">
        <ele>257.63632202148</ele>
        <time>2014-06-11T14:06:00Z</time>
      </trkpt>
      <trkpt lat="43.42699" lon="6.11902">
        <ele>257.31860351562</ele>
        <time>2014-06-11T14:06:02Z</time>
      </trkpt>
      <trkpt lat="43.42699" lon="6.11908">
        <ele>256.55465698242</ele>
        <time>2014-06-11T14:06:05Z</time>
      </trkpt>
      <trkpt lat="43.42699" lon="6.11911">
        <ele>256.42498779297</ele>
        <time>2014-06-11T14:06:07Z</time>
      </trkpt>
      <trkpt lat="43.427" lon="6.11915">
        <ele>255.68464660644</ele>
        <time>2014-06-11T14:06:10Z</time>
      </trkpt>
      <trkpt lat="43.42701" lon="6.11915">
        <ele>255.47897338867</ele>
        <time>2014-06-11T14:06:11Z</time>
      </trkpt>
      <trkpt lat="43.42701" lon="6.11916">
        <ele>255.36460876465</ele>
        <time>2014-06-11T14:06:14Z</time>
      </trkpt>
      <trkpt lat="43.42702" lon="6.11922">
        <ele>254.44116210938</ele>
        <time>2014-06-11T14:06:16Z</time>
      </trkpt>
      <trkpt lat="43.42705" lon="6.11929">
        <ele>252.73970031738</ele>
        <time>2014-06-11T14:06:18Z</time>
      </trkpt>
      <trkpt lat="43.42711" lon="6.11936">
        <ele>249.59466552734</ele>
        <time>2014-06-11T14:06:20Z</time>
      </trkpt>
      <trkpt lat="43.42715" lon="6.1194">
        <ele>247.80397033691</ele>
        <time>2014-06-11T14:06:21Z</time>
      </trkpt>
      <trkpt lat="43.42725" lon="6.11951">
        <ele>242.65130615234</ele>
        <time>2014-06-11T14:06:24Z</time>
      </trkpt>
      <trkpt lat="43.42732" lon="6.11956">
        <ele>241.02558898926</ele>
        <time>2014-06-11T14:06:26Z</time>
      </trkpt>
      <trkpt lat="43.42733" lon="6.1196">
        <ele>240.49295043945</ele>
        <time>2014-06-11T14:06:27Z</time>
      </trkpt>
      <trkpt lat="43.42734" lon="6.11965">
        <ele>239.87649536133</ele>
        <time>2014-06-11T14:06:28Z</time>
      </trkpt>
      <trkpt lat="43.42734" lon="6.11971">
        <ele>239.30302429199</ele>
        <time>2014-06-11T14:06:29Z</time>
      </trkpt>
      <trkpt lat="43.42734" lon="6.12017">
        <ele>238.85543823242</ele>
        <time>2014-06-11T14:06:38Z</time>
      </trkpt>
      <trkpt lat="43.42735" lon="6.12027">
        <ele>238.71313476562</ele>
        <time>2014-06-11T14:06:40Z</time>
      </trkpt>
      <trkpt lat="43.42733" lon="6.1203">
        <ele>239.02429199219</ele>
        <time>2014-06-11T14:06:41Z</time>
      </trkpt>
      <trkpt lat="43.42732" lon="6.12034">
        <ele>239.28381347656</ele>
        <time>2014-06-11T14:06:42Z</time>
      </trkpt>
      <trkpt lat="43.42732" lon="6.12039">
        <ele>239.39978027344</ele>
        <time>2014-06-11T14:06:43Z</time>
      </trkpt>
      <trkpt lat="43.42734" lon="6.12063">
        <ele>239.59826660156</ele>
        <time>2014-06-11T14:06:48Z</time>
      </trkpt>
      <trkpt lat="43.42737" lon="6.12085">
        <ele>239.84350585938</ele>
        <time>2014-06-11T14:06:52Z</time>
      </trkpt>
      <trkpt lat="43.42741" lon="6.12098">
        <ele>239.2392578125</ele>
        <time>2014-06-11T14:06:54Z</time>
      </trkpt>
      <trkpt lat="43.42745" lon="6.12104">
        <ele>238.74487304688</ele>
        <time>2014-06-11T14:06:55Z</time>
      </trkpt>
      <trkpt lat="43.42748" lon="6.12108">
        <ele>238.25048828125</ele>
        <time>2014-06-11T14:06:56Z</time>
      </trkpt>
      <trkpt lat="43.42754" lon="6.12115">
        <ele>236.90026855469</ele>
        <time>2014-06-11T14:06:58Z</time>
      </trkpt>
      <trkpt lat="43.42757" lon="6.12117">
        <ele>236.32348632812</ele>
        <time>2014-06-11T14:06:59Z</time>
      </trkpt>
      <trkpt lat="43.42756" lon="6.12123">
        <ele>236.41961669922</ele>
        <time>2014-06-11T14:07:01Z</time>
      </trkpt>
      <trkpt lat="43.42762" lon="6.12138">
        <ele>234.97766113281</ele>
        <time>2014-06-11T14:07:05Z</time>
      </trkpt>
      <trkpt lat="43.42763" lon="6.12142">
        <ele>234.68927001953</ele>
        <time>2014-06-11T14:07:06Z</time>
      </trkpt>
      <trkpt lat="43.42765" lon="6.12146">
        <ele>234.11248779297</ele>
        <time>2014-06-11T14:07:07Z</time>
      </trkpt>
      <trkpt lat="43.42769" lon="6.12153">
        <ele>233.15118408203</ele>
        <time>2014-06-11T14:07:09Z</time>
      </trkpt>
      <trkpt lat="43.42773" lon="6.12158">
        <ele>232.09375</ele>
        <time>2014-06-11T14:07:11Z</time>
      </trkpt>
      <trkpt lat="43.42785" lon="6.12167">
        <ele>228.56494140625</ele>
        <time>2014-06-11T14:07:15Z</time>
      </trkpt>
      <trkpt lat="43.42796" lon="6.12169">
        <ele>225.08700561523</ele>
        <time>2014-06-11T14:07:18Z</time>
      </trkpt>
      <trkpt lat="43.42799" lon="6.12168">
        <ele>224.05110168457</ele>
        <time>2014-06-11T14:07:19Z</time>
      </trkpt>
      <trkpt lat="43.42801" lon="6.12167">
        <ele>223.48370361328</ele>
        <time>2014-06-11T14:07:20Z</time>
      </trkpt>
      <trkpt lat="43.42809" lon="6.12168">
        <ele>221.35375976562</ele>
        <time>2014-06-11T14:07:25Z</time>
      </trkpt>
      <trkpt lat="43.4282" lon="6.12166">
        <ele>219.484375</ele>
        <time>2014-06-11T14:07:30Z</time>
      </trkpt>
      <trkpt lat="43.4283" lon="6.12166">
        <ele>217.65071105957</ele>
        <time>2014-06-11T14:07:33Z</time>
      </trkpt>
      <trkpt lat="43.42832" lon="6.12166">
        <ele>217.31449890137</ele>
        <time>2014-06-11T14:07:34Z</time>
      </trkpt>
      <trkpt lat="43.42835" lon="6.12167">
        <ele>216.52520751953</ele>
        <time>2014-06-11T14:07:35Z</time>
      </trkpt>
      <trkpt lat="43.42838" lon="6.12166">
        <ele>215.86470031738</ele>
        <time>2014-06-11T14:07:36Z</time>
      </trkpt>
      <trkpt lat="43.4285" lon="6.12167">
        <ele>212.77290344238</ele>
        <time>2014-06-11T14:07:39Z</time>
      </trkpt>
      <trkpt lat="43.42869" lon="6.12166">
        <ele>209.17419433594</ele>
        <time>2014-06-11T14:07:44Z</time>
      </trkpt>
      <trkpt lat="43.42875" lon="6.12165">
        <ele>208.69354248047</ele>
        <time>2014-06-11T14:07:45Z</time>
      </trkpt>
      <trkpt lat="43.4288" lon="6.12164">
        <ele>208.16825866699</ele>
        <time>2014-06-11T14:07:46Z</time>
      </trkpt>
      <trkpt lat="43.42885" lon="6.12163">
        <ele>207.69104003906</ele>
        <time>2014-06-11T14:07:47Z</time>
      </trkpt>
      <trkpt lat="43.4289" lon="6.12162">
        <ele>207.35188293457</ele>
        <time>2014-06-11T14:07:48Z</time>
      </trkpt>
      <trkpt lat="43.42899" lon="6.12158">
        <ele>207.65400695801</ele>
        <time>2014-06-11T14:07:50Z</time>
      </trkpt>
      <trkpt lat="43.42907" lon="6.12145">
        <ele>208.58097839356</ele>
        <time>2014-06-11T14:07:53Z</time>
      </trkpt>
      <trkpt lat="43.42909" lon="6.12139">
        <ele>208.96549987793</ele>
        <time>2014-06-11T14:07:54Z</time>
      </trkpt>
      <trkpt lat="43.42906" lon="6.12124">
        <ele>209.33351135254</ele>
        <time>2014-06-11T14:07:57Z</time>
      </trkpt>
      <trkpt lat="43.42908" lon="6.12113">
        <ele>209.66453552246</ele>
        <time>2014-06-11T14:07:59Z</time>
      </trkpt>
      <trkpt lat="43.42908" lon="6.12106">
        <ele>209.91926574707</ele>
        <time>2014-06-11T14:08:00Z</time>
      </trkpt>
      <trkpt lat="43.42906" lon="6.12093">
        <ele>210.51504516602</ele>
        <time>2014-06-11T14:08:02Z</time>
      </trkpt>
      <trkpt lat="43.42907" lon="6.1208">
        <ele>211.17098999023</ele>
        <time>2014-06-11T14:08:04Z</time>
      </trkpt>
      <trkpt lat="43.42907" lon="6.12073">
        <ele>211.60362243652</ele>
        <time>2014-06-11T14:08:05Z</time>
      </trkpt>
      <trkpt lat="43.42904" lon="6.1206">
        <ele>212.30592346191</ele>
        <time>2014-06-11T14:08:07Z</time>
      </trkpt>
      <trkpt lat="43.42899" lon="6.12041">
        <ele>212.8585357666</ele>
        <time>2014-06-11T14:08:10Z</time>
      </trkpt>
      <trkpt lat="43.42899" lon="6.12027">
        <ele>213.3821105957</ele>
        <time>2014-06-11T14:08:12Z</time>
      </trkpt>
      <trkpt lat="43.42898" lon="6.1202">
        <ele>213.60697937012</ele>
        <time>2014-06-11T14:08:13Z</time>
      </trkpt>
      <trkpt lat="43.42896" lon="6.12007">
        <ele>213.98806762695</ele>
        <time>2014-06-11T14:08:15Z</time>
      </trkpt>
      <trkpt lat="43.42892" lon="6.11996">
        <ele>214.255859375</ele>
        <time>2014-06-11T14:08:17Z</time>
      </trkpt>
      <trkpt lat="43.42889" lon="6.11991">
        <ele>214.32623291016</ele>
        <time>2014-06-11T14:08:18Z</time>
      </trkpt>
      <trkpt lat="43.42886" lon="6.11989">
        <ele>214.83256530762</ele>
        <time>2014-06-11T14:08:19Z</time>
      </trkpt>
      <trkpt lat="43.42884" lon="6.11985">
        <ele>215.22395324707</ele>
        <time>2014-06-11T14:08:20Z</time>
      </trkpt>
      <trkpt lat="43.42883" lon="6.11981">
        <ele>215.53637695312</ele>
        <time>2014-06-11T14:08:21Z</time>
      </trkpt>
      <trkpt lat="43.4288" lon="6.11972">
        <ele>216.24362182617</ele>
        <time>2014-06-11T14:08:23Z</time>
      </trkpt>
      <trkpt lat="43.42879" lon="6.1196">
        <ele>216.86676025391</ele>
        <time>2014-06-11T14:08:26Z</time>
      </trkpt>
      <trkpt lat="43.42877" lon="6.11946">
        <ele>217.66497802734</ele>
        <time>2014-06-11T14:08:29Z</time>
      </trkpt>
      <trkpt lat="43.42876" lon="6.11939">
        <ele>218.09255981445</ele>
        <time>2014-06-11T14:08:31Z</time>
      </trkpt>
      <trkpt lat="43.42876" lon="6.11936">
        <ele>218.2077331543</ele>
        <time>2014-06-11T14:08:32Z</time>
      </trkpt>
      <trkpt lat="43.42876" lon="6.11931">
        <ele>218.35284423828</ele>
        <time>2014-06-11T14:08:33Z</time>
      </trkpt>
      <trkpt lat="43.42876" lon="6.11926">
        <ele>218.55967712402</ele>
        <time>2014-06-11T14:08:34Z</time>
      </trkpt>
      <trkpt lat="43.42877" lon="6.1192">
        <ele>218.71322631836</ele>
        <time>2014-06-11T14:08:35Z</time>
      </trkpt>
      <trkpt lat="43.42876" lon="6.11898">
        <ele>219.57833862305</ele>
        <time>2014-06-11T14:08:39Z</time>
      </trkpt>
      <trkpt lat="43.42873" lon="6.11889">
        <ele>220.32481384277</ele>
        <time>2014-06-11T14:08:41Z</time>
      </trkpt>
      <trkpt lat="43.42872" lon="6.11886">
        <ele>220.68977355957</ele>
        <time>2014-06-11T14:08:42Z</time>
      </trkpt>
      <trkpt lat="43.42871" lon="6.11882">
        <ele>220.96786499023</ele>
        <time>2014-06-11T14:08:43Z</time>
      </trkpt>
      <trkpt lat="43.42872" lon="6.1188">
        <ele>221.0262298584</ele>
        <time>2014-06-11T14:08:44Z</time>
      </trkpt>
      <trkpt lat="43.42873" lon="6.11878">
        <ele>221.14982604981</ele>
        <time>2014-06-11T14:08:48Z</time>
      </trkpt>
      <trkpt lat="43.42873" lon="6.11876">
        <ele>221.26312255859</ele>
        <time>2014-06-11T14:08:49Z</time>
      </trkpt>
      <trkpt lat="43.42873" lon="6.11876">
        <ele>221.29402160644</ele>
        <time>2014-06-11T14:08:50Z</time>
      </trkpt>
      <trkpt lat="43.42873" lon="6.11874">
        <ele>221.30088806152</ele>
        <time>2014-06-11T14:08:51Z</time>
      </trkpt>
      <trkpt lat="43.42874" lon="6.11873">
        <ele>221.28715515137</ele>
        <time>2014-06-11T14:08:52Z</time>
      </trkpt>
      <trkpt lat="43.42874" lon="6.11871">
        <ele>221.43478393555</ele>
        <time>2014-06-11T14:08:53Z</time>
      </trkpt>
      <trkpt lat="43.42873" lon="6.11861">
        <ele>222.23129272461</ele>
        <time>2014-06-11T14:08:57Z</time>
      </trkpt>
      <trkpt lat="43.42868" lon="6.1185">
        <ele>223.37504577637</ele>
        <time>2014-06-11T14:09:02Z</time>
      </trkpt>
      <trkpt lat="43.42869" lon="6.11843">
        <ele>223.37554931641</ele>
        <time>2014-06-11T14:09:04Z</time>
      </trkpt>
      <trkpt lat="43.42868" lon="6.11833">
        <ele>223.79206848144</ele>
        <time>2014-06-11T14:09:06Z</time>
      </trkpt>
      <trkpt lat="43.4287" lon="6.11823">
        <ele>225.24412536621</ele>
        <time>2014-06-11T14:09:08Z</time>
      </trkpt>
      <trkpt lat="43.42871" lon="6.11816">
        <ele>226.45979309082</ele>
        <time>2014-06-11T14:09:09Z</time>
      </trkpt>
      <trkpt lat="43.42872" lon="6.11811">
        <ele>227.45805358887</ele>
        <time>2014-06-11T14:09:10Z</time>
      </trkpt>
      <trkpt lat="43.42873" lon="6.11806">
        <ele>228.14289855957</ele>
        <time>2014-06-11T14:09:11Z</time>
      </trkpt>
      <trkpt lat="43.42873" lon="6.11801">
        <ele>229.25274658203</ele>
        <time>2014-06-11T14:09:12Z</time>
      </trkpt>
      <trkpt lat="43.42874" lon="6.11791">
        <ele>231.55171203613</ele>
        <time>2014-06-11T14:09:14Z</time>
      </trkpt>
      <trkpt lat="43.42873" lon="6.11786">
        <ele>232.83894348144</ele>
        <time>2014-06-11T14:09:16Z</time>
      </trkpt>
      <trkpt lat="43.42872" lon="6.11785">
        <ele>233.08319091797</ele>
        <time>2014-06-11T14:09:17Z</time>
      </trkpt>
      <trkpt lat="43.42873" lon="6.11785">
        <ele>233.06033325195</ele>
        <time>2014-06-11T14:09:18Z</time>
      </trkpt>
      <trkpt lat="43.42873" lon="6.11786">
        <ele>232.88415527344</ele>
        <time>2014-06-11T14:09:19Z</time>
      </trkpt>
      <trkpt lat="43.42874" lon="6.11785">
        <ele>232.92582702637</ele>
        <time>2014-06-11T14:09:20Z</time>
      </trkpt>
      <trkpt lat="43.42875" lon="6.11786">
        <ele>232.70262145996</ele>
        <time>2014-06-11T14:09:21Z</time>
      </trkpt>
      <trkpt lat="43.42875" lon="6.11785">
        <ele>232.80249023438</ele>
        <time>2014-06-11T14:09:27Z</time>
      </trkpt>
      <trkpt lat="43.42875" lon="6.11785">
        <ele>232.96971130371</ele>
        <time>2014-06-11T14:09:30Z</time>
      </trkpt>
      <trkpt lat="43.42875" lon="6.11783">
        <ele>233.24794006348</ele>
        <time>2014-06-11T14:09:33Z</time>
      </trkpt>
      <trkpt lat="43.42873" lon="6.1178">
        <ele>234.3155670166</ele>
        <time>2014-06-11T14:09:38Z</time>
      </trkpt>
      <trkpt lat="43.42873" lon="6.11778">
        <ele>234.73397827148</ele>
        <time>2014-06-11T14:09:39Z</time>
      </trkpt>
      <trkpt lat="43.42874" lon="6.11773">
        <ele>234.70613098144</ele>
        <time>2014-06-11T14:09:43Z</time>
      </trkpt>
      <trkpt lat="43.42876" lon="6.1177">
        <ele>234.54225158691</ele>
        <time>2014-06-11T14:09:50Z</time>
      </trkpt>
      <trkpt lat="43.42877" lon="6.1177">
        <ele>234.46588134766</ele>
        <time>2014-06-11T14:09:56Z</time>
      </trkpt>
      <trkpt lat="43.42877" lon="6.1177">
        <ele>234.42065429688</ele>
        <time>2014-06-11T14:09:57Z</time>
      </trkpt>
      <trkpt lat="43.42878" lon="6.1177">
        <ele>234.38320922852</ele>
        <time>2014-06-11T14:10:05Z</time>
      </trkpt>
      <trkpt lat="43.42878" lon="6.1177">
        <ele>234.31042480469</ele>
        <time>2014-06-11T14:10:17Z</time>
      </trkpt>
      <trkpt lat="43.42878" lon="6.1177">
        <ele>234.31042480469</ele>
        <time>2014-06-11T14:10:20Z</time>
      </trkpt>
      <trkpt lat="43.42878" lon="6.11771">
        <ele>234.33117675781</ele>
        <time>2014-06-11T14:10:22Z</time>
      </trkpt>
      <trkpt lat="43.42878" lon="6.11771">
        <ele>234.33117675781</ele>
        <time>2014-06-11T14:10:35Z</time>
      </trkpt>
      <trkpt lat="43.42879" lon="6.11771">
        <ele>234.25016784668</ele>
        <time>2014-06-11T14:10:44Z</time>
      </trkpt>
      <trkpt lat="43.4288" lon="6.11771">
        <ele>234.09147644043</ele>
        <time>2014-06-11T14:10:51Z</time>
      </trkpt>
      <trkpt lat="43.4288" lon="6.11771">
        <ele>234.09147644043</ele>
        <time>2014-06-11T14:11:04Z</time>
      </trkpt>
      <trkpt lat="43.4288" lon="6.11771">
        <ele>234.09147644043</ele>
        <time>2014-06-11T14:11:07Z</time>
      </trkpt>
      <trkpt lat="43.42881" lon="6.11772">
        <ele>233.95603942871</ele>
        <time>2014-06-11T14:11:14Z</time>
      </trkpt>
      <trkpt lat="43.42883" lon="6.11773">
        <ele>233.7928314209</ele>
        <time>2014-06-11T14:11:30Z</time>
      </trkpt>
      <trkpt lat="43.42883" lon="6.11773">
        <ele>233.7928314209</ele>
        <time>2014-06-11T14:11:41Z</time>
      </trkpt>
      <trkpt lat="43.42883" lon="6.11773">
        <ele>233.7928314209</ele>
        <time>2014-06-11T14:11:50Z</time>
      </trkpt>
      <trkpt lat="43.42883" lon="6.11773">
        <ele>233.81289672852</ele>
        <time>2014-06-11T14:11:58Z</time>
      </trkpt>
      <trkpt lat="43.42883" lon="6.11773">
        <ele>233.74462890625</ele>
        <time>2014-06-11T14:12:05Z</time>
      </trkpt>
      <trkpt lat="43.42883" lon="6.11773">
        <ele>233.74462890625</ele>
        <time>2014-06-11T14:12:30Z</time>
      </trkpt>
      <trkpt lat="43.42883" lon="6.11773">
        <ele>233.74462890625</ele>
        <time>2014-06-11T14:12:38Z</time>
      </trkpt>
      <trkpt lat="43.42884" lon="6.11773">
        <ele>233.71562194824</ele>
        <time>2014-06-11T14:12:44Z</time>
      </trkpt>
      <trkpt lat="43.42886" lon="6.11774">
        <ele>233.48928833008</ele>
        <time>2014-06-11T14:12:53Z</time>
      </trkpt>
      <trkpt lat="43.42886" lon="6.11773">
        <ele>233.46553039551</ele>
        <time>2014-06-11T14:13:00Z</time>
      </trkpt>
      <trkpt lat="43.42891" lon="6.11784">
        <ele>231.20629882812</ele>
        <time>2014-06-11T14:13:04Z</time>
      </trkpt>
      <trkpt lat="43.42895" lon="6.11803">
        <ele>225.96435546875</ele>
        <time>2014-06-11T14:13:08Z</time>
      </trkpt>
      <trkpt lat="43.42895" lon="6.11808">
        <ele>225.01473999023</ele>
        <time>2014-06-11T14:13:09Z</time>
      </trkpt>
      <trkpt lat="43.42896" lon="6.11821">
        <ele>222.68453979492</ele>
        <time>2014-06-11T14:13:12Z</time>
      </trkpt>
      <trkpt lat="43.42899" lon="6.1183">
        <ele>221.14950561523</ele>
        <time>2014-06-11T14:13:14Z</time>
      </trkpt>
      <trkpt lat="43.42902" lon="6.11843">
        <ele>220.75640869141</ele>
        <time>2014-06-11T14:13:16Z</time>
      </trkpt>
      <trkpt lat="43.42903" lon="6.11849">
        <ele>220.71131896973</ele>
        <time>2014-06-11T14:13:17Z</time>
      </trkpt>
      <trkpt lat="43.42905" lon="6.11861">
        <ele>220.55595397949</ele>
        <time>2014-06-11T14:13:19Z</time>
      </trkpt>
      <trkpt lat="43.4291" lon="6.11885">
        <ele>219.01100158691</ele>
        <time>2014-06-11T14:13:23Z</time>
      </trkpt>
      <trkpt lat="43.42914" lon="6.11901">
        <ele>218.91119384766</ele>
        <time>2014-06-11T14:13:26Z</time>
      </trkpt>
      <trkpt lat="43.42918" lon="6.11911">
        <ele>219.04127502441</ele>
        <time>2014-06-11T14:13:28Z</time>
      </trkpt>
      <trkpt lat="43.42916" lon="6.1192">
        <ele>218.71760559082</ele>
        <time>2014-06-11T14:13:30Z</time>
      </trkpt>
      <trkpt lat="43.42917" lon="6.11924">
        <ele>218.49787902832</ele>
        <time>2014-06-11T14:13:31Z</time>
      </trkpt>
      <trkpt lat="43.42918" lon="6.11932">
        <ele>217.95542907715</ele>
        <time>2014-06-11T14:13:34Z</time>
      </trkpt>
      <trkpt lat="43.42919" lon="6.11935">
        <ele>217.7666015625</ele>
        <time>2014-06-11T14:13:35Z</time>
      </trkpt>
      <trkpt lat="43.42922" lon="6.11947">
        <ele>217.11917114258</ele>
        <time>2014-06-11T14:13:38Z</time>
      </trkpt>
      <trkpt lat="43.42925" lon="6.11951">
        <ele>217.06594848633</ele>
        <time>2014-06-11T14:13:39Z</time>
      </trkpt>
      <trkpt lat="43.42927" lon="6.11956">
        <ele>216.96810913086</ele>
        <time>2014-06-11T14:13:40Z</time>
      </trkpt>
      <trkpt lat="43.42929" lon="6.11961">
        <ele>216.82907104492</ele>
        <time>2014-06-11T14:13:41Z</time>
      </trkpt>
      <trkpt lat="43.42933" lon="6.11977">
        <ele>216.40676879883</ele>
        <time>2014-06-11T14:13:44Z</time>
      </trkpt>
      <trkpt lat="43.42936" lon="6.11989">
        <ele>216.09777832031</ele>
        <time>2014-06-11T14:13:46Z</time>
      </trkpt>
      <trkpt lat="43.42936" lon="6.12001">
        <ele>215.67030334473</ele>
        <time>2014-06-11T14:13:48Z</time>
      </trkpt>
      <trkpt lat="43.4295" lon="6.12032">
        <ele>213.65162658691</ele>
        <time>2014-06-11T14:13:54Z</time>
      </trkpt>
      <trkpt lat="43.4296" lon="6.12066">
        <ele>211.65576171875</ele>
        <time>2014-06-11T14:14:00Z</time>
      </trkpt>
      <trkpt lat="43.42968" lon="6.12092">
        <ele>209.51342773438</ele>
        <time>2014-06-11T14:14:04Z</time>
      </trkpt>
      <trkpt lat="43.42974" lon="6.12119">
        <ele>207.65534973144</ele>
        <time>2014-06-11T14:14:08Z</time>
      </trkpt>
      <trkpt lat="43.4298" lon="6.12146">
        <ele>206.40361022949</ele>
        <time>2014-06-11T14:14:12Z</time>
      </trkpt>
      <trkpt lat="43.42996" lon="6.12206">
        <ele>202.73287963867</ele>
        <time>2014-06-11T14:14:21Z</time>
      </trkpt>
      <trkpt lat="43.42999" lon="6.12221">
        <ele>202.08229064941</ele>
        <time>2014-06-11T14:14:23Z</time>
      </trkpt>
      <trkpt lat="43.43001" lon="6.12229">
        <ele>201.52476501465</ele>
        <time>2014-06-11T14:14:24Z</time>
      </trkpt>
      <trkpt lat="43.43003" lon="6.12237">
        <ele>200.93424987793</ele>
        <time>2014-06-11T14:14:25Z</time>
      </trkpt>
      <trkpt lat="43.43011" lon="6.1226">
        <ele>199.65173339844</ele>
        <time>2014-06-11T14:14:28Z</time>
      </trkpt>
      <trkpt lat="43.43015" lon="6.12274">
        <ele>199.1350402832</ele>
        <time>2014-06-11T14:14:30Z</time>
      </trkpt>
      <trkpt lat="43.43018" lon="6.12287">
        <ele>198.87750244141</ele>
        <time>2014-06-11T14:14:32Z</time>
      </trkpt>
      <trkpt lat="43.43018" lon="6.12293">
        <ele>198.81727600098</ele>
        <time>2014-06-11T14:14:33Z</time>
      </trkpt>
      <trkpt lat="43.43018" lon="6.12305">
        <ele>198.64239501953</ele>
        <time>2014-06-11T14:14:35Z</time>
      </trkpt>
      <trkpt lat="43.43017" lon="6.1231">
        <ele>198.34727478027</ele>
        <time>2014-06-11T14:14:36Z</time>
      </trkpt>
      <trkpt lat="43.43017" lon="6.1232">
        <ele>197.74610900879</ele>
        <time>2014-06-11T14:14:38Z</time>
      </trkpt>
      <trkpt lat="43.43021" lon="6.12343">
        <ele>196.54689025879</ele>
        <time>2014-06-11T14:14:42Z</time>
      </trkpt>
      <trkpt lat="43.43024" lon="6.1236">
        <ele>195.93054199219</ele>
        <time>2014-06-11T14:14:45Z</time>
      </trkpt>
      <trkpt lat="43.43026" lon="6.12364">
        <ele>195.81869506836</ele>
        <time>2014-06-11T14:14:46Z</time>
      </trkpt>
      <trkpt lat="43.43026" lon="6.12367">
        <ele>195.71914672852</ele>
        <time>2014-06-11T14:14:47Z</time>
      </trkpt>
      <trkpt lat="43.43027" lon="6.12371">
        <ele>195.62815856934</ele>
        <time>2014-06-11T14:14:48Z</time>
      </trkpt>
      <trkpt lat="43.43027" lon="6.12373">
        <ele>195.52688598633</ele>
        <time>2014-06-11T14:14:49Z</time>
      </trkpt>
      <trkpt lat="43.43026" lon="6.12378">
        <ele>195.32431030273</ele>
        <time>2014-06-11T14:14:51Z</time>
      </trkpt>
      <trkpt lat="43.43023" lon="6.12381">
        <ele>195.08056640625</ele>
        <time>2014-06-11T14:14:54Z</time>
      </trkpt>
      <trkpt lat="43.43022" lon="6.12382">
        <ele>195.04278564453</ele>
        <time>2014-06-11T14:14:55Z</time>
      </trkpt>
      <trkpt lat="43.43015" lon="6.12381">
        <ele>194.84538269043</ele>
        <time>2014-06-11T14:15:01Z</time>
      </trkpt>
      <trkpt lat="43.43013" lon="6.12375">
        <ele>194.96383666992</ele>
        <time>2014-06-11T14:15:06Z</time>
      </trkpt>
      <trkpt lat="43.43013" lon="6.1237">
        <ele>195.14407348633</ele>
        <time>2014-06-11T14:15:10Z</time>
      </trkpt>
      <trkpt lat="43.43012" lon="6.12365">
        <ele>195.27624511719</ele>
        <time>2014-06-11T14:15:15Z</time>
      </trkpt>
      <trkpt lat="43.43012" lon="6.12357">
        <ele>195.68493652344</ele>
        <time>2014-06-11T14:15:21Z</time>
      </trkpt>
      <trkpt lat="43.43013" lon="6.12351">
        <ele>196.04208374023</ele>
        <time>2014-06-11T14:15:25Z</time>
      </trkpt>
      <trkpt lat="43.43014" lon="6.12346">
        <ele>196.32009887695</ele>
        <time>2014-06-11T14:15:28Z</time>
      </trkpt>
      <trkpt lat="43.43011" lon="6.12335">
        <ele>196.87945556641</ele>
        <time>2014-06-11T14:15:33Z</time>
      </trkpt>
      <trkpt lat="43.4301" lon="6.12325">
        <ele>197.38876342773</ele>
        <time>2014-06-11T14:15:37Z</time>
      </trkpt>
      <trkpt lat="43.43008" lon="6.12321">
        <ele>197.57885742188</ele>
        <time>2014-06-11T14:15:39Z</time>
      </trkpt>
      <trkpt lat="43.43007" lon="6.12317">
        <ele>197.7306060791</ele>
        <time>2014-06-11T14:15:41Z</time>
      </trkpt>
      <trkpt lat="43.43005" lon="6.12313">
        <ele>197.86212158203</ele>
        <time>2014-06-11T14:15:43Z</time>
      </trkpt>
      <trkpt lat="43.43001" lon="6.12301">
        <ele>198.17565917969</ele>
        <time>2014-06-11T14:15:50Z</time>
      </trkpt>
      <trkpt lat="43.43" lon="6.12298">
        <ele>198.28952026367</ele>
        <time>2014-06-11T14:15:52Z</time>
      </trkpt>
      <trkpt lat="43.42998" lon="6.12289">
        <ele>198.59429931641</ele>
        <time>2014-06-11T14:15:57Z</time>
      </trkpt>
      <trkpt lat="43.42991" lon="6.12278">
        <ele>198.99771118164</ele>
        <time>2014-06-11T14:16:05Z</time>
      </trkpt>
      <trkpt lat="43.4299" lon="6.12271">
        <ele>199.30879211426</ele>
        <time>2014-06-11T14:16:09Z</time>
      </trkpt>
      <trkpt lat="43.42984" lon="6.12262">
        <ele>199.90536499023</ele>
        <time>2014-06-11T14:16:16Z</time>
      </trkpt>
      <trkpt lat="43.4298" lon="6.12254">
        <ele>200.46340942383</ele>
        <time>2014-06-11T14:16:22Z</time>
      </trkpt>
      <trkpt lat="43.42977" lon="6.12249">
        <ele>200.88508605957</ele>
        <time>2014-06-11T14:16:26Z</time>
      </trkpt>
      <trkpt lat="43.4297" lon="6.12244">
        <ele>201.53053283691</ele>
        <time>2014-06-11T14:16:32Z</time>
      </trkpt>
      <trkpt lat="43.42967" lon="6.12242">
        <ele>201.73652648926</ele>
        <time>2014-06-11T14:16:34Z</time>
      </trkpt>
      <trkpt lat="43.42959" lon="6.12239">
        <ele>202.27210998535</ele>
        <time>2014-06-11T14:16:41Z</time>
      </trkpt>
      <trkpt lat="43.42959" lon="6.12239">
        <ele>202.28584289551</ele>
        <time>2014-06-11T14:16:47Z</time>
      </trkpt>
      <trkpt lat="43.42959" lon="6.12239">
        <ele>202.28584289551</ele>
        <time>2014-06-11T14:17:08Z</time>
      </trkpt>
      <trkpt lat="43.42959" lon="6.12239">
        <ele>202.28584289551</ele>
        <time>2014-06-11T14:17:21Z</time>
      </trkpt>
      <trkpt lat="43.42959" lon="6.12239">
        <ele>202.27897644043</ele>
        <time>2014-06-11T14:17:22Z</time>
      </trkpt>
      <trkpt lat="43.42959" lon="6.12239">
        <ele>202.27897644043</ele>
        <time>2014-06-11T14:17:39Z</time>
      </trkpt>
      <trkpt lat="43.42959" lon="6.12239">
        <ele>202.27897644043</ele>
        <time>2014-06-11T14:17:58Z</time>
      </trkpt>
      <trkpt lat="43.42959" lon="6.12239">
        <ele>202.27554321289</ele>
        <time>2014-06-11T14:18:00Z</time>
      </trkpt>
      <trkpt lat="43.42953" lon="6.12238">
        <ele>202.55706787109</ele>
        <time>2014-06-11T14:18:04Z</time>
      </trkpt>
      <trkpt lat="43.42947" lon="6.12236">
        <ele>202.89695739746</ele>
        <time>2014-06-11T14:18:10Z</time>
      </trkpt>
      <trkpt lat="43.42943" lon="6.12236">
        <ele>203.04801940918</ele>
        <time>2014-06-11T14:18:15Z</time>
      </trkpt>
      <trkpt lat="43.4294" lon="6.12236">
        <ele>203.17161560059</ele>
        <time>2014-06-11T14:18:20Z</time>
      </trkpt>
      <trkpt lat="43.42939" lon="6.12236">
        <ele>203.22311401367</ele>
        <time>2014-06-11T14:18:28Z</time>
      </trkpt>
      <trkpt lat="43.42936" lon="6.12235">
        <ele>203.38790893555</ele>
        <time>2014-06-11T14:18:32Z</time>
      </trkpt>
      <trkpt lat="43.42934" lon="6.12235">
        <ele>203.40507507324</ele>
        <time>2014-06-11T14:18:33Z</time>
      </trkpt>
      <trkpt lat="43.42931" lon="6.12235">
        <ele>203.57673645019</ele>
        <time>2014-06-11T14:18:39Z</time>
      </trkpt>
      <trkpt lat="43.4293" lon="6.12235">
        <ele>203.63166809082</ele>
        <time>2014-06-11T14:18:45Z</time>
      </trkpt>
      <trkpt lat="43.42929" lon="6.12234">
        <ele>203.66256713867</ele>
        <time>2014-06-11T14:18:50Z</time>
      </trkpt>
      <trkpt lat="43.42929" lon="6.12234">
        <ele>203.70719909668</ele>
        <time>2014-06-11T14:18:51Z</time>
      </trkpt>
      <trkpt lat="43.42928" lon="6.12234">
        <ele>203.75526428223</ele>
        <time>2014-06-11T14:18:56Z</time>
      </trkpt>
      <trkpt lat="43.42927" lon="6.12233">
        <ele>203.81706237793</ele>
        <time>2014-06-11T14:18:58Z</time>
      </trkpt>
      <trkpt lat="43.42927" lon="6.12233">
        <ele>203.81362915039</ele>
        <time>2014-06-11T14:19:04Z</time>
      </trkpt>
      <trkpt lat="43.42924" lon="6.12233">
        <ele>203.9990234375</ele>
        <time>2014-06-11T14:19:09Z</time>
      </trkpt>
      <trkpt lat="43.4292" lon="6.12231">
        <ele>204.21531677246</ele>
        <time>2014-06-11T14:19:20Z</time>
      </trkpt>
      <trkpt lat="43.42915" lon="6.1223">
        <ele>204.47943115234</ele>
        <time>2014-06-11T14:19:26Z</time>
      </trkpt>
      <trkpt lat="43.4291" lon="6.1223">
        <ele>204.51759338379</ele>
        <time>2014-06-11T14:19:33Z</time>
      </trkpt>
      <trkpt lat="43.42905" lon="6.12232">
        <ele>204.46942138672</ele>
        <time>2014-06-11T14:19:40Z</time>
      </trkpt>
      <trkpt lat="43.42901" lon="6.12232">
        <ele>204.51054382324</ele>
        <time>2014-06-11T14:19:45Z</time>
      </trkpt>
      <trkpt lat="43.42893" lon="6.12232">
        <ele>204.60827636719</ele>
        <time>2014-06-11T14:19:58Z</time>
      </trkpt>
      <trkpt lat="43.42889" lon="6.12232">
        <ele>204.65132141113</ele>
        <time>2014-06-11T14:20:04Z</time>
      </trkpt>
      <trkpt lat="43.42883" lon="6.12232">
        <ele>205.10464477539</ele>
        <time>2014-06-11T14:20:13Z</time>
      </trkpt>
      <trkpt lat="43.42879" lon="6.12234">
        <ele>205.32266235352</ele>
        <time>2014-06-11T14:20:19Z</time>
      </trkpt>
      <trkpt lat="43.42876" lon="6.12234">
        <ele>205.53552246094</ele>
        <time>2014-06-11T14:20:23Z</time>
      </trkpt>
      <trkpt lat="43.42872" lon="6.12236">
        <ele>205.71919250488</ele>
        <time>2014-06-11T14:20:27Z</time>
      </trkpt>
      <trkpt lat="43.42868" lon="6.12234">
        <ele>206.06251525879</ele>
        <time>2014-06-11T14:20:32Z</time>
      </trkpt>
      <trkpt lat="43.42868" lon="6.12234">
        <ele>206.11744689941</ele>
        <time>2014-06-11T14:20:33Z</time>
      </trkpt>
      <trkpt lat="43.42864" lon="6.12235">
        <ele>206.29769897461</ele>
        <time>2014-06-11T14:20:40Z</time>
      </trkpt>
      <trkpt lat="43.42864" lon="6.12235">
        <ele>206.32516479492</ele>
        <time>2014-06-11T14:20:42Z</time>
      </trkpt>
      <trkpt lat="43.4286" lon="6.12235">
        <ele>206.79313659668</ele>
        <time>2014-06-11T14:20:45Z</time>
      </trkpt>
      <trkpt lat="43.42859" lon="6.12235">
        <ele>207.02583312988</ele>
        <time>2014-06-11T14:20:46Z</time>
      </trkpt>
      <trkpt lat="43.42856" lon="6.12235">
        <ele>207.45266723633</ele>
        <time>2014-06-11T14:20:48Z</time>
      </trkpt>
      <trkpt lat="43.42855" lon="6.12235">
        <ele>207.58082580566</ele>
        <time>2014-06-11T14:20:49Z</time>
      </trkpt>
      <trkpt lat="43.42853" lon="6.12236">
        <ele>207.93264770508</ele>
        <time>2014-06-11T14:20:51Z</time>
      </trkpt>
      <trkpt lat="43.42846" lon="6.12236">
        <ele>209.27760314941</ele>
        <time>2014-06-11T14:20:57Z</time>
      </trkpt>
      <trkpt lat="43.42838" lon="6.12235">
        <ele>210.88386535644</ele>
        <time>2014-06-11T14:21:04Z</time>
      </trkpt>
      <trkpt lat="43.42834" lon="6.12236">
        <ele>211.26911926269</ele>
        <time>2014-06-11T14:21:07Z</time>
      </trkpt>
      <trkpt lat="43.42825" lon="6.12237">
        <ele>213.48663330078</ele>
        <time>2014-06-11T14:21:15Z</time>
      </trkpt>
      <trkpt lat="43.42816" lon="6.1224">
        <ele>215.46072387695</ele>
        <time>2014-06-11T14:21:23Z</time>
      </trkpt>
      <trkpt lat="43.42812" lon="6.1224">
        <ele>216.32418823242</ele>
        <time>2014-06-11T14:21:27Z</time>
      </trkpt>
      <trkpt lat="43.4281" lon="6.12242">
        <ele>216.85806274414</ele>
        <time>2014-06-11T14:21:29Z</time>
      </trkpt>
      <trkpt lat="43.42803" lon="6.12242">
        <ele>218.71392822266</ele>
        <time>2014-06-11T14:21:36Z</time>
      </trkpt>
      <trkpt lat="43.42791" lon="6.1224">
        <ele>222.69476318359</ele>
        <time>2014-06-11T14:21:46Z</time>
      </trkpt>
      <trkpt lat="43.4279" lon="6.1224">
        <ele>223.08615112305</ele>
        <time>2014-06-11T14:21:47Z</time>
      </trkpt>
      <trkpt lat="43.42789" lon="6.12239">
        <ele>223.38998413086</ele>
        <time>2014-06-11T14:21:48Z</time>
      </trkpt>
      <trkpt lat="43.42782" lon="6.12232">
        <ele>226.46444702148</ele>
        <time>2014-06-11T14:21:56Z</time>
      </trkpt>
      <trkpt lat="43.42778" lon="6.12229">
        <ele>228.19995117188</ele>
        <time>2014-06-11T14:22:01Z</time>
      </trkpt>
      <trkpt lat="43.42775" lon="6.12225">
        <ele>229.75514221191</ele>
        <time>2014-06-11T14:22:05Z</time>
      </trkpt>
      <trkpt lat="43.42774" lon="6.12223">
        <ele>230.03326416016</ele>
        <time>2014-06-11T14:22:06Z</time>
      </trkpt>
      <trkpt lat="43.42774" lon="6.12223">
        <ele>230.1940612793</ele>
        <time>2014-06-11T14:22:07Z</time>
      </trkpt>
      <trkpt lat="43.42774" lon="6.12223">
        <ele>230.1940612793</ele>
        <time>2014-06-11T14:22:08Z</time>
      </trkpt>
      <trkpt lat="43.42773" lon="6.12223">
        <ele>230.36061096191</ele>
        <time>2014-06-11T14:22:09Z</time>
      </trkpt>
      <trkpt lat="43.42773" lon="6.12222">
        <ele>230.38771057129</ele>
        <time>2014-06-11T14:22:14Z</time>
      </trkpt>
      <trkpt lat="43.42773" lon="6.12222">
        <ele>230.38771057129</ele>
        <time>2014-06-11T14:22:38Z</time>
      </trkpt>
      <trkpt lat="43.42773" lon="6.12222">
        <ele>230.38771057129</ele>
        <time>2014-06-11T14:22:51Z</time>
      </trkpt>
      <trkpt lat="43.42773" lon="6.12222">
        <ele>230.39854431152</ele>
        <time>2014-06-11T14:22:54Z</time>
      </trkpt>
      <trkpt lat="43.42773" lon="6.12222">
        <ele>230.5320892334</ele>
        <time>2014-06-11T14:23:00Z</time>
      </trkpt>
      <trkpt lat="43.42773" lon="6.12222">
        <ele>230.54206848144</ele>
        <time>2014-06-11T14:23:07Z</time>
      </trkpt>
      <trkpt lat="43.42773" lon="6.12222">
        <ele>230.54206848144</ele>
        <time>2014-06-11T14:23:13Z</time>
      </trkpt>
      <trkpt lat="43.42771" lon="6.12215">
        <ele>231.33940124512</ele>
        <time>2014-06-11T14:23:19Z</time>
      </trkpt>
      <trkpt lat="43.42771" lon="6.12212">
        <ele>231.53782653809</ele>
        <time>2014-06-11T14:23:25Z</time>
      </trkpt>
      <trkpt lat="43.42771" lon="6.12208">
        <ele>231.52760314941</ele>
        <time>2014-06-11T14:23:32Z</time>
      </trkpt>
      <trkpt lat="43.42771" lon="6.12205">
        <ele>231.62300109863</ele>
        <time>2014-06-11T14:23:39Z</time>
      </trkpt>
      <trkpt lat="43.4277" lon="6.12201">
        <ele>232.06326293945</ele>
        <time>2014-06-11T14:23:45Z</time>
      </trkpt>
      <trkpt lat="43.42768" lon="6.12197">
        <ele>232.83338928223</ele>
        <time>2014-06-11T14:23:50Z</time>
      </trkpt>
      <trkpt lat="43.42762" lon="6.12195">
        <ele>234.42764282227</ele>
        <time>2014-06-11T14:23:56Z</time>
      </trkpt>
      <trkpt lat="43.42759" lon="6.1219">
        <ele>235.48063659668</ele>
        <time>2014-06-11T14:24:03Z</time>
      </trkpt>
      <trkpt lat="43.42757" lon="6.12189">
        <ele>236.02673339844</ele>
        <time>2014-06-11T14:24:06Z</time>
      </trkpt>
      <trkpt lat="43.42757" lon="6.12187">
        <ele>236.14526367188</ele>
        <time>2014-06-11T14:24:12Z</time>
      </trkpt>
      <trkpt lat="43.42755" lon="6.12185">
        <ele>236.58744812012</ele>
        <time>2014-06-11T14:24:14Z</time>
      </trkpt>
      <trkpt lat="43.42752" lon="6.12182">
        <ele>237.33226013184</ele>
        <time>2014-06-11T14:24:17Z</time>
      </trkpt>
      <trkpt lat="43.42749" lon="6.12179">
        <ele>238.10546875</ele>
        <time>2014-06-11T14:24:20Z</time>
      </trkpt>
      <trkpt lat="43.42746" lon="6.12176">
        <ele>238.43505859375</ele>
        <time>2014-06-11T14:24:23Z</time>
      </trkpt>
      <trkpt lat="43.42744" lon="6.12171">
        <ele>238.68225097656</ele>
        <time>2014-06-11T14:24:27Z</time>
      </trkpt>
      <trkpt lat="43.42737" lon="6.12157">
        <ele>239.38262939453</ele>
        <time>2014-06-11T14:24:36Z</time>
      </trkpt>
      <trkpt lat="43.42735" lon="6.12153">
        <ele>239.62982177734</ele>
        <time>2014-06-11T14:24:39Z</time>
      </trkpt>
      <trkpt lat="43.42731" lon="6.12148">
        <ele>240.04180908203</ele>
        <time>2014-06-11T14:24:43Z</time>
      </trkpt>
      <trkpt lat="43.42729" lon="6.12145">
        <ele>240.28900146484</ele>
        <time>2014-06-11T14:24:46Z</time>
      </trkpt>
      <trkpt lat="43.42728" lon="6.12145">
        <ele>240.37139892578</ele>
        <time>2014-06-11T14:24:47Z</time>
      </trkpt>
      <trkpt lat="43.42728" lon="6.12144">
        <ele>240.41259765625</ele>
        <time>2014-06-11T14:24:48Z</time>
      </trkpt>
      <trkpt lat="43.42727" lon="6.12144">
        <ele>240.45379638672</ele>
        <time>2014-06-11T14:24:57Z</time>
      </trkpt>
      <trkpt lat="43.42727" lon="6.12142">
        <ele>240.49499511719</ele>
        <time>2014-06-11T14:25:02Z</time>
      </trkpt>
      <trkpt lat="43.42728" lon="6.12141">
        <ele>240.41259765625</ele>
        <time>2014-06-11T14:25:06Z</time>
      </trkpt>
      <trkpt lat="43.42729" lon="6.12139">
        <ele>240.28900146484</ele>
        <time>2014-06-11T14:25:07Z</time>
      </trkpt>
      <trkpt lat="43.4273" lon="6.12134">
        <ele>240.32395935059</ele>
        <time>2014-06-11T14:25:12Z</time>
      </trkpt>
      <trkpt lat="43.4273" lon="6.12131">
        <ele>240.42372131348</ele>
        <time>2014-06-11T14:25:14Z</time>
      </trkpt>
      <trkpt lat="43.42729" lon="6.12125">
        <ele>240.66484069824</ele>
        <time>2014-06-11T14:25:17Z</time>
      </trkpt>
      <trkpt lat="43.42727" lon="6.12122">
        <ele>241.04260253906</ele>
        <time>2014-06-11T14:25:22Z</time>
      </trkpt>
      <trkpt lat="43.42725" lon="6.12117">
        <ele>241.47016906738</ele>
        <time>2014-06-11T14:25:28Z</time>
      </trkpt>
      <trkpt lat="43.42725" lon="6.12116">
        <ele>241.48272705078</ele>
        <time>2014-06-11T14:25:30Z</time>
      </trkpt>
      <trkpt lat="43.42725" lon="6.12116">
        <ele>241.48272705078</ele>
        <time>2014-06-11T14:25:32Z</time>
      </trkpt>
      <trkpt lat="43.42724" lon="6.12116">
        <ele>241.53504943848</ele>
        <time>2014-06-11T14:25:33Z</time>
      </trkpt>
      <trkpt lat="43.42724" lon="6.12116">
        <ele>241.53504943848</ele>
        <time>2014-06-11T14:25:41Z</time>
      </trkpt>
      <trkpt lat="43.42724" lon="6.12116">
        <ele>241.53504943848</ele>
        <time>2014-06-11T14:25:51Z</time>
      </trkpt>
      <trkpt lat="43.42723" lon="6.12115">
        <ele>241.72361755371</ele>
        <time>2014-06-11T14:25:53Z</time>
      </trkpt>
      <trkpt lat="43.4272" lon="6.12112">
        <ele>242.50979614258</ele>
        <time>2014-06-11T14:26:00Z</time>
      </trkpt>
      <trkpt lat="43.42719" lon="6.12111">
        <ele>242.84233093262</ele>
        <time>2014-06-11T14:26:06Z</time>
      </trkpt>
      <trkpt lat="43.42717" lon="6.12108">
        <ele>243.34126281738</ele>
        <time>2014-06-11T14:26:12Z</time>
      </trkpt>
      <trkpt lat="43.42715" lon="6.12102">
        <ele>243.88670349121</ele>
        <time>2014-06-11T14:26:18Z</time>
      </trkpt>
      <trkpt lat="43.42711" lon="6.12097">
        <ele>244.96452331543</ele>
        <time>2014-06-11T14:26:24Z</time>
      </trkpt>
      <trkpt lat="43.4271" lon="6.12094">
        <ele>245.42108154297</ele>
        <time>2014-06-11T14:26:27Z</time>
      </trkpt>
      <trkpt lat="43.42709" lon="6.12091">
        <ele>245.57806396484</ele>
        <time>2014-06-11T14:26:31Z</time>
      </trkpt>
      <trkpt lat="43.42709" lon="6.1209">
        <ele>245.59158325195</ele>
        <time>2014-06-11T14:26:37Z</time>
      </trkpt>
      <trkpt lat="43.42711" lon="6.12088">
        <ele>245.2057800293</ele>
        <time>2014-06-11T14:26:39Z</time>
      </trkpt>
      <trkpt lat="43.42712" lon="6.12082">
        <ele>244.94372558594</ele>
        <time>2014-06-11T14:26:43Z</time>
      </trkpt>
      <trkpt lat="43.42712" lon="6.1208">
        <ele>244.94984436035</ele>
        <time>2014-06-11T14:26:49Z</time>
      </trkpt>
      <trkpt lat="43.42712" lon="6.12077">
        <ele>245.08241271973</ele>
        <time>2014-06-11T14:26:57Z</time>
      </trkpt>
      <trkpt lat="43.42711" lon="6.12068">
        <ele>245.39595031738</ele>
        <time>2014-06-11T14:27:02Z</time>
      </trkpt>
      <trkpt lat="43.4271" lon="6.12062">
        <ele>245.57870483398</ele>
        <time>2014-06-11T14:27:04Z</time>
      </trkpt>
      <trkpt lat="43.42709" lon="6.12057">
        <ele>246.22848510742</ele>
        <time>2014-06-11T14:27:07Z</time>
      </trkpt>
      <trkpt lat="43.42708" lon="6.12055">
        <ele>246.55035400391</ele>
        <time>2014-06-11T14:27:10Z</time>
      </trkpt>
      <trkpt lat="43.42708" lon="6.12055">
        <ele>246.55035400391</ele>
        <time>2014-06-11T14:27:23Z</time>
      </trkpt>
      <trkpt lat="43.42709" lon="6.12053">
        <ele>246.39929199219</ele>
        <time>2014-06-11T14:27:29Z</time>
      </trkpt>
      <trkpt lat="43.42709" lon="6.12052">
        <ele>246.39929199219</ele>
        <time>2014-06-11T14:27:30Z</time>
      </trkpt>
      <trkpt lat="43.4271" lon="6.12046">
        <ele>245.79504394531</ele>
        <time>2014-06-11T14:27:37Z</time>
      </trkpt>
      <trkpt lat="43.4271" lon="6.12045">
        <ele>245.79504394531</ele>
        <time>2014-06-11T14:27:41Z</time>
      </trkpt>
      <trkpt lat="43.4271" lon="6.12045">
        <ele>245.79504394531</ele>
        <time>2014-06-11T14:27:42Z</time>
      </trkpt>
      <trkpt lat="43.42711" lon="6.12043">
        <ele>245.49291992188</ele>
        <time>2014-06-11T14:27:48Z</time>
      </trkpt>
      <trkpt lat="43.42709" lon="6.12039">
        <ele>246.09716796875</ele>
        <time>2014-06-11T14:27:54Z</time>
      </trkpt>
      <trkpt lat="43.42707" lon="6.12034">
        <ele>247.15460205078</ele>
        <time>2014-06-11T14:28:05Z</time>
      </trkpt>
      <trkpt lat="43.42702" lon="6.12029">
        <ele>249.11840820312</ele>
        <time>2014-06-11T14:28:16Z</time>
      </trkpt>
      <trkpt lat="43.42703" lon="6.12021">
        <ele>248.94747924805</ele>
        <time>2014-06-11T14:28:24Z</time>
      </trkpt>
      <trkpt lat="43.42702" lon="6.12015">
        <ele>249.34622192383</ele>
        <time>2014-06-11T14:28:31Z</time>
      </trkpt>
      <trkpt lat="43.42701" lon="6.1201">
        <ele>250.06414794922</ele>
        <time>2014-06-11T14:28:35Z</time>
      </trkpt>
      <trkpt lat="43.42701" lon="6.1201">
        <ele>250.09216308594</ele>
        <time>2014-06-11T14:28:41Z</time>
      </trkpt>
      <trkpt lat="43.42702" lon="6.12005">
        <ele>250.10375976562</ele>
        <time>2014-06-11T14:28:47Z</time>
      </trkpt>
      <trkpt lat="43.42701" lon="6.12002">
        <ele>250.62632751465</ele>
        <time>2014-06-11T14:28:49Z</time>
      </trkpt>
      <trkpt lat="43.42702" lon="6.11998">
        <ele>250.2353515625</ele>
        <time>2014-06-11T14:28:52Z</time>
      </trkpt>
      <trkpt lat="43.42702" lon="6.11997">
        <ele>250.12423706055</ele>
        <time>2014-06-11T14:28:53Z</time>
      </trkpt>
      <trkpt lat="43.42702" lon="6.11992">
        <ele>250.36817932129</ele>
        <time>2014-06-11T14:28:56Z</time>
      </trkpt>
      <trkpt lat="43.42702" lon="6.1199">
        <ele>250.64566040039</ele>
        <time>2014-06-11T14:28:57Z</time>
      </trkpt>
      <trkpt lat="43.42702" lon="6.11988">
        <ele>250.99192810059</ele>
        <time>2014-06-11T14:28:59Z</time>
      </trkpt>
      <trkpt lat="43.42701" lon="6.11984">
        <ele>251.81419372559</ele>
        <time>2014-06-11T14:29:01Z</time>
      </trkpt>
      <trkpt lat="43.427" lon="6.1198">
        <ele>252.44664001465</ele>
        <time>2014-06-11T14:29:03Z</time>
      </trkpt>
      <trkpt lat="43.42701" lon="6.11976">
        <ele>252.05014038086</ele>
        <time>2014-06-11T14:29:06Z</time>
      </trkpt>
      <trkpt lat="43.42701" lon="6.11975">
        <ele>252.08430480957</ele>
        <time>2014-06-11T14:29:07Z</time>
      </trkpt>
      <trkpt lat="43.42701" lon="6.11973">
        <ele>251.98625183106</ele>
        <time>2014-06-11T14:29:14Z</time>
      </trkpt>
      <trkpt lat="43.42699" lon="6.11967">
        <ele>253.62353515625</ele>
        <time>2014-06-11T14:29:20Z</time>
      </trkpt>
      <trkpt lat="43.42698" lon="6.11965">
        <ele>254.57949829102</ele>
        <time>2014-06-11T14:29:23Z</time>
      </trkpt>
      <trkpt lat="43.42696" lon="6.11962">
        <ele>255.52891540527</ele>
        <time>2014-06-11T14:29:26Z</time>
      </trkpt>
      <trkpt lat="43.42696" lon="6.11962">
        <ele>255.75881958008</ele>
        <time>2014-06-11T14:29:27Z</time>
      </trkpt>
      <trkpt lat="43.42693" lon="6.11958">
        <ele>256.75338745117</ele>
        <time>2014-06-11T14:29:33Z</time>
      </trkpt>
      <trkpt lat="43.42686" lon="6.11953">
        <ele>257.72235107422</ele>
        <time>2014-06-11T14:29:44Z</time>
      </trkpt>
      <trkpt lat="43.42684" lon="6.11951">
        <ele>257.99505615234</ele>
        <time>2014-06-11T14:29:48Z</time>
      </trkpt>
      <trkpt lat="43.42678" lon="6.11939">
        <ele>258.81256103516</ele>
        <time>2014-06-11T14:30:02Z</time>
      </trkpt>
      <trkpt lat="43.42674" lon="6.11936">
        <ele>259.26583862305</ele>
        <time>2014-06-11T14:30:08Z</time>
      </trkpt>
      <trkpt lat="43.42673" lon="6.11927">
        <ele>259.47940063477</ele>
        <time>2014-06-11T14:30:16Z</time>
      </trkpt>
      <trkpt lat="43.42673" lon="6.11926">
        <ele>259.48876953125</ele>
        <time>2014-06-11T14:30:17Z</time>
      </trkpt>
      <trkpt lat="43.42673" lon="6.11917">
        <ele>259.53506469727</ele>
        <time>2014-06-11T14:30:27Z</time>
      </trkpt>
      <trkpt lat="43.42673" lon="6.11915">
        <ele>259.54281616211</ele>
        <time>2014-06-11T14:30:32Z</time>
      </trkpt>
      <trkpt lat="43.42674" lon="6.11905">
        <ele>259.68209838867</ele>
        <time>2014-06-11T14:30:37Z</time>
      </trkpt>
      <trkpt lat="43.42671" lon="6.11895">
        <ele>259.9333190918</ele>
        <time>2014-06-11T14:30:43Z</time>
      </trkpt>
      <trkpt lat="43.42673" lon="6.11888">
        <ele>260</ele>
        <time>2014-06-11T14:30:48Z</time>
      </trkpt>
      <trkpt lat="43.42678" lon="6.11872">
        <ele>260</ele>
        <time>2014-06-11T14:30:54Z</time>
      </trkpt>
      <trkpt lat="43.4268" lon="6.11863">
        <ele>260</ele>
        <time>2014-06-11T14:30:58Z</time>
      </trkpt>
      <trkpt lat="43.42681" lon="6.11858">
        <ele>260</ele>
        <time>2014-06-11T14:31:01Z</time>
      </trkpt>
      <trkpt lat="43.42682" lon="6.11855">
        <ele>260</ele>
        <time>2014-06-11T14:31:02Z</time>
      </trkpt>
      <trkpt lat="43.42687" lon="6.11845">
        <ele>260</ele>
        <time>2014-06-11T14:31:07Z</time>
      </trkpt>
      <trkpt lat="43.42693" lon="6.11837">
        <ele>260</ele>
        <time>2014-06-11T14:31:12Z</time>
      </trkpt>
      <trkpt lat="43.42693" lon="6.11832">
        <ele>260</ele>
        <time>2014-06-11T14:31:16Z</time>
      </trkpt>
      <trkpt lat="43.4269" lon="6.11826">
        <ele>260</ele>
        <time>2014-06-11T14:31:25Z</time>
      </trkpt>
      <trkpt lat="43.4269" lon="6.11826">
        <ele>260</ele>
        <time>2014-06-11T14:31:27Z</time>
      </trkpt>
      <trkpt lat="43.4269" lon="6.11826">
        <ele>260</ele>
        <time>2014-06-11T14:31:38Z</time>
      </trkpt>
      <trkpt lat="43.4269" lon="6.11826">
        <ele>260</ele>
        <time>2014-06-11T14:31:51Z</time>
      </trkpt>
      <trkpt lat="43.42691" lon="6.11826">
        <ele>260</ele>
        <time>2014-06-11T14:31:57Z</time>
      </trkpt>
      <trkpt lat="43.42694" lon="6.11823">
        <ele>260</ele>
        <time>2014-06-11T14:32:01Z</time>
      </trkpt>
      <trkpt lat="43.42694" lon="6.11823">
        <ele>260</ele>
        <time>2014-06-11T14:32:04Z</time>
      </trkpt>
      <trkpt lat="43.42698" lon="6.11818">
        <ele>259.68127441406</ele>
        <time>2014-06-11T14:32:11Z</time>
      </trkpt>
      <trkpt lat="43.42698" lon="6.11816">
        <ele>259.66107177734</ele>
        <time>2014-06-11T14:32:17Z</time>
      </trkpt>
      <trkpt lat="43.42698" lon="6.11814">
        <ele>259.67691040039</ele>
        <time>2014-06-11T14:32:22Z</time>
      </trkpt>
      <trkpt lat="43.42698" lon="6.11812">
        <ele>259.72772216797</ele>
        <time>2014-06-11T14:32:30Z</time>
      </trkpt>
      <trkpt lat="43.42698" lon="6.1181">
        <ele>259.70684814453</ele>
        <time>2014-06-11T14:32:34Z</time>
      </trkpt>
      <trkpt lat="43.42698" lon="6.11809">
        <ele>259.72396850586</ele>
        <time>2014-06-11T14:32:39Z</time>
      </trkpt>
      <trkpt lat="43.42698" lon="6.11809">
        <ele>259.72396850586</ele>
        <time>2014-06-11T14:32:42Z</time>
      </trkpt>
      <trkpt lat="43.42698" lon="6.11808">
        <ele>259.73080444336</ele>
        <time>2014-06-11T14:32:44Z</time>
      </trkpt>
      <trkpt lat="43.42699" lon="6.11807">
        <ele>259.68087768555</ele>
        <time>2014-06-11T14:32:46Z</time>
      </trkpt>
      <trkpt lat="43.42699" lon="6.11807">
        <ele>259.68087768555</ele>
        <time>2014-06-11T14:32:55Z</time>
      </trkpt>
      <trkpt lat="43.427" lon="6.11806">
        <ele>259.61303710938</ele>
        <time>2014-06-11T14:33:08Z</time>
      </trkpt>
      <trkpt lat="43.427" lon="6.11805">
        <ele>259.62637329102</ele>
        <time>2014-06-11T14:33:17Z</time>
      </trkpt>
      <trkpt lat="43.427" lon="6.11805">
        <ele>259.60278320312</ele>
        <time>2014-06-11T14:33:33Z</time>
      </trkpt>
      <trkpt lat="43.427" lon="6.11805">
        <ele>259.60278320312</ele>
        <time>2014-06-11T14:33:39Z</time>
      </trkpt>
      <trkpt lat="43.42701" lon="6.11805">
        <ele>259.58258056641</ele>
        <time>2014-06-11T14:33:44Z</time>
      </trkpt>
      <trkpt lat="43.42701" lon="6.11805">
        <ele>259.58258056641</ele>
        <time>2014-06-11T14:33:50Z</time>
      </trkpt>
      <trkpt lat="43.42702" lon="6.11804">
        <ele>259.55581665039</ele>
        <time>2014-06-11T14:33:57Z</time>
      </trkpt>
      <trkpt lat="43.42702" lon="6.11804">
        <ele>259.55581665039</ele>
        <time>2014-06-11T14:34:05Z</time>
      </trkpt>
      <trkpt lat="43.42704" lon="6.11802">
        <ele>259.63903808594</ele>
        <time>2014-06-11T14:34:11Z</time>
      </trkpt>
      <trkpt lat="43.42704" lon="6.11802">
        <ele>259.63903808594</ele>
        <time>2014-06-11T14:34:18Z</time>
      </trkpt>
      <trkpt lat="43.42706" lon="6.11799">
        <ele>259.71487426758</ele>
        <time>2014-06-11T14:34:30Z</time>
      </trkpt>
      <trkpt lat="43.42706" lon="6.11799">
        <ele>259.71487426758</ele>
        <time>2014-06-11T14:34:39Z</time>
      </trkpt>
      <trkpt lat="43.42706" lon="6.11798">
        <ele>259.79296875</ele>
        <time>2014-06-11T14:34:44Z</time>
      </trkpt>
      <trkpt lat="43.42706" lon="6.11798">
        <ele>259.84683227539</ele>
        <time>2014-06-11T14:34:45Z</time>
      </trkpt>
      <trkpt lat="43.42706" lon="6.11798">
        <ele>259.84683227539</ele>
        <time>2014-06-11T14:34:46Z</time>
      </trkpt>
      <trkpt lat="43.42705" lon="6.11797">
        <ele>259.96252441406</ele>
        <time>2014-06-11T14:34:47Z</time>
      </trkpt>
      <trkpt lat="43.42704" lon="6.11794">
        <ele>260.30871582031</ele>
        <time>2014-06-11T14:34:51Z</time>
      </trkpt>
      <trkpt lat="43.42707" lon="6.11784">
        <ele>261.03961181641</ele>
        <time>2014-06-11T14:34:58Z</time>
      </trkpt>
      <trkpt lat="43.42712" lon="6.11779">
        <ele>261.27642822266</ele>
        <time>2014-06-11T14:35:05Z</time>
      </trkpt>
      <trkpt lat="43.42713" lon="6.11779">
        <ele>261.25216674805</ele>
        <time>2014-06-11T14:35:10Z</time>
      </trkpt>
      <trkpt lat="43.42714" lon="6.11778">
        <ele>261.2841796875</ele>
        <time>2014-06-11T14:35:16Z</time>
      </trkpt>
      <trkpt lat="43.42714" lon="6.11778">
        <ele>261.2841796875</ele>
        <time>2014-06-11T14:35:42Z</time>
      </trkpt>
      <trkpt lat="43.42714" lon="6.11778">
        <ele>261.2887878418</ele>
        <time>2014-06-11T14:36:11Z</time>
      </trkpt>
      <trkpt lat="43.42714" lon="6.11778">
        <ele>261.26571655273</ele>
        <time>2014-06-11T14:36:51Z</time>
      </trkpt>
      <trkpt lat="43.42714" lon="6.11776">
        <ele>261.38595581055</ele>
        <time>2014-06-11T14:37:01Z</time>
      </trkpt>
      <trkpt lat="43.42723" lon="6.1176">
        <ele>261.53900146484</ele>
        <time>2014-06-11T14:37:09Z</time>
      </trkpt>
      <trkpt lat="43.42725" lon="6.11756">
        <ele>261.50042724609</ele>
        <time>2014-06-11T14:37:11Z</time>
      </trkpt>
      <trkpt lat="43.42725" lon="6.11755">
        <ele>261.59786987305</ele>
        <time>2014-06-11T14:37:12Z</time>
      </trkpt>
      <trkpt lat="43.42721" lon="6.11751">
        <ele>262.00567626953</ele>
        <time>2014-06-11T14:37:15Z</time>
      </trkpt>
      <trkpt lat="43.42718" lon="6.11748">
        <ele>262.23397827148</ele>
        <time>2014-06-11T14:37:18Z</time>
      </trkpt>
      <trkpt lat="43.42718" lon="6.11746">
        <ele>262.31463623047</ele>
        <time>2014-06-11T14:37:20Z</time>
      </trkpt>
      <trkpt lat="43.42718" lon="6.11745">
        <ele>262.33526611328</ele>
        <time>2014-06-11T14:37:28Z</time>
      </trkpt>
      <trkpt lat="43.42719" lon="6.11743">
        <ele>262.39361572266</ele>
        <time>2014-06-11T14:37:35Z</time>
      </trkpt>
      <trkpt lat="43.4272" lon="6.11742">
        <ele>262.35241699219</ele>
        <time>2014-06-11T14:37:48Z</time>
      </trkpt>
      <trkpt lat="43.42722" lon="6.11741">
        <ele>262.30081176758</ele>
        <time>2014-06-11T14:37:55Z</time>
      </trkpt>
      <trkpt lat="43.42724" lon="6.11742">
        <ele>262.15661621094</ele>
        <time>2014-06-11T14:38:01Z</time>
      </trkpt>
      <trkpt lat="43.42727" lon="6.11741">
        <ele>262.00384521484</ele>
        <time>2014-06-11T14:38:07Z</time>
      </trkpt>
      <trkpt lat="43.4273" lon="6.11744">
        <ele>261.69140625</ele>
        <time>2014-06-11T14:38:11Z</time>
      </trkpt>
      <trkpt lat="43.42732" lon="6.11742">
        <ele>261.56781005859</ele>
        <time>2014-06-11T14:38:14Z</time>
      </trkpt>
      <trkpt lat="43.42734" lon="6.11738">
        <ele>261.59698486328</ele>
        <time>2014-06-11T14:38:18Z</time>
      </trkpt>
      <trkpt lat="43.42735" lon="6.11735">
        <ele>261.59527587891</ele>
        <time>2014-06-11T14:38:22Z</time>
      </trkpt>
      <trkpt lat="43.42738" lon="6.11731">
        <ele>261.54379272461</ele>
        <time>2014-06-11T14:38:30Z</time>
      </trkpt>
      <trkpt lat="43.42738" lon="6.11731">
        <ele>261.54379272461</ele>
        <time>2014-06-11T14:38:33Z</time>
      </trkpt>
      <trkpt lat="43.42738" lon="6.11731">
        <ele>261.58670043945</ele>
        <time>2014-06-11T14:38:36Z</time>
      </trkpt>
      <trkpt lat="43.42738" lon="6.11731">
        <ele>261.58670043945</ele>
        <time>2014-06-11T14:38:44Z</time>
      </trkpt>
      <trkpt lat="43.42742" lon="6.11721">
        <ele>261.70379638672</ele>
        <time>2014-06-11T14:38:51Z</time>
      </trkpt>
      <trkpt lat="43.42745" lon="6.11714">
        <ele>262.20718383789</ele>
        <time>2014-06-11T14:38:57Z</time>
      </trkpt>
      <trkpt lat="43.42746" lon="6.11712">
        <ele>262.38961791992</ele>
        <time>2014-06-11T14:39:03Z</time>
      </trkpt>
      <trkpt lat="43.42746" lon="6.11712">
        <ele>262.38961791992</ele>
        <time>2014-06-11T14:39:26Z</time>
      </trkpt>
      <trkpt lat="43.42746" lon="6.11712">
        <ele>262.38473510742</ele>
        <time>2014-06-11T14:39:49Z</time>
      </trkpt>
      <trkpt lat="43.42746" lon="6.11712">
        <ele>262.38473510742</ele>
        <time>2014-06-11T14:39:54Z</time>
      </trkpt>
      <trkpt lat="43.42746" lon="6.1171">
        <ele>262.49279785156</ele>
        <time>2014-06-11T14:39:58Z</time>
      </trkpt>
      <trkpt lat="43.42746" lon="6.1171">
        <ele>262.51742553711</ele>
        <time>2014-06-11T14:40:06Z</time>
      </trkpt>
      <trkpt lat="43.42742" lon="6.11706">
        <ele>263.18731689453</ele>
        <time>2014-06-11T14:40:13Z</time>
      </trkpt>
      <trkpt lat="43.42739" lon="6.11704">
        <ele>263.53439331055</ele>
        <time>2014-06-11T14:40:18Z</time>
      </trkpt>
      <trkpt lat="43.42738" lon="6.11702">
        <ele>263.72528076172</ele>
        <time>2014-06-11T14:40:20Z</time>
      </trkpt>
      <trkpt lat="43.42738" lon="6.11701">
        <ele>263.86990356445</ele>
        <time>2014-06-11T14:40:26Z</time>
      </trkpt>
      <trkpt lat="43.42735" lon="6.11697">
        <ele>264.31442260742</ele>
        <time>2014-06-11T14:40:31Z</time>
      </trkpt>
      <trkpt lat="43.42735" lon="6.11696">
        <ele>264.41790771484</ele>
        <time>2014-06-11T14:40:33Z</time>
      </trkpt>
      <trkpt lat="43.42732" lon="6.11695">
        <ele>264.60000610352</ele>
        <time>2014-06-11T14:40:37Z</time>
      </trkpt>
      <trkpt lat="43.42729" lon="6.11692">
        <ele>264.91500854492</ele>
        <time>2014-06-11T14:40:43Z</time>
      </trkpt>
      <trkpt lat="43.42728" lon="6.11691">
        <ele>265.05233764648</ele>
        <time>2014-06-11T14:40:45Z</time>
      </trkpt>
      <trkpt lat="43.42725" lon="6.11685">
        <ele>265.57418823242</ele>
        <time>2014-06-11T14:40:53Z</time>
      </trkpt>
      <trkpt lat="43.42722" lon="6.11682">
        <ele>265.86215209961</ele>
        <time>2014-06-11T14:40:58Z</time>
      </trkpt>
      <trkpt lat="43.4272" lon="6.11681">
        <ele>265.89315795898</ele>
        <time>2014-06-11T14:41:00Z</time>
      </trkpt>
      <trkpt lat="43.4272" lon="6.1168">
        <ele>265.95593261719</ele>
        <time>2014-06-11T14:41:03Z</time>
      </trkpt>
      <trkpt lat="43.42717" lon="6.11677">
        <ele>266.05163574219</ele>
        <time>2014-06-11T14:41:08Z</time>
      </trkpt>
      <trkpt lat="43.42715" lon="6.11673">
        <ele>266.13427734375</ele>
        <time>2014-06-11T14:41:15Z</time>
      </trkpt>
      <trkpt lat="43.42715" lon="6.1167">
        <ele>266.30862426758</ele>
        <time>2014-06-11T14:41:21Z</time>
      </trkpt>
      <trkpt lat="43.42716" lon="6.11665">
        <ele>266.64099121094</ele>
        <time>2014-06-11T14:41:26Z</time>
      </trkpt>
      <trkpt lat="43.42718" lon="6.11658">
        <ele>267.01864624023</ele>
        <time>2014-06-11T14:41:35Z</time>
      </trkpt>
      <trkpt lat="43.42718" lon="6.11658">
        <ele>267.01864624023</ele>
        <time>2014-06-11T14:41:43Z</time>
      </trkpt>
      <trkpt lat="43.4272" lon="6.11652">
        <ele>267.35681152344</ele>
        <time>2014-06-11T14:41:48Z</time>
      </trkpt>
      <trkpt lat="43.42726" lon="6.11641">
        <ele>267.77020263672</ele>
        <time>2014-06-11T14:41:54Z</time>
      </trkpt>
      <trkpt lat="43.42728" lon="6.11641">
        <ele>267.69808959961</ele>
        <time>2014-06-11T14:41:55Z</time>
      </trkpt>
      <trkpt lat="43.42735" lon="6.11639">
        <ele>267.54702758789</ele>
        <time>2014-06-11T14:41:59Z</time>
      </trkpt>
      <trkpt lat="43.42751" lon="6.11627">
        <ele>267.81680297852</ele>
        <time>2014-06-11T14:42:11Z</time>
      </trkpt>
      <trkpt lat="43.42752" lon="6.11625">
        <ele>267.78588867188</ele>
        <time>2014-06-11T14:42:12Z</time>
      </trkpt>
      <trkpt lat="43.42755" lon="6.11618">
        <ele>267.98504638672</ele>
        <time>2014-06-11T14:42:16Z</time>
      </trkpt>
      <trkpt lat="43.42757" lon="6.11612">
        <ele>268.11547851562</ele>
        <time>2014-06-11T14:42:20Z</time>
      </trkpt>
      <trkpt lat="43.42757" lon="6.11606">
        <ele>268.65689086914</ele>
        <time>2014-06-11T14:42:23Z</time>
      </trkpt>
      <trkpt lat="43.42756" lon="6.1159">
        <ele>270.02954101562</ele>
        <time>2014-06-11T14:42:30Z</time>
      </trkpt>
      <trkpt lat="43.42756" lon="6.11588">
        <ele>270.15151977539</ele>
        <time>2014-06-11T14:42:31Z</time>
      </trkpt>
      <trkpt lat="43.42756" lon="6.11576">
        <ele>271.16339111328</ele>
        <time>2014-06-11T14:42:35Z</time>
      </trkpt>
      <trkpt lat="43.42752" lon="6.11546">
        <ele>273.56665039062</ele>
        <time>2014-06-11T14:42:41Z</time>
      </trkpt>
      <trkpt lat="43.42749" lon="6.1152">
        <ele>275.56140136719</ele>
        <time>2014-06-11T14:42:47Z</time>
      </trkpt>
      <trkpt lat="43.42748" lon="6.11518">
        <ele>275.76657104492</ele>
        <time>2014-06-11T14:42:48Z</time>
      </trkpt>
      <trkpt lat="43.42743" lon="6.11508">
        <ele>276.47418212891</ele>
        <time>2014-06-11T14:42:53Z</time>
      </trkpt>
      <trkpt lat="43.42743" lon="6.11507">
        <ele>276.58532714844</ele>
        <time>2014-06-11T14:42:54Z</time>
      </trkpt>
      <trkpt lat="43.42741" lon="6.115">
        <ele>276.98977661133</ele>
        <time>2014-06-11T14:42:57Z</time>
      </trkpt>
      <trkpt lat="43.42742" lon="6.11494">
        <ele>277.59170532227</ele>
        <time>2014-06-11T14:43:00Z</time>
      </trkpt>
      <trkpt lat="43.42743" lon="6.11485">
        <ele>278.51962280273</ele>
        <time>2014-06-11T14:43:05Z</time>
      </trkpt>
      <trkpt lat="43.42745" lon="6.11479">
        <ele>279.08944702148</ele>
        <time>2014-06-11T14:43:08Z</time>
      </trkpt>
      <trkpt lat="43.42749" lon="6.11464">
        <ele>279.96496582031</ele>
        <time>2014-06-11T14:43:17Z</time>
      </trkpt>
      <trkpt lat="43.4275" lon="6.11459">
        <ele>279.99594116211</ele>
        <time>2014-06-11T14:43:20Z</time>
      </trkpt>
      <trkpt lat="43.42754" lon="6.11451">
        <ele>279.94320678711</ele>
        <time>2014-06-11T14:43:26Z</time>
      </trkpt>
      <trkpt lat="43.42754" lon="6.11442">
        <ele>280</ele>
        <time>2014-06-11T14:43:31Z</time>
      </trkpt>
      <trkpt lat="43.42759" lon="6.11429">
        <ele>280</ele>
        <time>2014-06-11T14:43:38Z</time>
      </trkpt>
      <trkpt lat="43.42761" lon="6.11426">
        <ele>280</ele>
        <time>2014-06-11T14:43:40Z</time>
      </trkpt>
      <trkpt lat="43.42775" lon="6.11398">
        <ele>280</ele>
        <time>2014-06-11T14:43:58Z</time>
      </trkpt>
      <trkpt lat="43.42779" lon="6.11392">
        <ele>280</ele>
        <time>2014-06-11T14:44:03Z</time>
      </trkpt>
      <trkpt lat="43.4278" lon="6.1139">
        <ele>280</ele>
        <time>2014-06-11T14:44:04Z</time>
      </trkpt>
      <trkpt lat="43.42781" lon="6.11389">
        <ele>280</ele>
        <time>2014-06-11T14:44:05Z</time>
      </trkpt>
      <trkpt lat="43.42783" lon="6.11387">
        <ele>280</ele>
        <time>2014-06-11T14:44:07Z</time>
      </trkpt>
      <trkpt lat="43.42792" lon="6.11381">
        <ele>280</ele>
        <time>2014-06-11T14:44:13Z</time>
      </trkpt>
      <trkpt lat="43.42806" lon="6.1137">
        <ele>280</ele>
        <time>2014-06-11T14:44:23Z</time>
      </trkpt>
      <trkpt lat="43.42813" lon="6.11363">
        <ele>280</ele>
        <time>2014-06-11T14:44:28Z</time>
      </trkpt>
      <trkpt lat="43.42822" lon="6.11347">
        <ele>280</ele>
        <time>2014-06-11T14:44:35Z</time>
      </trkpt>
      <trkpt lat="43.42826" lon="6.11335">
        <ele>280</ele>
        <time>2014-06-11T14:44:41Z</time>
      </trkpt>
      <trkpt lat="43.42836" lon="6.11314">
        <ele>280.47210693359</ele>
        <time>2014-06-11T14:44:51Z</time>
      </trkpt>
      <trkpt lat="43.42842" lon="6.11305">
        <ele>280.68432617188</ele>
        <time>2014-06-11T14:44:55Z</time>
      </trkpt>
      <trkpt lat="43.42846" lon="6.11296">
        <ele>280.54699707031</ele>
        <time>2014-06-11T14:44:59Z</time>
      </trkpt>
      <trkpt lat="43.42852" lon="6.11277">
        <ele>280.36529541016</ele>
        <time>2014-06-11T14:45:07Z</time>
      </trkpt>
      <trkpt lat="43.42858" lon="6.11268">
        <ele>280.48199462891</ele>
        <time>2014-06-11T14:45:12Z</time>
      </trkpt>
      <trkpt lat="43.42863" lon="6.11258">
        <ele>280.50955200195</ele>
        <time>2014-06-11T14:45:15Z</time>
      </trkpt>
      <trkpt lat="43.42876" lon="6.1124">
        <ele>280.31127929688</ele>
        <time>2014-06-11T14:45:20Z</time>
      </trkpt>
      <trkpt lat="43.42891" lon="6.11219">
        <ele>281.11340332031</ele>
        <time>2014-06-11T14:45:26Z</time>
      </trkpt>
      <trkpt lat="43.42896" lon="6.11211">
        <ele>281.40008544922</ele>
        <time>2014-06-11T14:45:28Z</time>
      </trkpt>
      <trkpt lat="43.42898" lon="6.11202">
        <ele>281.73825073242</ele>
        <time>2014-06-11T14:45:30Z</time>
      </trkpt>
      <trkpt lat="43.42895" lon="6.11195">
        <ele>281.96655273438</ele>
        <time>2014-06-11T14:45:33Z</time>
      </trkpt>
      <trkpt lat="43.42891" lon="6.11187">
        <ele>282.01873779297</ele>
        <time>2014-06-11T14:45:37Z</time>
      </trkpt>
      <trkpt lat="43.42883" lon="6.11174">
        <ele>282</ele>
        <time>2014-06-11T14:45:43Z</time>
      </trkpt>
      <trkpt lat="43.42882" lon="6.11172">
        <ele>282</ele>
        <time>2014-06-11T14:45:44Z</time>
      </trkpt>
      <trkpt lat="43.42875" lon="6.11163">
        <ele>282.1149597168</ele>
        <time>2014-06-11T14:45:49Z</time>
      </trkpt>
      <trkpt lat="43.42868" lon="6.11139">
        <ele>282.97842407227</ele>
        <time>2014-06-11T14:45:58Z</time>
      </trkpt>
      <trkpt lat="43.42867" lon="6.11138">
        <ele>283.04364013672</ele>
        <time>2014-06-11T14:45:59Z</time>
      </trkpt>
      <trkpt lat="43.42862" lon="6.11134">
        <ele>283.18096923828</ele>
        <time>2014-06-11T14:46:02Z</time>
      </trkpt>
      <trkpt lat="43.42858" lon="6.1113">
        <ele>283.39929199219</ele>
        <time>2014-06-11T14:46:04Z</time>
      </trkpt>
      <trkpt lat="43.42855" lon="6.11125">
        <ele>283.59112548828</ele>
        <time>2014-06-11T14:46:06Z</time>
      </trkpt>
      <trkpt lat="43.42849" lon="6.11109">
        <ele>283.93051147461</ele>
        <time>2014-06-11T14:46:13Z</time>
      </trkpt>
      <trkpt lat="43.42842" lon="6.11101">
        <ele>283.51861572266</ele>
        <time>2014-06-11T14:46:19Z</time>
      </trkpt>
      <trkpt lat="43.42835" lon="6.11099">
        <ele>283.18804931641</ele>
        <time>2014-06-11T14:46:24Z</time>
      </trkpt>
      <trkpt lat="43.42834" lon="6.111">
        <ele>283.21127319336</ele>
        <time>2014-06-11T14:46:26Z</time>
      </trkpt>
      <trkpt lat="43.42834" lon="6.111">
        <ele>283.19219970703</ele>
        <time>2014-06-11T14:46:32Z</time>
      </trkpt>
      <trkpt lat="43.42834" lon="6.111">
        <ele>283.19219970703</ele>
        <time>2014-06-11T14:46:50Z</time>
      </trkpt>
      <trkpt lat="43.42834" lon="6.111">
        <ele>283.19219970703</ele>
        <time>2014-06-11T14:46:56Z</time>
      </trkpt>
      <trkpt lat="43.42834" lon="6.11099">
        <ele>283.14877319336</ele>
        <time>2014-06-11T14:47:09Z</time>
      </trkpt>
      <trkpt lat="43.42825" lon="6.11095">
        <ele>282.48306274414</ele>
        <time>2014-06-11T14:47:14Z</time>
      </trkpt>
      <trkpt lat="43.42808" lon="6.11092">
        <ele>281.29110717773</ele>
        <time>2014-06-11T14:47:20Z</time>
      </trkpt>
      <trkpt lat="43.42778" lon="6.11097">
        <ele>281.48718261719</ele>
        <time>2014-06-11T14:47:29Z</time>
      </trkpt>
      <trkpt lat="43.42756" lon="6.11102">
        <ele>280.94274902344</ele>
        <time>2014-06-11T14:47:35Z</time>
      </trkpt>
      <trkpt lat="43.42733" lon="6.11106">
        <ele>280.32461547852</ele>
        <time>2014-06-11T14:47:41Z</time>
      </trkpt>
      <trkpt lat="43.42726" lon="6.11107">
        <ele>280.10925292969</ele>
        <time>2014-06-11T14:47:43Z</time>
      </trkpt>
      <trkpt lat="43.42704" lon="6.11109">
        <ele>279.34436035156</ele>
        <time>2014-06-11T14:47:48Z</time>
      </trkpt>
      <trkpt lat="43.42685" lon="6.11112">
        <ele>278.70770263672</ele>
        <time>2014-06-11T14:47:52Z</time>
      </trkpt>
      <trkpt lat="43.42675" lon="6.11113">
        <ele>278.37637329102</ele>
        <time>2014-06-11T14:47:54Z</time>
      </trkpt>
      <trkpt lat="43.42661" lon="6.11118">
        <ele>277.81872558594</ele>
        <time>2014-06-11T14:47:57Z</time>
      </trkpt>
      <trkpt lat="43.42651" lon="6.11123">
        <ele>277.31060791016</ele>
        <time>2014-06-11T14:47:59Z</time>
      </trkpt>
      <trkpt lat="43.42639" lon="6.11128">
        <ele>276.63427734375</ele>
        <time>2014-06-11T14:48:01Z</time>
      </trkpt>
      <trkpt lat="43.42627" lon="6.11129">
        <ele>275.59176635742</ele>
        <time>2014-06-11T14:48:03Z</time>
      </trkpt>
      <trkpt lat="43.42608" lon="6.1113">
        <ele>274.15817260742</ele>
        <time>2014-06-11T14:48:06Z</time>
      </trkpt>
      <trkpt lat="43.42596" lon="6.11132">
        <ele>273.48181152344</ele>
        <time>2014-06-11T14:48:08Z</time>
      </trkpt>
      <trkpt lat="43.42585" lon="6.11134">
        <ele>272.74368286133</ele>
        <time>2014-06-11T14:48:10Z</time>
      </trkpt>
      <trkpt lat="43.4258" lon="6.11134">
        <ele>272.39691162109</ele>
        <time>2014-06-11T14:48:11Z</time>
      </trkpt>
      <trkpt lat="43.4256" lon="6.11139">
        <ele>271.30859375</ele>
        <time>2014-06-11T14:48:15Z</time>
      </trkpt>
      <trkpt lat="43.42527" lon="6.11145">
        <ele>268.20703125</ele>
        <time>2014-06-11T14:48:22Z</time>
      </trkpt>
      <trkpt lat="43.42514" lon="6.11147">
        <ele>267.64318847656</ele>
        <time>2014-06-11T14:48:25Z</time>
      </trkpt>
      <trkpt lat="43.425" lon="6.11153">
        <ele>266.96704101562</ele>
        <time>2014-06-11T14:48:28Z</time>
      </trkpt>
      <trkpt lat="43.42484" lon="6.11162">
        <ele>265.8134765625</ele>
        <time>2014-06-11T14:48:33Z</time>
      </trkpt>
      <trkpt lat="43.42481" lon="6.11165">
        <ele>265.64868164062</ele>
        <time>2014-06-11T14:48:34Z</time>
      </trkpt>
      <trkpt lat="43.42479" lon="6.11169">
        <ele>265.51135253906</ele>
        <time>2014-06-11T14:48:35Z</time>
      </trkpt>
      <trkpt lat="43.42477" lon="6.11173">
        <ele>265.3740234375</ele>
        <time>2014-06-11T14:48:36Z</time>
      </trkpt>
      <trkpt lat="43.42476" lon="6.11177">
        <ele>265.29162597656</ele>
        <time>2014-06-11T14:48:37Z</time>
      </trkpt>
      <trkpt lat="43.42476" lon="6.11181">
        <ele>265.26416015625</ele>
        <time>2014-06-11T14:48:38Z</time>
      </trkpt>
      <trkpt lat="43.42476" lon="6.1119">
        <ele>265.29162597656</ele>
        <time>2014-06-11T14:48:40Z</time>
      </trkpt>
      <trkpt lat="43.42477" lon="6.11195">
        <ele>265.34655761719</ele>
        <time>2014-06-11T14:48:41Z</time>
      </trkpt>
      <trkpt lat="43.42479" lon="6.11201">
        <ele>265.45642089844</ele>
        <time>2014-06-11T14:48:42Z</time>
      </trkpt>
      <trkpt lat="43.42484" lon="6.11216">
        <ele>265.8134765625</ele>
        <time>2014-06-11T14:48:44Z</time>
      </trkpt>
      <trkpt lat="43.42498" lon="6.11246">
        <ele>267.64453125</ele>
        <time>2014-06-11T14:48:48Z</time>
      </trkpt>
      <trkpt lat="43.425" lon="6.11253">
        <ele>267.87295532227</ele>
        <time>2014-06-11T14:48:49Z</time>
      </trkpt>
      <trkpt lat="43.42501" lon="6.11262">
        <ele>267.65734863281</ele>
        <time>2014-06-11T14:48:50Z</time>
      </trkpt>
      <trkpt lat="43.42501" lon="6.1127">
        <ele>267.38442993164</ele>
        <time>2014-06-11T14:48:51Z</time>
      </trkpt>
      <trkpt lat="43.42501" lon="6.11288">
        <ele>266.70727539062</ele>
        <time>2014-06-11T14:48:53Z</time>
      </trkpt>
      <trkpt lat="43.42501" lon="6.11325">
        <ele>264.62976074219</ele>
        <time>2014-06-11T14:48:57Z</time>
      </trkpt>
      <trkpt lat="43.42501" lon="6.11334">
        <ele>264.01480102539</ele>
        <time>2014-06-11T14:48:58Z</time>
      </trkpt>
      <trkpt lat="43.42501" lon="6.11343">
        <ele>263.68179321289</ele>
        <time>2014-06-11T14:48:59Z</time>
      </trkpt>
      <trkpt lat="43.42502" lon="6.11353">
        <ele>263.36077880859</ele>
        <time>2014-06-11T14:49:00Z</time>
      </trkpt>
      <trkpt lat="43.42503" lon="6.11363">
        <ele>262.93713378906</ele>
        <time>2014-06-11T14:49:01Z</time>
      </trkpt>
      <trkpt lat="43.42505" lon="6.11373">
        <ele>262.01110839844</ele>
        <time>2014-06-11T14:49:02Z</time>
      </trkpt>
      <trkpt lat="43.42507" lon="6.11382">
        <ele>261.14785766602</ele>
        <time>2014-06-11T14:49:03Z</time>
      </trkpt>
      <trkpt lat="43.42509" lon="6.11392">
        <ele>260.15078735352</ele>
        <time>2014-06-11T14:49:04Z</time>
      </trkpt>
      <trkpt lat="43.42511" lon="6.11402">
        <ele>258.57797241211</ele>
        <time>2014-06-11T14:49:05Z</time>
      </trkpt>
      <trkpt lat="43.42514" lon="6.1142">
        <ele>256.04818725586</ele>
        <time>2014-06-11T14:49:07Z</time>
      </trkpt>
      <trkpt lat="43.42516" lon="6.11428">
        <ele>255.03881835938</ele>
        <time>2014-06-11T14:49:08Z</time>
      </trkpt>
      <trkpt lat="43.42517" lon="6.11436">
        <ele>254.16677856445</ele>
        <time>2014-06-11T14:49:09Z</time>
      </trkpt>
      <trkpt lat="43.42519" lon="6.11442">
        <ele>253.3977355957</ele>
        <time>2014-06-11T14:49:10Z</time>
      </trkpt>
      <trkpt lat="43.42519" lon="6.11447">
        <ele>252.52294921875</ele>
        <time>2014-06-11T14:49:11Z</time>
      </trkpt>
      <trkpt lat="43.42519" lon="6.11451">
        <ele>251.77792358398</ele>
        <time>2014-06-11T14:49:12Z</time>
      </trkpt>
      <trkpt lat="43.42517" lon="6.11454">
        <ele>251.20973205566</ele>
        <time>2014-06-11T14:49:13Z</time>
      </trkpt>
      <trkpt lat="43.42515" lon="6.11454">
        <ele>250.85095214844</ele>
        <time>2014-06-11T14:49:14Z</time>
      </trkpt>
      <trkpt lat="43.42513" lon="6.11453">
        <ele>250.79260253906</ele>
        <time>2014-06-11T14:49:15Z</time>
      </trkpt>
      <trkpt lat="43.4251" lon="6.11451">
        <ele>250.82177734375</ele>
        <time>2014-06-11T14:49:16Z</time>
      </trkpt>
      <trkpt lat="43.42507" lon="6.1145">
        <ele>250.80117797852</ele>
        <time>2014-06-11T14:49:17Z</time>
      </trkpt>
      <trkpt lat="43.42504" lon="6.11448">
        <ele>250.78915405273</ele>
        <time>2014-06-11T14:49:18Z</time>
      </trkpt>
      <trkpt lat="43.425" lon="6.11446">
        <ele>250.83894348144</ele>
        <time>2014-06-11T14:49:19Z</time>
      </trkpt>
      <trkpt lat="43.42496" lon="6.11443">
        <ele>250.86299133301</ele>
        <time>2014-06-11T14:49:20Z</time>
      </trkpt>
      <trkpt lat="43.42493" lon="6.1144">
        <ele>250.80801391602</ele>
        <time>2014-06-11T14:49:21Z</time>
      </trkpt>
      <trkpt lat="43.42485" lon="6.11436">
        <ele>250.50244140625</ele>
        <time>2014-06-11T14:49:23Z</time>
      </trkpt>
      <trkpt lat="43.42482" lon="6.11434">
        <ele>250.28324890137</ele>
        <time>2014-06-11T14:49:24Z</time>
      </trkpt>
      <trkpt lat="43.42478" lon="6.11433">
        <ele>249.94505310059</ele>
        <time>2014-06-11T14:49:25Z</time>
      </trkpt>
      <trkpt lat="43.42474" lon="6.11431">
        <ele>249.60124206543</ele>
        <time>2014-06-11T14:49:26Z</time>
      </trkpt>
      <trkpt lat="43.42469" lon="6.1143">
        <ele>249.15388488769</ele>
        <time>2014-06-11T14:49:27Z</time>
      </trkpt>
      <trkpt lat="43.42464" lon="6.11428">
        <ele>248.4744720459</ele>
        <time>2014-06-11T14:49:28Z</time>
      </trkpt>
      <trkpt lat="43.42455" lon="6.11426">
        <ele>247.13940429688</ele>
        <time>2014-06-11T14:49:30Z</time>
      </trkpt>
      <trkpt lat="43.42451" lon="6.11423">
        <ele>246.76635742188</ele>
        <time>2014-06-11T14:49:31Z</time>
      </trkpt>
      <trkpt lat="43.42449" lon="6.11419">
        <ele>246.61434936523</ele>
        <time>2014-06-11T14:49:32Z</time>
      </trkpt>
      <trkpt lat="43.42447" lon="6.11416">
        <ele>246.62924194336</ele>
        <time>2014-06-11T14:49:33Z</time>
      </trkpt>
      <trkpt lat="43.42447" lon="6.11415">
        <ele>246.6443939209</ele>
        <time>2014-06-11T14:49:34Z</time>
      </trkpt>
      <trkpt lat="43.42447" lon="6.11416">
        <ele>246.49810791016</ele>
        <time>2014-06-11T14:49:41Z</time>
      </trkpt>
      <trkpt lat="43.42445" lon="6.11411">
        <ele>246.85411071777</ele>
        <time>2014-06-11T14:49:47Z</time>
      </trkpt>
      <trkpt lat="43.42442" lon="6.11404">
        <ele>247.45057678223</ele>
        <time>2014-06-11T14:49:50Z</time>
      </trkpt>
      <trkpt lat="43.42439" lon="6.11395">
        <ele>248.13439941406</ele>
        <time>2014-06-11T14:49:53Z</time>
      </trkpt>
      <trkpt lat="43.42434" lon="6.11379">
        <ele>249.2606048584</ele>
        <time>2014-06-11T14:49:59Z</time>
      </trkpt>
      <trkpt lat="43.42431" lon="6.11373">
        <ele>249.60136413574</ele>
        <time>2014-06-11T14:50:03Z</time>
      </trkpt>
      <trkpt lat="43.4243" lon="6.11371">
        <ele>249.65339660644</ele>
        <time>2014-06-11T14:50:05Z</time>
      </trkpt>
      <trkpt lat="43.42429" lon="6.1137">
        <ele>249.62901306152</ele>
        <time>2014-06-11T14:50:12Z</time>
      </trkpt>
      <trkpt lat="43.4243" lon="6.1137">
        <ele>249.73677062988</ele>
        <time>2014-06-11T14:50:17Z</time>
      </trkpt>
      <trkpt lat="43.42431" lon="6.11372">
        <ele>249.80107116699</ele>
        <time>2014-06-11T14:50:22Z</time>
      </trkpt>
      <trkpt lat="43.42432" lon="6.11372">
        <ele>249.81744384766</ele>
        <time>2014-06-11T14:50:29Z</time>
      </trkpt>
      <trkpt lat="43.42432" lon="6.11373">
        <ele>249.76277160644</ele>
        <time>2014-06-11T14:50:35Z</time>
      </trkpt>
      <trkpt lat="43.42432" lon="6.11373">
        <ele>249.76277160644</ele>
        <time>2014-06-11T14:50:50Z</time>
      </trkpt>
      <trkpt lat="43.42432" lon="6.11373">
        <ele>249.76277160644</ele>
        <time>2014-06-11T14:50:56Z</time>
      </trkpt>
      <trkpt lat="43.42432" lon="6.11373">
        <ele>249.81506347656</ele>
        <time>2014-06-11T14:51:02Z</time>
      </trkpt>
      <trkpt lat="43.42432" lon="6.11373">
        <ele>249.81506347656</ele>
        <time>2014-06-11T14:51:27Z</time>
      </trkpt>
      <trkpt lat="43.42432" lon="6.11373">
        <ele>249.87329101562</ele>
        <time>2014-06-11T14:52:24Z</time>
      </trkpt>
      <trkpt lat="43.42432" lon="6.11373">
        <ele>249.87329101562</ele>
        <time>2014-06-11T14:52:50Z</time>
      </trkpt>
      <trkpt lat="43.42432" lon="6.11373">
        <ele>249.82116699219</ele>
        <time>2014-06-11T14:53:03Z</time>
      </trkpt>
      <trkpt lat="43.42432" lon="6.11373">
        <ele>249.82116699219</ele>
        <time>2014-06-11T14:53:17Z</time>
      </trkpt>
      <trkpt lat="43.42432" lon="6.11373">
        <ele>249.78099060059</ele>
        <time>2014-06-11T14:53:43Z</time>
      </trkpt>
      <trkpt lat="43.42432" lon="6.11373">
        <ele>249.78099060059</ele>
        <time>2014-06-11T14:54:08Z</time>
      </trkpt>
      <trkpt lat="43.42432" lon="6.11373">
        <ele>249.77491760254</ele>
        <time>2014-06-11T14:55:10Z</time>
      </trkpt>
      <trkpt lat="43.42432" lon="6.11373">
        <ele>249.77491760254</ele>
        <time>2014-06-11T14:55:39Z</time>
      </trkpt>
      <trkpt lat="43.42431" lon="6.11372">
        <ele>249.78291320801</ele>
        <time>2014-06-11T14:55:40Z</time>
      </trkpt>
      <trkpt lat="43.42431" lon="6.11372">
        <ele>249.78291320801</ele>
        <time>2014-06-11T14:56:12Z</time>
      </trkpt>
      <trkpt lat="43.42431" lon="6.11373">
        <ele>249.57322692871</ele>
        <time>2014-06-11T14:56:28Z</time>
      </trkpt>
      <trkpt lat="43.42431" lon="6.11373">
        <ele>249.57322692871</ele>
        <time>2014-06-11T14:56:57Z</time>
      </trkpt>
      <trkpt lat="43.42431" lon="6.11373">
        <ele>249.69818115234</ele>
        <time>2014-06-11T14:57:43Z</time>
      </trkpt>
      <trkpt lat="43.42431" lon="6.11373">
        <ele>249.69818115234</ele>
        <time>2014-06-11T14:57:57Z</time>
      </trkpt>
      <trkpt lat="43.42432" lon="6.11373">
        <ele>249.70202636719</ele>
        <time>2014-06-11T14:58:27Z</time>
      </trkpt>
      <trkpt lat="43.42432" lon="6.11373">
        <ele>249.70202636719</ele>
        <time>2014-06-11T14:59:00Z</time>
      </trkpt>
      <trkpt lat="43.42432" lon="6.11373">
        <ele>249.70202636719</ele>
        <time>2014-06-11T14:59:25Z</time>
      </trkpt>
      <trkpt lat="43.42431" lon="6.11373">
        <ele>249.60740661621</ele>
        <time>2014-06-11T14:59:40Z</time>
      </trkpt>
      <trkpt lat="43.42431" lon="6.11373">
        <ele>249.60740661621</ele>
        <time>2014-06-11T14:59:50Z</time>
      </trkpt>
      <trkpt lat="43.42431" lon="6.11372">
        <ele>249.73599243164</ele>
        <time>2014-06-11T14:59:51Z</time>
      </trkpt>
      <trkpt lat="43.4243" lon="6.11371">
        <ele>249.73686218262</ele>
        <time>2014-06-11T14:59:53Z</time>
      </trkpt>
      <trkpt lat="43.42428" lon="6.11363">
        <ele>250.25105285644</ele>
        <time>2014-06-11T14:59:58Z</time>
      </trkpt>
      <trkpt lat="43.42421" lon="6.11346">
        <ele>249.94268798828</ele>
        <time>2014-06-11T15:00:04Z</time>
      </trkpt>
      <trkpt lat="43.42413" lon="6.11325">
        <ele>250.27978515625</ele>
        <time>2014-06-11T15:00:11Z</time>
      </trkpt>
      <trkpt lat="43.4241" lon="6.11316">
        <ele>250.79093933106</ele>
        <time>2014-06-11T15:00:14Z</time>
      </trkpt>
      <trkpt lat="43.42408" lon="6.11311">
        <ele>250.87339782715</ele>
        <time>2014-06-11T15:00:16Z</time>
      </trkpt>
      <trkpt lat="43.42405" lon="6.11306">
        <ele>250.62036132812</ele>
        <time>2014-06-11T15:00:18Z</time>
      </trkpt>
      <trkpt lat="43.42393" lon="6.11291">
        <ele>248.2760925293</ele>
        <time>2014-06-11T15:00:24Z</time>
      </trkpt>
      <trkpt lat="43.42381" lon="6.11278">
        <ele>246.14897155762</ele>
        <time>2014-06-11T15:00:30Z</time>
      </trkpt>
      <trkpt lat="43.42365" lon="6.1128">
        <ele>242.72947692871</ele>
        <time>2014-06-11T15:00:35Z</time>
      </trkpt>
      <trkpt lat="43.42345" lon="6.11294">
        <ele>240.35382080078</ele>
        <time>2014-06-11T15:00:41Z</time>
      </trkpt>
      <trkpt lat="43.42327" lon="6.11307">
        <ele>240.53065490723</ele>
        <time>2014-06-11T15:00:47Z</time>
      </trkpt>
      <trkpt lat="43.42321" lon="6.11307">
        <ele>240.93812561035</ele>
        <time>2014-06-11T15:00:49Z</time>
      </trkpt>
      <trkpt lat="43.42317" lon="6.11302">
        <ele>241.00671386719</ele>
        <time>2014-06-11T15:00:51Z</time>
      </trkpt>
      <trkpt lat="43.42311" lon="6.11288">
        <ele>240.57269287109</ele>
        <time>2014-06-11T15:00:55Z</time>
      </trkpt>
      <trkpt lat="43.42308" lon="6.11281">
        <ele>240.19647216797</ele>
        <time>2014-06-11T15:00:57Z</time>
      </trkpt>
      <trkpt lat="43.42303" lon="6.11264">
        <ele>240.45042419434</ele>
        <time>2014-06-11T15:01:02Z</time>
      </trkpt>
      <trkpt lat="43.42304" lon="6.1126">
        <ele>240.27442932129</ele>
        <time>2014-06-11T15:01:03Z</time>
      </trkpt>
      <trkpt lat="43.42307" lon="6.11254">
        <ele>240</ele>
        <time>2014-06-11T15:01:05Z</time>
      </trkpt>
      <trkpt lat="43.4231" lon="6.11249">
        <ele>239.97973632812</ele>
        <time>2014-06-11T15:01:06Z</time>
      </trkpt>
      <trkpt lat="43.4231" lon="6.11237">
        <ele>239.67829895019</ele>
        <time>2014-06-11T15:01:08Z</time>
      </trkpt>
      <trkpt lat="43.42299" lon="6.11208">
        <ele>238.71118164062</ele>
        <time>2014-06-11T15:01:12Z</time>
      </trkpt>
      <trkpt lat="43.42297" lon="6.11199">
        <ele>238.47943115234</ele>
        <time>2014-06-11T15:01:13Z</time>
      </trkpt>
      <trkpt lat="43.4229" lon="6.11173">
        <ele>237.71105957031</ele>
        <time>2014-06-11T15:01:16Z</time>
      </trkpt>
      <trkpt lat="43.42287" lon="6.11157">
        <ele>236.99101257324</ele>
        <time>2014-06-11T15:01:18Z</time>
      </trkpt>
      <trkpt lat="43.42286" lon="6.11148">
        <ele>236.60992431641</ele>
        <time>2014-06-11T15:01:19Z</time>
      </trkpt>
      <trkpt lat="43.4228" lon="6.11132">
        <ele>235.85292053223</ele>
        <time>2014-06-11T15:01:21Z</time>
      </trkpt>
      <trkpt lat="43.4227" lon="6.11108">
        <ele>234.88861083984</ele>
        <time>2014-06-11T15:01:24Z</time>
      </trkpt>
      <trkpt lat="43.42251" lon="6.11067">
        <ele>232.80825805664</ele>
        <time>2014-06-11T15:01:29Z</time>
      </trkpt>
      <trkpt lat="43.42246" lon="6.11059">
        <ele>232.16694641113</ele>
        <time>2014-06-11T15:01:30Z</time>
      </trkpt>
      <trkpt lat="43.42228" lon="6.11033">
        <ele>230.41981506348</ele>
        <time>2014-06-11T15:01:33Z</time>
      </trkpt>
      <trkpt lat="43.42223" lon="6.11025">
        <ele>229.61471557617</ele>
        <time>2014-06-11T15:01:34Z</time>
      </trkpt>
      <trkpt lat="43.42217" lon="6.11017">
        <ele>228.25915527344</ele>
        <time>2014-06-11T15:01:35Z</time>
      </trkpt>
      <trkpt lat="43.42211" lon="6.11009">
        <ele>226.74510192871</ele>
        <time>2014-06-11T15:01:36Z</time>
      </trkpt>
      <trkpt lat="43.42205" lon="6.11001">
        <ele>225.00801086426</ele>
        <time>2014-06-11T15:01:37Z</time>
      </trkpt>
      <trkpt lat="43.422" lon="6.10993">
        <ele>224.17893981934</ele>
        <time>2014-06-11T15:01:38Z</time>
      </trkpt>
      <trkpt lat="43.42189" lon="6.10974">
        <ele>222.50071716309</ele>
        <time>2014-06-11T15:01:40Z</time>
      </trkpt>
      <trkpt lat="43.42183" lon="6.10963">
        <ele>222.81335449219</ele>
        <time>2014-06-11T15:01:41Z</time>
      </trkpt>
      <trkpt lat="43.42177" lon="6.10954">
        <ele>222.98518371582</ele>
        <time>2014-06-11T15:01:42Z</time>
      </trkpt>
      <trkpt lat="43.42172" lon="6.10944">
        <ele>222.94110107422</ele>
        <time>2014-06-11T15:01:43Z</time>
      </trkpt>
      <trkpt lat="43.42167" lon="6.10936">
        <ele>223.82073974609</ele>
        <time>2014-06-11T15:01:44Z</time>
      </trkpt>
      <trkpt lat="43.42164" lon="6.10929">
        <ele>224.84039306641</ele>
        <time>2014-06-11T15:01:45Z</time>
      </trkpt>
      <trkpt lat="43.42155" lon="6.10918">
        <ele>225.24430847168</ele>
        <time>2014-06-11T15:01:47Z</time>
      </trkpt>
      <trkpt lat="43.4215" lon="6.10915">
        <ele>224.76724243164</ele>
        <time>2014-06-11T15:01:48Z</time>
      </trkpt>
      <trkpt lat="43.42143" lon="6.10912">
        <ele>223.84555053711</ele>
        <time>2014-06-11T15:01:49Z</time>
      </trkpt>
      <trkpt lat="43.42136" lon="6.10911">
        <ele>222.74897766113</ele>
        <time>2014-06-11T15:01:50Z</time>
      </trkpt>
      <trkpt lat="43.42127" lon="6.10912">
        <ele>221.21830749512</ele>
        <time>2014-06-11T15:01:51Z</time>
      </trkpt>
      <trkpt lat="43.42117" lon="6.10912">
        <ele>219.55137634277</ele>
        <time>2014-06-11T15:01:52Z</time>
      </trkpt>
      <trkpt lat="43.42108" lon="6.10913">
        <ele>217.95230102539</ele>
        <time>2014-06-11T15:01:53Z</time>
      </trkpt>
      <trkpt lat="43.42099" lon="6.10916">
        <ele>216.23335266113</ele>
        <time>2014-06-11T15:01:54Z</time>
      </trkpt>
      <trkpt lat="43.42089" lon="6.1092">
        <ele>215.04249572754</ele>
        <time>2014-06-11T15:01:55Z</time>
      </trkpt>
      <trkpt lat="43.42079" lon="6.10925">
        <ele>213.74101257324</ele>
        <time>2014-06-11T15:01:56Z</time>
      </trkpt>
      <trkpt lat="43.42069" lon="6.1093">
        <ele>212.07702636719</ele>
        <time>2014-06-11T15:01:57Z</time>
      </trkpt>
      <trkpt lat="43.42059" lon="6.10935">
        <ele>210.71188354492</ele>
        <time>2014-06-11T15:01:58Z</time>
      </trkpt>
      <trkpt lat="43.42049" lon="6.10941">
        <ele>209.28273010254</ele>
        <time>2014-06-11T15:01:59Z</time>
      </trkpt>
      <trkpt lat="43.42039" lon="6.10947">
        <ele>207.51210021973</ele>
        <time>2014-06-11T15:02:00Z</time>
      </trkpt>
      <trkpt lat="43.42028" lon="6.10954">
        <ele>205.63728332519</ele>
        <time>2014-06-11T15:02:01Z</time>
      </trkpt>
      <trkpt lat="43.42016" lon="6.1096">
        <ele>203.56587219238</ele>
        <time>2014-06-11T15:02:02Z</time>
      </trkpt>
      <trkpt lat="43.42006" lon="6.10965">
        <ele>201.29916381836</ele>
        <time>2014-06-11T15:02:03Z</time>
      </trkpt>
      <trkpt lat="43.41995" lon="6.1097">
        <ele>199.6572265625</ele>
        <time>2014-06-11T15:02:04Z</time>
      </trkpt>
      <trkpt lat="43.41986" lon="6.10973">
        <ele>199.04985046387</ele>
        <time>2014-06-11T15:02:05Z</time>
      </trkpt>
      <trkpt lat="43.41979" lon="6.10975">
        <ele>198.53082275391</ele>
        <time>2014-06-11T15:02:06Z</time>
      </trkpt>
      <trkpt lat="43.41973" lon="6.10976">
        <ele>198.04159545898</ele>
        <time>2014-06-11T15:02:07Z</time>
      </trkpt>
      <trkpt lat="43.41968" lon="6.10974">
        <ele>197.67066955566</ele>
        <time>2014-06-11T15:02:08Z</time>
      </trkpt>
      <trkpt lat="43.41965" lon="6.1097">
        <ele>197.4599609375</ele>
        <time>2014-06-11T15:02:09Z</time>
      </trkpt>
      <trkpt lat="43.41962" lon="6.10967">
        <ele>197.26770019531</ele>
        <time>2014-06-11T15:02:10Z</time>
      </trkpt>
      <trkpt lat="43.4196" lon="6.10967">
        <ele>197.13037109375</ele>
        <time>2014-06-11T15:02:11Z</time>
      </trkpt>
      <trkpt lat="43.41958" lon="6.10968">
        <ele>196.96557617188</ele>
        <time>2014-06-11T15:02:12Z</time>
      </trkpt>
      <trkpt lat="43.41956" lon="6.1097">
        <ele>196.80078125</ele>
        <time>2014-06-11T15:02:13Z</time>
      </trkpt>
      <trkpt lat="43.41953" lon="6.10971">
        <ele>196.60852050781</ele>
        <time>2014-06-11T15:02:14Z</time>
      </trkpt>
      <trkpt lat="43.41949" lon="6.10972">
        <ele>196.361328125</ele>
        <time>2014-06-11T15:02:15Z</time>
      </trkpt>
      <trkpt lat="43.41945" lon="6.10973">
        <ele>196.01951599121</ele>
        <time>2014-06-11T15:02:16Z</time>
      </trkpt>
      <trkpt lat="43.41932" lon="6.10977">
        <ele>195.40676879883</ele>
        <time>2014-06-11T15:02:19Z</time>
      </trkpt>
      <trkpt lat="43.4193" lon="6.10976">
        <ele>195.33639526367</ele>
        <time>2014-06-11T15:02:20Z</time>
      </trkpt>
      <trkpt lat="43.41929" lon="6.10976">
        <ele>195.30206298828</ele>
        <time>2014-06-11T15:02:21Z</time>
      </trkpt>
      <trkpt lat="43.41929" lon="6.10976">
        <ele>195.29690551758</ele>
        <time>2014-06-11T15:02:22Z</time>
      </trkpt>
      <trkpt lat="43.41929" lon="6.10976">
        <ele>195.29690551758</ele>
        <time>2014-06-11T15:02:23Z</time>
      </trkpt>
      <trkpt lat="43.41927" lon="6.10975">
        <ele>195.29348754883</ele>
        <time>2014-06-11T15:02:28Z</time>
      </trkpt>
      <trkpt lat="43.41926" lon="6.10973">
        <ele>195.30377197266</ele>
        <time>2014-06-11T15:02:29Z</time>
      </trkpt>
      <trkpt lat="43.41921" lon="6.10958">
        <ele>195.16442871094</ele>
        <time>2014-06-11T15:02:34Z</time>
      </trkpt>
      <trkpt lat="43.41916" lon="6.10937">
        <ele>195</ele>
        <time>2014-06-11T15:02:39Z</time>
      </trkpt>
      <trkpt lat="43.41907" lon="6.10899">
        <ele>195</ele>
        <time>2014-06-11T15:02:46Z</time>
      </trkpt>
      <trkpt lat="43.41906" lon="6.10894">
        <ele>195</ele>
        <time>2014-06-11T15:02:47Z</time>
      </trkpt>
      <trkpt lat="43.41906" lon="6.10861">
        <ele>195</ele>
        <time>2014-06-11T15:02:52Z</time>
      </trkpt>
      <trkpt lat="43.41906" lon="6.10855">
        <ele>195</ele>
        <time>2014-06-11T15:02:53Z</time>
      </trkpt>
      <trkpt lat="43.4191" lon="6.1081">
        <ele>195.19285583496</ele>
        <time>2014-06-11T15:03:00Z</time>
      </trkpt>
      <trkpt lat="43.41916" lon="6.10764">
        <ele>195.01409912109</ele>
        <time>2014-06-11T15:03:08Z</time>
      </trkpt>
      <trkpt lat="43.41922" lon="6.10736">
        <ele>195.35632324219</ele>
        <time>2014-06-11T15:03:13Z</time>
      </trkpt>
      <trkpt lat="43.41926" lon="6.10727">
        <ele>195.65844726562</ele>
        <time>2014-06-11T15:03:15Z</time>
      </trkpt>
      <trkpt lat="43.4193" lon="6.10711">
        <ele>195.7893371582</ele>
        <time>2014-06-11T15:03:18Z</time>
      </trkpt>
      <trkpt lat="43.41943" lon="6.10679">
        <ele>195.9609375</ele>
        <time>2014-06-11T15:03:24Z</time>
      </trkpt>
      <trkpt lat="43.4195" lon="6.1066">
        <ele>196.62438964844</ele>
        <time>2014-06-11T15:03:27Z</time>
      </trkpt>
      <trkpt lat="43.41956" lon="6.10642">
        <ele>197.28356933594</ele>
        <time>2014-06-11T15:03:30Z</time>
      </trkpt>
      <trkpt lat="43.41971" lon="6.10587">
        <ele>197.92687988281</ele>
        <time>2014-06-11T15:03:39Z</time>
      </trkpt>
      <trkpt lat="43.41983" lon="6.10544">
        <ele>198.00912475586</ele>
        <time>2014-06-11T15:03:47Z</time>
      </trkpt>
      <trkpt lat="43.41985" lon="6.10534">
        <ele>197.98309326172</ele>
        <time>2014-06-11T15:03:49Z</time>
      </trkpt>
      <trkpt lat="43.41988" lon="6.10512">
        <ele>197.61094665527</ele>
        <time>2014-06-11T15:03:53Z</time>
      </trkpt>
      <trkpt lat="43.41992" lon="6.10473">
        <ele>197.41003417969</ele>
        <time>2014-06-11T15:04:00Z</time>
      </trkpt>
      <trkpt lat="43.41998" lon="6.10398">
        <ele>196.91101074219</ele>
        <time>2014-06-11T15:04:13Z</time>
      </trkpt>
      <trkpt lat="43.42005" lon="6.10352">
        <ele>196.49859619141</ele>
        <time>2014-06-11T15:04:21Z</time>
      </trkpt>
      <trkpt lat="43.42014" lon="6.10299">
        <ele>197.11357116699</ele>
        <time>2014-06-11T15:04:30Z</time>
      </trkpt>
      <trkpt lat="43.4202" lon="6.10254">
        <ele>197.1071472168</ele>
        <time>2014-06-11T15:04:38Z</time>
      </trkpt>
      <trkpt lat="43.42025" lon="6.10228">
        <ele>197</ele>
        <time>2014-06-11T15:04:43Z</time>
      </trkpt>
      <trkpt lat="43.42027" lon="6.10205">
        <ele>197</ele>
        <time>2014-06-11T15:04:47Z</time>
      </trkpt>
      <trkpt lat="43.42033" lon="6.10152">
        <ele>197.18817138672</ele>
        <time>2014-06-11T15:04:56Z</time>
      </trkpt>
      <trkpt lat="43.42038" lon="6.1011">
        <ele>197.36669921875</ele>
        <time>2014-06-11T15:05:03Z</time>
      </trkpt>
      <trkpt lat="43.42043" lon="6.10069">
        <ele>197.27021789551</ele>
        <time>2014-06-11T15:05:10Z</time>
      </trkpt>
      <trkpt lat="43.42049" lon="6.10043">
        <ele>197</ele>
        <time>2014-06-11T15:05:15Z</time>
      </trkpt>
      <trkpt lat="43.42061" lon="6.0999">
        <ele>198.40881347656</ele>
        <time>2014-06-11T15:05:24Z</time>
      </trkpt>
      <trkpt lat="43.42075" lon="6.09931">
        <ele>199.55932617188</ele>
        <time>2014-06-11T15:05:33Z</time>
      </trkpt>
      <trkpt lat="43.42093" lon="6.09884">
        <ele>200</ele>
        <time>2014-06-11T15:05:40Z</time>
      </trkpt>
      <trkpt lat="43.42099" lon="6.09856">
        <ele>200</ele>
        <time>2014-06-11T15:05:44Z</time>
      </trkpt>
      <trkpt lat="43.421" lon="6.09848">
        <ele>200</ele>
        <time>2014-06-11T15:05:45Z</time>
      </trkpt>
      <trkpt lat="43.42102" lon="6.09822">
        <ele>200</ele>
        <time>2014-06-11T15:05:49Z</time>
      </trkpt>
      <trkpt lat="43.42097" lon="6.09787">
        <ele>201.65763854981</ele>
        <time>2014-06-11T15:05:53Z</time>
      </trkpt>
      <trkpt lat="43.42096" lon="6.09778">
        <ele>202.16731262207</ele>
        <time>2014-06-11T15:05:54Z</time>
      </trkpt>
      <trkpt lat="43.42089" lon="6.09754">
        <ele>206.99862670898</ele>
        <time>2014-06-11T15:05:57Z</time>
      </trkpt>
      <trkpt lat="43.42083" lon="6.09739">
        <ele>208.88435363769</ele>
        <time>2014-06-11T15:05:59Z</time>
      </trkpt>
      <trkpt lat="43.42062" lon="6.09702">
        <ele>208.64726257324</ele>
        <time>2014-06-11T15:06:05Z</time>
      </trkpt>
      <trkpt lat="43.42057" lon="6.09697">
        <ele>207.45182800293</ele>
        <time>2014-06-11T15:06:06Z</time>
      </trkpt>
      <trkpt lat="43.42041" lon="6.0968">
        <ele>206.6282043457</ele>
        <time>2014-06-11T15:06:10Z</time>
      </trkpt>
      <trkpt lat="43.42036" lon="6.09678">
        <ele>206.28756713867</ele>
        <time>2014-06-11T15:06:11Z</time>
      </trkpt>
      <trkpt lat="43.41998" lon="6.09661">
        <ele>205.4875793457</ele>
        <time>2014-06-11T15:06:18Z</time>
      </trkpt>
      <trkpt lat="43.41986" lon="6.0966">
        <ele>206.2208404541</ele>
        <time>2014-06-11T15:06:20Z</time>
      </trkpt>
      <trkpt lat="43.41961" lon="6.09659">
        <ele>207.57542419434</ele>
        <time>2014-06-11T15:06:24Z</time>
      </trkpt>
      <trkpt lat="43.41951" lon="6.09657">
        <ele>208.3914642334</ele>
        <time>2014-06-11T15:06:26Z</time>
      </trkpt>
      <trkpt lat="43.41936" lon="6.09656">
        <ele>207.92901611328</ele>
        <time>2014-06-11T15:06:29Z</time>
      </trkpt>
      <trkpt lat="43.41895" lon="6.09651">
        <ele>203.47169494629</ele>
        <time>2014-06-11T15:06:38Z</time>
      </trkpt>
      <trkpt lat="43.41863" lon="6.09648">
        <ele>200.80145263672</ele>
        <time>2014-06-11T15:06:45Z</time>
      </trkpt>
      <trkpt lat="43.41853" lon="6.09647">
        <ele>200.51499938965</ele>
        <time>2014-06-11T15:06:47Z</time>
      </trkpt>
      <trkpt lat="43.41825" lon="6.09633">
        <ele>200</ele>
        <time>2014-06-11T15:06:53Z</time>
      </trkpt>
      <trkpt lat="43.41812" lon="6.09614">
        <ele>200</ele>
        <time>2014-06-11T15:06:57Z</time>
      </trkpt>
      <trkpt lat="43.41791" lon="6.09569">
        <ele>200</ele>
        <time>2014-06-11T15:07:05Z</time>
      </trkpt>
      <trkpt lat="43.41771" lon="6.09528">
        <ele>199.76739501953</ele>
        <time>2014-06-11T15:07:12Z</time>
      </trkpt>
      <trkpt lat="43.41769" lon="6.09522">
        <ele>199.76544189453</ele>
        <time>2014-06-11T15:07:13Z</time>
      </trkpt>
      <trkpt lat="43.41759" lon="6.09482">
        <ele>200</ele>
        <time>2014-06-11T15:07:19Z</time>
      </trkpt>
      <trkpt lat="43.41745" lon="6.09416">
        <ele>200.65274047852</ele>
        <time>2014-06-11T15:07:29Z</time>
      </trkpt>
      <trkpt lat="43.41732" lon="6.09365">
        <ele>203.14558410644</ele>
        <time>2014-06-11T15:07:37Z</time>
      </trkpt>
      <trkpt lat="43.41726" lon="6.09317">
        <ele>204.67530822754</ele>
        <time>2014-06-11T15:07:44Z</time>
      </trkpt>
      <trkpt lat="43.41726" lon="6.0927">
        <ele>205.35833740234</ele>
        <time>2014-06-11T15:07:51Z</time>
      </trkpt>
      <trkpt lat="43.41724" lon="6.09221">
        <ele>204.15234375</ele>
        <time>2014-06-11T15:07:58Z</time>
      </trkpt>
      <trkpt lat="43.41722" lon="6.09156">
        <ele>205.02494812012</ele>
        <time>2014-06-11T15:08:08Z</time>
      </trkpt>
      <trkpt lat="43.41722" lon="6.09107">
        <ele>205.01916503906</ele>
        <time>2014-06-11T15:08:15Z</time>
      </trkpt>
      <trkpt lat="43.41724" lon="6.09053">
        <ele>205.10589599609</ele>
        <time>2014-06-11T15:08:23Z</time>
      </trkpt>
      <trkpt lat="43.41738" lon="6.08953">
        <ele>207.0558013916</ele>
        <time>2014-06-11T15:08:38Z</time>
      </trkpt>
      <trkpt lat="43.41738" lon="6.08947">
        <ele>207.24098205566</ele>
        <time>2014-06-11T15:08:39Z</time>
      </trkpt>
      <trkpt lat="43.41738" lon="6.08913">
        <ele>207.29052734375</ele>
        <time>2014-06-11T15:08:44Z</time>
      </trkpt>
      <trkpt lat="43.41734" lon="6.08886">
        <ele>206.91806030273</ele>
        <time>2014-06-11T15:08:48Z</time>
      </trkpt>
      <trkpt lat="43.41728" lon="6.08868">
        <ele>207.3987121582</ele>
        <time>2014-06-11T15:08:51Z</time>
      </trkpt>
      <trkpt lat="43.41718" lon="6.08845">
        <ele>207.29319763184</ele>
        <time>2014-06-11T15:08:55Z</time>
      </trkpt>
      <trkpt lat="43.41688" lon="6.08791">
        <ele>207.37478637695</ele>
        <time>2014-06-11T15:09:04Z</time>
      </trkpt>
      <trkpt lat="43.41667" lon="6.08751">
        <ele>207.95582580566</ele>
        <time>2014-06-11T15:09:11Z</time>
      </trkpt>
      <trkpt lat="43.41647" lon="6.08712">
        <ele>208.53823852539</ele>
        <time>2014-06-11T15:09:18Z</time>
      </trkpt>
      <trkpt lat="43.41624" lon="6.08667">
        <ele>205.86596679688</ele>
        <time>2014-06-11T15:09:26Z</time>
      </trkpt>
      <trkpt lat="43.41617" lon="6.08649">
        <ele>205.50062561035</ele>
        <time>2014-06-11T15:09:29Z</time>
      </trkpt>
      <trkpt lat="43.41612" lon="6.08629">
        <ele>205.46115112305</ele>
        <time>2014-06-11T15:09:32Z</time>
      </trkpt>
      <trkpt lat="43.41606" lon="6.08596">
        <ele>206.19155883789</ele>
        <time>2014-06-11T15:09:37Z</time>
      </trkpt>
      <trkpt lat="43.41593" lon="6.08518">
        <ele>207.03520202637</ele>
        <time>2014-06-11T15:09:48Z</time>
      </trkpt>
      <trkpt lat="43.41587" lon="6.08481">
        <ele>207.91410827637</ele>
        <time>2014-06-11T15:09:53Z</time>
      </trkpt>
      <trkpt lat="43.41579" lon="6.08432">
        <ele>208.04577636719</ele>
        <time>2014-06-11T15:10:00Z</time>
      </trkpt>
      <trkpt lat="43.41568" lon="6.08373">
        <ele>208.14588928223</ele>
        <time>2014-06-11T15:10:08Z</time>
      </trkpt>
      <trkpt lat="43.41564" lon="6.08351">
        <ele>207.93127441406</ele>
        <time>2014-06-11T15:10:11Z</time>
      </trkpt>
      <trkpt lat="43.41555" lon="6.08305">
        <ele>207.97827148438</ele>
        <time>2014-06-11T15:10:17Z</time>
      </trkpt>
      <trkpt lat="43.41544" lon="6.08254">
        <ele>207.11581420898</ele>
        <time>2014-06-11T15:10:24Z</time>
      </trkpt>
      <trkpt lat="43.41528" lon="6.08219">
        <ele>205.97709655762</ele>
        <time>2014-06-11T15:10:30Z</time>
      </trkpt>
      <trkpt lat="43.41508" lon="6.08179">
        <ele>205.15493774414</ele>
        <time>2014-06-11T15:10:37Z</time>
      </trkpt>
      <trkpt lat="43.41504" lon="6.08168">
        <ele>205.25448608398</ele>
        <time>2014-06-11T15:10:39Z</time>
      </trkpt>
      <trkpt lat="43.41478" lon="6.08121">
        <ele>204.57983398438</ele>
        <time>2014-06-11T15:10:47Z</time>
      </trkpt>
      <trkpt lat="43.41457" lon="6.08085">
        <ele>204.41172790527</ele>
        <time>2014-06-11T15:10:53Z</time>
      </trkpt>
      <trkpt lat="43.41413" lon="6.08011">
        <ele>204.83955383301</ele>
        <time>2014-06-11T15:11:06Z</time>
      </trkpt>
      <trkpt lat="43.41385" lon="6.07965">
        <ele>204.90315246582</ele>
        <time>2014-06-11T15:11:14Z</time>
      </trkpt>
      <trkpt lat="43.4136" lon="6.07933">
        <ele>205.38745117188</ele>
        <time>2014-06-11T15:11:21Z</time>
      </trkpt>
      <trkpt lat="43.41344" lon="6.0792">
        <ele>205.26728820801</ele>
        <time>2014-06-11T15:11:25Z</time>
      </trkpt>
      <trkpt lat="43.4134" lon="6.07915">
        <ele>205.24920654297</ele>
        <time>2014-06-11T15:11:26Z</time>
      </trkpt>
      <trkpt lat="43.41333" lon="6.07892">
        <ele>205.00201416016</ele>
        <time>2014-06-11T15:11:30Z</time>
      </trkpt>
      <trkpt lat="43.41321" lon="6.0785">
        <ele>206.6805267334</ele>
        <time>2014-06-11T15:11:36Z</time>
      </trkpt>
      <trkpt lat="43.41302" lon="6.0778">
        <ele>207.99073791504</ele>
        <time>2014-06-11T15:11:45Z</time>
      </trkpt>
      <trkpt lat="43.41299" lon="6.07772">
        <ele>208</ele>
        <time>2014-06-11T15:11:46Z</time>
      </trkpt>
      <trkpt lat="43.41293" lon="6.07744">
        <ele>208.13102722168</ele>
        <time>2014-06-11T15:11:50Z</time>
      </trkpt>
      <trkpt lat="43.41292" lon="6.07729">
        <ele>208.38948059082</ele>
        <time>2014-06-11T15:11:52Z</time>
      </trkpt>
      <trkpt lat="43.41296" lon="6.07682">
        <ele>209.30435180664</ele>
        <time>2014-06-11T15:11:59Z</time>
      </trkpt>
      <trkpt lat="43.41301" lon="6.07662">
        <ele>209.86044311523</ele>
        <time>2014-06-11T15:12:02Z</time>
      </trkpt>
      <trkpt lat="43.41309" lon="6.07637">
        <ele>210.05340576172</ele>
        <time>2014-06-11T15:12:06Z</time>
      </trkpt>
      <trkpt lat="43.41327" lon="6.07578">
        <ele>211.17514038086</ele>
        <time>2014-06-11T15:12:15Z</time>
      </trkpt>
      <trkpt lat="43.41339" lon="6.07529">
        <ele>212.2080078125</ele>
        <time>2014-06-11T15:12:22Z</time>
      </trkpt>
      <trkpt lat="43.41349" lon="6.07482">
        <ele>212.85818481445</ele>
        <time>2014-06-11T15:12:29Z</time>
      </trkpt>
      <trkpt lat="43.41357" lon="6.07439">
        <ele>213</ele>
        <time>2014-06-11T15:12:35Z</time>
      </trkpt>
      <trkpt lat="43.41381" lon="6.07326">
        <ele>213</ele>
        <time>2014-06-11T15:12:52Z</time>
      </trkpt>
      <trkpt lat="43.41391" lon="6.07288">
        <ele>213.08941650391</ele>
        <time>2014-06-11T15:12:58Z</time>
      </trkpt>
      <trkpt lat="43.41393" lon="6.07282">
        <ele>213.14434814453</ele>
        <time>2014-06-11T15:12:59Z</time>
      </trkpt>
      <trkpt lat="43.41407" lon="6.07238">
        <ele>213.66619873047</ele>
        <time>2014-06-11T15:13:06Z</time>
      </trkpt>
      <trkpt lat="43.41428" lon="6.07173">
        <ele>214.40777587891</ele>
        <time>2014-06-11T15:13:16Z</time>
      </trkpt>
      <trkpt lat="43.41445" lon="6.07122">
        <ele>215</ele>
        <time>2014-06-11T15:13:24Z</time>
      </trkpt>
      <trkpt lat="43.4146" lon="6.07085">
        <ele>215</ele>
        <time>2014-06-11T15:13:30Z</time>
      </trkpt>
      <trkpt lat="43.41469" lon="6.07077">
        <ele>215.21502685547</ele>
        <time>2014-06-11T15:13:33Z</time>
      </trkpt>
      <trkpt lat="43.41479" lon="6.07077">
        <ele>215.44586181641</ele>
        <time>2014-06-11T15:13:36Z</time>
      </trkpt>
      <trkpt lat="43.41486" lon="6.07079">
        <ele>215.67416381836</ele>
        <time>2014-06-11T15:13:38Z</time>
      </trkpt>
      <trkpt lat="43.41494" lon="6.07082">
        <ele>215.83724975586</ele>
        <time>2014-06-11T15:13:40Z</time>
      </trkpt>
      <trkpt lat="43.41502" lon="6.07083">
        <ele>216.07928466797</ele>
        <time>2014-06-11T15:13:42Z</time>
      </trkpt>
      <trkpt lat="43.41506" lon="6.07083">
        <ele>216.24923706055</ele>
        <time>2014-06-11T15:13:43Z</time>
      </trkpt>
      <trkpt lat="43.41531" lon="6.07078">
        <ele>217.18756103516</ele>
        <time>2014-06-11T15:13:49Z</time>
      </trkpt>
      <trkpt lat="43.41539" lon="6.07083">
        <ele>217.00045776367</ele>
        <time>2014-06-11T15:13:52Z</time>
      </trkpt>
      <trkpt lat="43.41541" lon="6.07087">
        <ele>217</ele>
        <time>2014-06-11T15:13:53Z</time>
      </trkpt>
      <trkpt lat="43.41546" lon="6.0711">
        <ele>217</ele>
        <time>2014-06-11T15:13:58Z</time>
      </trkpt>
      <trkpt lat="43.41557" lon="6.0712">
        <ele>217.06323242188</ele>
        <time>2014-06-11T15:14:02Z</time>
      </trkpt>
      <trkpt lat="43.41584" lon="6.07107">
        <ele>218</ele>
        <time>2014-06-11T15:14:10Z</time>
      </trkpt>
      <trkpt lat="43.41587" lon="6.07102">
        <ele>218</ele>
        <time>2014-06-11T15:14:12Z</time>
      </trkpt>
      <trkpt lat="43.41588" lon="6.07091">
        <ele>218</ele>
        <time>2014-06-11T15:14:15Z</time>
      </trkpt>
      <trkpt lat="43.41588" lon="6.07087">
        <ele>218</ele>
        <time>2014-06-11T15:14:16Z</time>
      </trkpt>
      <trkpt lat="43.41585" lon="6.07064">
        <ele>218.69567871094</ele>
        <time>2014-06-11T15:14:21Z</time>
      </trkpt>
      <trkpt lat="43.4158" lon="6.07037">
        <ele>218.88720703125</ele>
        <time>2014-06-11T15:14:28Z</time>
      </trkpt>
      <trkpt lat="43.41579" lon="6.07032">
        <ele>218.85974121094</ele>
        <time>2014-06-11T15:14:30Z</time>
      </trkpt>
      <trkpt lat="43.41579" lon="6.0703">
        <ele>218.84600830078</ele>
        <time>2014-06-11T15:14:31Z</time>
      </trkpt>
      <trkpt lat="43.41579" lon="6.07025">
        <ele>218.84600830078</ele>
        <time>2014-06-11T15:14:33Z</time>
      </trkpt>
      <trkpt lat="43.41579" lon="6.07013">
        <ele>218.85974121094</ele>
        <time>2014-06-11T15:14:38Z</time>
      </trkpt>
    </trkseg>
  </trk>
</gpx>